[[{"header":{"parameterUnit":"m.s-1","parameterCategory":1,"la1":30.6,"la2":29.2853,"lo1":-89.7004,"lo2":-87.6739,"dy":0.0162,"dx":0.0183,"nx":112,"ny":82,"refTime":"2023-07-04T18:00:00:Z","depth":0,"parameterNumber":2,"parameterNumberName":"U-component_of_WINDS"},"data":[0.0,0.0,0.0,0.0,0.0,0.0,0.0,0.0,0.0,0.0,0.0,0.0,0.0,0.0,0.0,0.0,0.0,0.0,0.0,0.0,0.0,0.0,0.0,0.0,0.0,0.0,0.0,0.0,0.0,0.0,0.0,0.0,0.0,0.0,0.0,0.0,0.0,0.0,0.0,0.0,0.0,0.0,0.0,0.0,0.0,0.0,0.0,0.0,0.0,0.0,0.0,0.0,0.0,0.0,0.0,0.0,0.0,0.0,0.0,0.0,0.0,0.0,0.0,0.0,0.0,0.0,0.0,0.0,0.0,0.0,0.0,0.0,0.0,0.0,0.0,0.0,0.0,0.0,0.0,0.0,0.0,0.0,0.0,0.0,0.0,0.0,0.0,0.0,0.0,0.0,-2.7739,-2.8174,-2.8602,-2.8969,-2.9189,-2.9019,-2.8309,-2.6987,0.0,0.0,0.0,0.0,0.0,0.0,0.0,0.0,0.0,0.0,0.0,0.0,0.0,0.0,0.0,0.0,0.0,0.0,0.0,0.0,0.0,0.0,0.0,0.0,0.0,0.0,0.0,0.0,0.0,0.0,0.0,0.0,0.0,0.0,0.0,0.0,0.0,0.0,0.0,0.0,0.0,0.0,0.0,0.0,0.0,0.0,0.0,0.0,0.0,0.0,0.0,0.0,0.0,0.0,0.0,0.0,0.0,0.0,0.0,0.0,0.0,0.0,0.0,0.0,0.0,0.0,0.0,0.0,0.0,0.0,0.0,0.0,0.0,0.0,0.0,0.0,0.0,0.0,0.0,0.0,0.0,0.0,0.0,0.0,0.0,0.0,0.0,0.0,0.0,0.0,0.0,0.0,0.0,0.0,0.0,0.0,0.0,0.0,0.0,0.0,0.0,0.0,0.0,0.0,-2.9201,-2.9943,-3.0086,-3.0137,-3.0188,-3.015,-2.9418,-2.7807,0.0,0.0,0.0,0.0,0.0,0.0,0.0,0.0,0.0,0.0,0.0,0.0,0.0,0.0,0.0,0.0,0.0,0.0,0.0,0.0,0.0,0.0,0.0,0.0,0.0,0.0,0.0,0.0,0.0,0.0,0.0,0.0,0.0,0.0,0.0,0.0,0.0,0.0,0.0,0.0,0.0,0.0,0.0,0.0,0.0,0.0,0.0,0.0,0.0,0.0,0.0,0.0,0.0,0.0,0.0,0.0,0.0,0.0,0.0,0.0,0.0,0.0,0.0,0.0,0.0,0.0,0.0,0.0,0.0,0.0,0.0,0.0,0.0,0.0,0.0,0.0,0.0,0.0,0.0,0.0,0.0,0.0,0.0,0.0,0.0,0.0,0.0,0.0,0.0,0.0,0.0,0.0,0.0,0.0,0.0,0.0,0.0,0.0,0.0,0.0,0.0,0.0,0.0,-2.8344,-2.9039,-3.0101,-3.0152,-3.0113,-3.0228,-3.0152,-2.9275,-2.7433,-2.7554,0.0,0.0,0.0,0.0,0.0,0.0,0.0,0.0,0.0,0.0,0.0,0.0,0.0,0.0,0.0,0.0,0.0,0.0,0.0,0.0,0.0,0.0,0.0,0.0,0.0,0.0,0.0,0.0,0.0,0.0,0.0,0.0,0.0,0.0,0.0,0.0,0.0,0.0,0.0,0.0,0.0,0.0,0.0,0.0,0.0,0.0,0.0,0.0,0.0,0.0,0.0,0.0,0.0,0.0,0.0,0.0,0.0,0.0,0.0,0.0,0.0,0.0,0.0,0.0,0.0,0.0,0.0,0.0,0.0,0.0,0.0,0.0,0.0,0.0,0.0,0.0,0.0,0.0,0.0,0.0,0.0,0.0,0.0,0.0,0.0,0.0,0.0,0.0,0.0,0.0,0.0,0.0,0.0,0.0,0.0,0.0,0.0,0.0,0.0,0.0,0.0,0.0,-2.847,-2.89,-2.9922,-2.9908,-2.9869,-3.0011,-2.9908,-2.8912,-2.6857,-2.7326,0.0,0.0,0.0,0.0,0.0,0.0,0.0,0.0,0.0,0.0,0.0,0.0,0.0,0.0,0.0,0.0,0.0,0.0,0.0,0.0,0.0,0.0,0.0,0.0,0.0,0.0,0.0,0.0,0.0,0.0,0.0,0.0,0.0,0.0,0.0,0.0,0.0,0.0,0.0,0.0,0.0,0.0,0.0,0.0,0.0,0.0,0.0,0.0,0.0,0.0,0.0,0.0,0.0,0.0,0.0,0.0,0.0,0.0,0.0,0.0,0.0,0.0,0.0,0.0,0.0,0.0,0.0,0.0,0.0,0.0,0.0,0.0,0.0,0.0,0.0,0.0,0.0,0.0,0.0,0.0,0.0,0.0,0.0,0.0,0.0,0.0,0.0,0.0,0.0,0.0,0.0,0.0,0.0,0.0,0.0,0.0,0.0,0.0,0.0,0.0,0.0,0.0,-2.9239,-2.9704,-2.9818,-2.9792,-2.9792,-2.983,-2.9792,-2.8875,-2.6672,-2.6411,0.0,0.0,0.0,0.0,0.0,0.0,0.0,0.0,0.0,0.0,0.0,0.0,0.0,0.0,0.0,0.0,0.0,0.0,0.0,0.0,0.0,0.0,0.0,0.0,0.0,0.0,0.0,0.0,0.0,0.0,0.0,0.0,0.0,0.0,0.0,0.0,0.0,0.0,0.0,0.0,0.0,0.0,0.0,0.0,0.0,0.0,0.0,0.0,0.0,0.0,0.0,0.0,0.0,0.0,0.0,0.0,0.0,0.0,0.0,0.0,0.0,0.0,0.0,0.0,0.0,0.0,0.0,0.0,0.0,0.0,0.0,0.0,0.0,0.0,0.0,0.0,0.0,0.0,0.0,0.0,0.0,0.0,0.0,0.0,0.0,0.0,0.0,0.0,0.0,0.0,0.0,0.0,0.0,0.0,0.0,0.0,0.0,0.0,0.0,0.0,0.0,0.0,-2.8849,-2.939,0.0,-2.9792,-2.9792,-2.9792,-2.9792,-2.8837,-2.6637,0.0,0.0,0.0,0.0,0.0,0.0,0.0,0.0,0.0,0.0,0.0,0.0,0.0,0.0,0.0,0.0,0.0,0.0,0.0,0.0,0.0,0.0,0.0,0.0,0.0,0.0,0.0,0.0,0.0,0.0,0.0,0.0,0.0,0.0,0.0,0.0,0.0,0.0,0.0,0.0,0.0,0.0,0.0,0.0,0.0,0.0,0.0,0.0,0.0,0.0,0.0,0.0,0.0,0.0,0.0,0.0,0.0,0.0,0.0,0.0,0.0,0.0,0.0,0.0,0.0,0.0,0.0,0.0,0.0,0.0,0.0,0.0,0.0,0.0,0.0,0.0,0.0,0.0,0.0,0.0,0.0,0.0,0.0,0.0,0.0,0.0,0.0,0.0,0.0,0.0,0.0,0.0,0.0,0.0,0.0,0.0,0.0,0.0,0.0,0.0,0.0,0.0,-2.777,-2.8637,-2.9352,0.0,-2.9792,-2.9792,-2.9792,-2.9792,-2.8913,-2.6889,0.0,0.0,0.0,0.0,0.0,0.0,0.0,0.0,0.0,0.0,0.0,0.0,0.0,0.0,0.0,0.0,0.0,0.0,0.0,0.0,0.0,0.0,0.0,0.0,0.0,0.0,0.0,0.0,0.0,0.0,0.0,0.0,0.0,0.0,0.0,0.0,0.0,0.0,0.0,0.0,0.0,0.0,0.0,0.0,0.0,0.0,0.0,0.0,0.0,0.0,0.0,0.0,0.0,0.0,0.0,0.0,0.0,0.0,0.0,0.0,0.0,0.0,0.0,0.0,0.0,0.0,0.0,0.0,0.0,0.0,0.0,0.0,0.0,0.0,0.0,0.0,0.0,0.0,0.0,0.0,0.0,0.0,0.0,0.0,0.0,0.0,0.0,0.0,0.0,0.0,0.0,0.0,0.0,0.0,0.0,0.0,0.0,0.0,0.0,0.0,0.0,0.0,-2.7392,-2.875,-2.9792,-2.9792,-2.9792,-2.9792,-2.9792,-2.9792,-2.9076,0.0,0.0,0.0,0.0,0.0,0.0,0.0,0.0,0.0,0.0,0.0,0.0,0.0,0.0,0.0,0.0,0.0,0.0,0.0,0.0,0.0,0.0,0.0,0.0,0.0,0.0,0.0,0.0,0.0,0.0,0.0,0.0,0.0,0.0,0.0,0.0,0.0,0.0,0.0,0.0,0.0,0.0,0.0,0.0,0.0,0.0,0.0,0.0,0.0,0.0,0.0,0.0,0.0,0.0,0.0,0.0,0.0,0.0,0.0,0.0,0.0,0.0,0.0,0.0,0.0,0.0,0.0,0.0,0.0,0.0,0.0,0.0,0.0,0.0,0.0,0.0,0.0,0.0,0.0,0.0,0.0,0.0,0.0,0.0,0.0,0.0,0.0,0.0,0.0,0.0,0.0,0.0,0.0,0.0,0.0,0.0,0.0,0.0,0.0,0.0,0.0,0.0,0.0,-2.7291,-2.875,-2.9792,-2.9792,-2.9792,-2.9792,-2.9792,-2.9792,-2.9076,-2.7394,0.0,0.0,0.0,0.0,0.0,0.0,0.0,0.0,0.0,0.0,0.0,0.0,0.0,0.0,0.0,0.0,0.0,0.0,0.0,0.0,0.0,0.0,0.0,0.0,0.0,0.0,0.0,0.0,0.0,0.0,0.0,0.0,0.0,0.0,0.0,0.0,0.0,0.0,0.0,0.0,0.0,0.0,0.0,0.0,0.0,0.0,0.0,0.0,0.0,0.0,0.0,0.0,0.0,0.0,0.0,0.0,0.0,0.0,0.0,0.0,0.0,0.0,0.0,0.0,0.0,0.0,0.0,0.0,0.0,0.0,0.0,0.0,0.0,0.0,0.0,0.0,0.0,0.0,0.0,0.0,0.0,0.0,0.0,0.0,0.0,0.0,0.0,0.0,0.0,0.0,0.0,0.0,0.0,0.0,0.0,0.0,0.0,0.0,0.0,0.0,0.0,0.0,-2.7304,-2.875,-2.9792,-2.9792,-2.9792,-2.9792,-2.9792,-2.9792,-2.9264,-2.8021,0.0,0.0,0.0,0.0,0.0,0.0,0.0,0.0,0.0,0.0,0.0,0.0,0.0,0.0,0.0,0.0,0.0,0.0,0.0,0.0,0.0,0.0,0.0,0.0,0.0,0.0,0.0,0.0,0.0,0.0,0.0,0.0,0.0,0.0,0.0,0.0,0.0,0.0,0.0,0.0,0.0,0.0,0.0,0.0,0.0,0.0,0.0,0.0,0.0,0.0,0.0,0.0,0.0,0.0,0.0,0.0,0.0,0.0,0.0,0.0,0.0,0.0,0.0,0.0,0.0,0.0,0.0,0.0,0.0,0.0,0.0,0.0,0.0,0.0,0.0,0.0,0.0,0.0,0.0,0.0,0.0,0.0,0.0,0.0,0.0,0.0,0.0,0.0,0.0,0.0,0.0,0.0,0.0,0.0,0.0,0.0,0.0,0.0,0.0,0.0,0.0,0.0,-2.7344,-2.875,-2.9792,-2.9792,-2.9792,-2.9792,-2.9792,-2.9792,-2.9541,-2.8925,0.0,0.0,0.0,0.0,0.0,0.0,0.0,0.0,0.0,0.0,0.0,0.0,0.0,0.0,0.0,0.0,0.0,0.0,0.0,0.0,0.0,0.0,0.0,0.0,0.0,0.0,0.0,0.0,0.0,0.0,0.0,0.0,0.0,0.0,0.0,0.0,0.0,0.0,0.0,0.0,0.0,0.0,0.0,0.0,0.0,0.0,0.0,0.0,0.0,0.0,0.0,0.0,0.0,0.0,0.0,0.0,0.0,0.0,0.0,0.0,-3.1839,0.0,0.0,0.0,0.0,0.0,0.0,0.0,0.0,0.0,0.0,0.0,0.0,0.0,0.0,0.0,0.0,0.0,0.0,0.0,0.0,0.0,0.0,0.0,0.0,0.0,0.0,0.0,0.0,0.0,0.0,0.0,0.0,0.0,0.0,0.0,0.0,0.0,0.0,0.0,0.0,0.0,-2.7293,-2.875,-2.9792,-2.9792,-2.9792,-2.9792,-2.9792,-2.9792,-2.9541,-2.8925,-2.8787,0.0,0.0,0.0,0.0,0.0,0.0,0.0,0.0,0.0,0.0,0.0,0.0,0.0,0.0,0.0,0.0,0.0,0.0,0.0,0.0,0.0,0.0,0.0,0.0,0.0,0.0,0.0,0.0,0.0,0.0,0.0,0.0,0.0,0.0,0.0,0.0,0.0,0.0,0.0,0.0,0.0,0.0,0.0,0.0,0.0,0.0,0.0,0.0,0.0,0.0,0.0,0.0,0.0,0.0,0.0,0.0,0.0,0.0,0.0,0.0,-3.1869,0.0,0.0,0.0,0.0,0.0,0.0,0.0,0.0,0.0,0.0,0.0,0.0,0.0,0.0,0.0,0.0,0.0,0.0,0.0,0.0,0.0,0.0,0.0,0.0,0.0,0.0,0.0,0.0,0.0,0.0,0.0,0.0,0.0,0.0,0.0,0.0,0.0,0.0,0.0,0.0,-2.767,-2.8913,-2.9792,-2.9792,-2.9792,-2.9792,-2.9792,-2.9792,-2.9666,-2.9365,-2.9051,0.0,0.0,0.0,0.0,0.0,0.0,0.0,0.0,0.0,0.0,0.0,0.0,0.0,0.0,0.0,0.0,0.0,0.0,0.0,0.0,0.0,0.0,0.0,0.0,0.0,0.0,0.0,0.0,0.0,0.0,0.0,0.0,0.0,0.0,0.0,0.0,0.0,0.0,0.0,0.0,0.0,0.0,0.0,0.0,0.0,0.0,0.0,0.0,0.0,0.0,0.0,0.0,0.0,-3.3466,-3.3326,-3.2579,-3.3168,-3.3578,-3.3784,-3.2662,-3.2676,-3.3365,-3.1704,0.0,0.0,0.0,0.0,0.0,0.0,0.0,0.0,0.0,0.0,0.0,0.0,0.0,0.0,0.0,0.0,0.0,0.0,0.0,0.0,0.0,0.0,0.0,0.0,-2.85,-2.8875,0.0,0.0,0.0,0.0,0.0,0.0,0.0,0.0,0.0,0.0,0.0,0.0,-2.8235,-2.9151,-2.9792,-2.9792,-2.9792,-2.9792,-2.9792,-2.9792,-2.9753,-2.9585,-2.9263,-2.895,0.0,0.0,0.0,0.0,0.0,0.0,0.0,0.0,0.0,0.0,0.0,0.0,0.0,0.0,0.0,0.0,0.0,0.0,0.0,0.0,0.0,0.0,0.0,0.0,0.0,0.0,0.0,0.0,0.0,0.0,0.0,0.0,-3.5587,-3.5414,0.0,0.0,0.0,0.0,0.0,0.0,0.0,0.0,0.0,0.0,0.0,0.0,0.0,-3.2776,-3.2948,-3.3759,-3.4169,-3.4169,-3.4987,-3.5314,-3.5207,-3.5183,-3.5192,-3.5235,-3.5055,0.0,-3.3469,-3.32,0.0,0.0,0.0,0.0,0.0,0.0,0.0,0.0,0.0,0.0,0.0,0.0,0.0,0.0,0.0,0.0,0.0,0.0,0.0,0.0,0.0,0.0,-2.9527,-2.9489,-2.959,-2.9654,0.0,-2.88,-2.8011,-2.7692,-2.7788,0.0,0.0,0.0,0.0,0.0,0.0,0.0,-2.8712,-2.939,-2.9792,-2.9792,-2.9792,-2.9792,-2.9792,-2.9792,-2.9495,-2.8712,-2.9303,-2.912,-2.7811,-2.8335,0.0,0.0,0.0,0.0,0.0,0.0,0.0,0.0,0.0,0.0,0.0,0.0,0.0,0.0,0.0,0.0,0.0,0.0,0.0,0.0,0.0,0.0,0.0,0.0,0.0,0.0,0.0,0.0,0.0,-3.5745,-3.562,-3.5688,-3.452,-3.3644,0.0,0.0,0.0,0.0,0.0,0.0,0.0,0.0,0.0,-3.4408,-3.4812,-3.5067,-3.5275,-3.6028,-3.6374,-3.6263,-3.6532,-3.667,-3.6637,-3.66,-3.6582,-3.6582,-3.6582,-3.6237,-3.5609,-3.4502,-3.3529,-3.2691,0.0,0.0,0.0,0.0,-3.0495,-3.0099,-3.0357,-2.9969,0.0,-2.9877,0.0,0.0,0.0,0.0,0.0,0.0,0.0,0.0,0.0,0.0,0.0,-2.9716,-2.9792,-2.9792,-2.9792,-2.9402,-2.8925,0.0,-2.82,-2.7861,-2.7083,0.0,0.0,0.0,0.0,-2.8612,-2.8863,-2.944,-2.9792,-2.9792,-2.9792,-2.9792,-2.9792,-2.9792,-2.9624,-2.9248,-2.9585,-2.9305,-2.8153,-2.7747,-2.7145,0.0,0.0,0.0,0.0,0.0,0.0,0.0,0.0,0.0,0.0,0.0,0.0,0.0,0.0,0.0,0.0,0.0,0.0,0.0,0.0,0.0,0.0,0.0,0.0,0.0,0.0,0.0,0.0,-3.5331,-3.5514,-3.5407,-3.4861,-3.4276,0.0,0.0,0.0,0.0,0.0,0.0,-3.4527,-3.4545,-3.5079,-3.6307,-3.6816,-3.7183,-3.7399,-3.7901,-3.8115,-3.7963,-3.7922,-3.7913,-3.7913,-3.7734,-3.7659,-3.7659,-3.7479,-3.7404,-3.7285,-3.5654,-3.4923,-3.4681,-3.4008,-3.3341,-3.2708,-3.2129,-3.1478,-3.0884,-3.0887,-3.0391,-2.9788,-3.0256,0.0,-2.8699,-2.8839,0.0,0.0,0.0,0.0,-2.7977,-2.8786,-2.8974,-2.9124,-2.9653,-2.9792,-2.9792,-2.9792,-2.9679,-2.9452,0.0,-2.875,-2.825,-2.7408,0.0,0.0,0.0,0.0,-2.895,-2.9126,-2.9654,-3.0005,-3.0005,-3.0118,-3.0143,-3.0018,-3.0005,-2.9864,-2.9507,-2.9675,-2.9417,-2.8542,-2.7525,-2.682,-2.6365,0.0,0.0,0.0,0.0,0.0,0.0,0.0,0.0,0.0,0.0,0.0,0.0,0.0,0.0,0.0,0.0,0.0,0.0,0.0,0.0,0.0,0.0,0.0,0.0,0.0,0.0,0.0,0.0,0.0,-3.3937,-3.3711,0.0,0.0,0.0,0.0,-3.4706,-3.4797,-3.5319,-3.6491,-3.6569,-3.7032,-3.8047,-3.8124,-3.8022,-3.7867,-3.8413,-3.8656,-3.8656,-3.9077,-3.932,-3.9269,-3.8631,-3.8347,-3.8302,-3.7689,-3.7404,-3.736,-3.6671,-3.6013,-3.5385,-3.4728,-3.349,-3.218,-3.2582,-3.1682,-3.0326,-3.0758,-3.0405,-2.9692,-2.9177,-2.8611,-2.8198,-2.86,-2.8288,0.0,0.0,-2.8636,-2.8799,-2.9565,-2.9754,-2.9754,-2.9779,-2.9792,-2.9792,-2.9792,-2.9365,-2.9088,0.0,-2.9729,-2.9528,-2.8913,0.0,-2.8838,-2.8813,-2.885,-2.9126,-2.9679,-3.0231,-3.057,-3.057,-3.1022,-3.111,-3.062,-3.057,-3.0015,-2.8657,-2.9339,-2.9417,-2.8542,-2.8438,-2.779,-2.6507,-2.6342,0.0,0.0,0.0,0.0,0.0,0.0,0.0,0.0,0.0,0.0,0.0,0.0,0.0,0.0,0.0,0.0,0.0,0.0,0.0,0.0,0.0,0.0,0.0,0.0,0.0,0.0,0.0,0.0,-3.5412,-3.5161,0.0,-3.566,-3.5683,-3.5978,-3.6645,-3.7018,-3.7388,-3.7818,-3.8135,-3.8463,-3.8837,-3.9573,-3.9839,-3.9642,-4.0299,-4.0558,-4.0447,-4.0598,-4.0681,-4.0666,-4.0427,-4.0322,-4.0307,-4.0068,-3.9963,-3.9888,-3.8811,-3.7719,-3.6683,-3.6343,-3.5807,-3.5176,-3.4057,-3.322,-3.2592,-3.1552,-3.1036,-3.0733,-3.0193,-2.9841,-2.9754,-2.9877,-2.9763,-2.9713,-3.029,-3.044,-3.049,-3.0771,-3.0821,-3.0821,-3.0821,-3.0821,-3.0821,-3.0821,-3.0658,-3.057,-3.0783,-2.9967,-2.9289,-2.9453,-2.9779,-2.9979,-2.9979,-3.0306,-3.0583,-3.0796,-3.0997,-3.111,-3.111,-3.1286,-3.1311,-3.1135,-3.111,-3.0901,-3.0406,-3.0336,-2.9659,-2.8234,-2.8402,-2.7475,-2.5237,-2.6277,-2.5596,0.0,0.0,0.0,0.0,0.0,0.0,0.0,0.0,0.0,0.0,0.0,0.0,0.0,0.0,0.0,0.0,0.0,0.0,0.0,0.0,0.0,0.0,0.0,0.0,0.0,0.0,-3.576,-3.6183,-3.6281,-3.6504,-3.6995,-3.7405,-3.782,-3.8253,-3.8833,-3.9293,-3.9539,-3.9749,-3.9963,-4.0137,-4.081,-4.1081,-4.086,-4.1573,-4.1881,-4.1752,-4.1938,-4.2043,-4.2028,-4.1841,-4.1752,-4.1737,-4.1512,-4.1422,-4.1309,-4.0368,-3.945,-3.857,-3.75,-3.6746,-3.6014,-3.4631,-3.3723,-3.3,-3.182,-3.1386,-3.1336,-3.0984,-3.0871,-3.0871,-3.0871,-3.0871,-3.0947,-3.1298,-3.1386,-3.1386,-3.1386,-3.1386,-3.1386,-3.1386,-3.1386,-3.1386,-3.1386,-3.1386,-3.1386,-3.1386,-3.0507,-2.988,-3.0269,-3.0633,-3.0706,-3.0303,-3.0894,-3.126,-3.0803,-3.1283,-3.1675,-3.1675,-3.1838,-3.1876,-3.1687,-3.1336,-3.1198,-3.1386,-3.0733,-2.9952,-2.9166,-2.8305,-2.7019,-2.5237,-2.5571,-2.4857,-2.2956,0.0,0.0,0.0,0.0,0.0,0.0,0.0,0.0,0.0,0.0,0.0,0.0,0.0,0.0,0.0,0.0,0.0,0.0,0.0,0.0,0.0,0.0,0.0,-3.4671,-3.5621,-3.6332,-3.6048,-3.694,-3.7648,-3.7791,-3.8882,-3.9551,-3.9616,-4.0197,-4.0858,-4.1586,-4.1372,-4.1483,-4.1999,-4.1836,-4.1648,-4.1482,-4.2111,-4.2425,-4.244,-4.303,-4.329,-4.3275,-4.2671,-4.2425,-4.2396,-4.1752,-4.1482,-4.1444,-4.1201,-4.1124,-4.0872,-3.8216,-3.6093,-3.4527,-3.4251,-3.3027,-3.1461,-3.1449,-3.1436,-3.1436,-3.1424,-3.1411,-3.1411,-3.1411,-3.1411,-3.1424,-3.1436,-3.1436,-3.1436,-3.1436,-3.1436,-3.1436,-3.1436,-3.1436,-3.1436,-3.1436,-3.1436,-3.1436,-3.1436,-3.1436,-3.1436,-3.1411,-3.1411,-3.1019,-2.9795,-3.0651,0.0,-2.977,-3.1138,-3.224,-3.2173,-3.2717,-3.283,-3.2265,-3.122,-3.0884,-3.1411,-3.0444,-3.0331,-3.1292,-2.8359,-2.6672,-2.6632,-2.4395,-2.3432,-2.3919,0.0,0.0,0.0,0.0,0.0,0.0,0.0,0.0,0.0,0.0,0.0,0.0,0.0,0.0,0.0,0.0,0.0,0.0,0.0,0.0,0.0,0.0,-3.7062,-3.6711,-3.6964,-3.7529,-3.8407,-3.8756,-3.9354,-4.0439,-4.0836,-4.1232,-4.1724,-4.194,-4.2125,-4.2309,-4.2426,-4.259,-4.2713,-4.2799,-4.2845,-4.2791,-4.297,-4.306,-4.306,-4.32,-4.329,-4.329,-4.315,-4.306,-4.3045,-4.288,-4.2791,-4.2722,-4.2034,-4.1763,-4.1513,-3.9324,-3.8186,-3.7564,-3.6057,-3.4529,-3.3156,-3.2754,-3.2616,-3.2541,-3.2114,-3.1989,-3.1989,-3.1989,-3.1989,-3.2077,-3.2491,-3.2616,-3.2616,-3.2616,-3.2616,-3.2616,-3.2616,-3.2616,-3.2616,-3.2616,-3.2616,-3.2616,-3.2616,-3.2616,-3.2478,-3.2064,-3.1989,-3.2026,-3.211,-3.2428,0.0,-3.216,-3.2554,-3.2637,-3.2055,-3.2112,-3.215,-3.1988,-3.1714,-3.1859,-3.2579,-3.1951,-3.107,-3.0052,-2.9403,-2.8424,-2.7069,-2.486,-2.3753,0.0,0.0,0.0,0.0,0.0,0.0,0.0,0.0,0.0,0.0,0.0,0.0,0.0,0.0,0.0,0.0,0.0,0.0,0.0,0.0,0.0,0.0,-3.7261,-3.7778,-3.8654,-3.8505,-3.8739,-3.9782,-4.0201,-4.0816,-4.1909,-4.2263,-4.2586,-4.2987,-4.3279,-4.3433,-4.3433,-4.3426,-4.3411,-4.3411,-4.3332,-4.329,-4.329,-4.329,-4.329,-4.329,-4.329,-4.329,-4.329,-4.329,-4.329,0.0,-4.321,-4.3155,-4.3126,-4.2435,-4.1953,0.0,0.0,0.0,0.0,0.0,-3.4933,-3.4198,-3.3872,-3.3771,-3.3709,-3.337,-3.3269,-3.3269,-3.3269,-3.3269,-3.3332,-3.3671,-3.3771,-3.3771,-3.3771,-3.3771,-3.3771,-3.3771,-3.3771,-3.3709,-3.347,-3.342,-3.3357,-3.3162,-3.3124,0.0,-3.2641,-3.2579,-3.2486,-3.2276,-3.2737,-3.2905,-3.2314,-3.2737,-3.2912,-3.2446,-3.2421,-3.2421,-3.2421,-3.1984,0.0,0.0,0.0,-3.0977,-2.8985,-2.9089,0.0,0.0,0.0,-2.4343,-2.4759,0.0,0.0,0.0,-2.1863,-2.1205,0.0,0.0,0.0,0.0,0.0,0.0,0.0,0.0,0.0,0.0,0.0,0.0,0.0,0.0,0.0,0.0,-3.7732,-3.8477,-4.0243,-4.0182,-4.0166,-4.0766,-4.1432,-4.2094,-4.2771,-4.334,-4.3716,-4.3716,-4.4271,-4.4572,-4.4572,0.0,0.0,0.0,0.0,-4.329,-4.329,-4.329,-4.329,-4.329,-4.329,-4.329,-4.329,-4.329,-4.329,-4.329,-4.3076,-4.2981,-4.2996,-4.2581,-4.1785,-4.0661,-3.9368,-3.8325,-3.7327,-3.5462,-3.4768,-3.4756,-3.4705,0.0,0.0,-3.468,-3.468,-3.468,-3.468,-3.468,-3.468,-3.468,-3.468,-3.468,-3.468,-3.468,-3.468,-3.468,-3.468,-3.4587,-3.4098,-3.3985,-3.3847,-3.3357,-3.3269,-3.3269,-3.3269,-3.3156,-3.2699,-3.1502,-3.2376,-3.2775,-3.1577,-3.2531,-3.3219,-3.3093,0.0,0.0,-3.2993,-3.2022,-3.1938,-3.3048,-3.2043,-3.0531,-2.8582,-2.8379,-2.7256,-2.5024,-2.4918,-2.5249,-2.6003,-2.5756,-2.5655,-2.5548,-2.261,-2.1558,0.0,0.0,0.0,0.0,0.0,0.0,0.0,0.0,0.0,0.0,0.0,0.0,0.0,0.0,0.0,-3.8171,-3.9212,-4.0043,-4.0443,-4.1832,-4.2869,-4.3008,-4.3146,-4.3485,-4.4141,-4.4348,-4.4425,-4.4425,-4.4548,-4.4534,-4.4358,-4.4143,-4.391,-4.3769,-4.3463,-4.329,-4.329,-4.329,-4.329,-4.329,0.0,0.0,-4.329,-4.329,-4.329,-4.329,-4.3076,-4.2981,-4.2996,-4.2581,-4.1282,-3.9448,-3.8434,-3.7469,-3.656,-3.568,-3.5345,-3.527,-3.4831,-3.468,-3.468,-3.468,-3.468,-3.468,-3.468,-3.468,0.0,-3.468,-3.468,-3.468,-3.468,-3.468,-3.468,-3.468,-3.468,-3.4688,-3.4587,-3.4562,-3.4525,-3.4424,-3.4399,-3.4399,-3.4399,-3.3671,-3.3006,-3.2737,-3.3319,-3.3658,-3.3401,-3.3953,-3.3984,-3.2978,-3.2878,-3.2648,-3.2187,-3.195,-3.2184,-3.3031,-3.2142,-3.1363,-3.0938,-3.0223,-2.9195,-2.7904,-2.7515,-2.7056,-2.648,-2.6072,-2.584,-2.583,-2.4814,-2.4316,0.0,0.0,0.0,0.0,0.0,0.0,0.0,0.0,0.0,0.0,0.0,-3.6772,0.0,0.0,-3.8013,-3.9293,-4.005,-4.0843,-4.1909,-4.2961,-4.3608,-4.3608,-4.3917,-4.424,-4.4579,-4.461,-4.461,-4.461,-4.4511,-4.4396,-4.432,-4.4026,-4.3793,-4.369,-4.3423,-4.329,-4.329,-4.3618,-4.3783,-4.3783,-4.4152,-4.4152,-4.3783,-4.3783,-4.3563,-4.3155,-4.2915,-4.2809,-4.2607,-4.131,-4.0173,-3.9077,-3.7658,-3.6815,-3.6367,-3.6056,-3.5956,-3.5918,-3.5642,-3.5542,-3.5542,-3.5542,-3.5542,-3.5542,-3.5542,-3.5542,-3.5542,-3.5542,-3.5542,-3.5542,-3.5542,-3.5542,-3.5542,-3.5542,-3.5542,-3.5466,-3.5157,-3.5094,-3.5006,-3.4731,-3.468,-3.468,-3.468,-3.4261,-3.3897,-3.3897,-3.4135,-3.4311,-3.4311,-3.455,-3.4467,-3.384,-3.3733,-3.362,-3.3333,-3.3308,-3.3352,-3.3495,-3.3033,-3.2401,-3.1637,-3.1169,-3.0441,-2.9452,-2.8703,-2.8134,-2.7636,-2.6951,-2.6615,-2.6568,-2.6346,-2.5879,0.0,0.0,0.0,0.0,0.0,0.0,0.0,0.0,-3.6153,-3.613,-3.6664,-3.7164,-3.7265,-3.7804,-3.8839,-4.0616,-4.1012,-4.1694,-4.3377,-4.3716,-4.3809,-4.3809,-4.4286,-4.461,-4.461,-4.461,-4.461,-4.461,-4.4396,-4.4281,-4.4243,-4.391,-4.375,-4.3831,-4.3618,-4.3544,-4.3678,-4.4242,-4.4511,-4.4511,-4.5035,-4.502,-4.4496,-4.4377,-4.3896,-4.3174,-4.2611,-4.2225,-4.1895,-4.0,-3.9077,-3.8765,-3.7256,-3.6546,-3.6405,-3.6405,-3.6405,-3.6405,-3.6405,-3.6405,-3.6405,-3.6405,-3.6405,-3.6405,-3.6405,-3.6405,-3.6405,-3.6405,-3.6405,-3.6405,-3.6405,-3.6405,-3.6405,-3.6405,-3.6405,-3.6292,-3.5805,-3.5658,-3.5533,-3.5127,-3.5039,-3.5039,-3.5039,-3.5039,-3.4977,-3.4705,-3.4768,-3.4876,-3.4876,-3.4977,-3.5002,-3.4856,-3.4876,-3.4793,-3.4726,-3.468,-3.4537,-3.4085,-3.406,-3.3493,-3.2273,-3.2107,-3.1591,-3.0625,-2.9726,-2.9176,-2.8991,-2.8222,-2.7762,-2.7584,-2.7584,-2.6962,-3.4908,-3.5602,-3.6238,-3.6013,-3.6244,-3.6551,0.0,0.0,-3.7385,-3.7313,-3.7837,-3.867,-3.9847,-4.0139,-4.0662,-4.214,-4.2848,-4.3347,-4.3578,-4.4117,-4.4502,-4.4502,-4.4564,-4.461,-4.461,-4.461,-4.461,-4.461,-4.4396,-4.4205,-4.405,-4.3832,-4.3867,-4.4223,-4.4197,-4.4481,-4.5065,-4.5155,-4.5185,-4.5185,-4.5259,-4.5259,-4.517,-4.4586,-4.4165,-4.3775,-4.196,-4.1015,-4.0731,-3.9637,-3.872,-3.7946,-3.7717,-3.7129,-3.6405,-3.6405,-3.6405,-3.6405,-3.6405,-3.6405,-3.6405,-3.6405,-3.6405,-3.6405,-3.6405,-3.6405,-3.6405,-3.6405,-3.6405,-3.6405,-3.6405,-3.6405,-3.6405,-3.6405,-3.6405,-3.6392,-3.6329,-3.6317,-3.6304,-3.6229,-3.6229,-3.6229,-3.6229,-3.6229,-3.5889,-3.4864,-3.5094,-3.5408,-3.5408,-3.5881,-3.5994,-3.5458,-3.5408,-3.5207,-3.4718,-3.468,-3.4655,-3.4625,-3.4625,-3.451,-3.4357,-3.3883,-3.3185,-3.2184,-3.1574,-3.0857,-3.0034,-2.9943,-2.9395,-2.8538,-2.8538,-2.7898,-3.6126,-3.6328,0.0,0.0,-3.6926,-3.7153,-3.7554,-3.7835,-3.8054,-3.8211,-3.902,-3.9828,-4.0397,-4.1151,-4.2048,0.0,-4.3424,-4.3747,-4.4132,-4.444,-4.461,-4.461,-4.461,-4.461,-4.461,-4.461,-4.4534,-4.4435,-4.4243,-4.4026,-4.3847,-4.3957,-4.4128,-4.4302,-4.4691,-4.502,-4.5289,-4.5693,-4.5888,-4.5903,-4.6277,-4.6192,-4.5692,-4.5409,-4.465,-4.3466,-4.1581,-4.0689,-4.0461,-3.8988,-3.816,-3.7763,-3.7176,-3.6769,-3.6405,-3.6405,-3.6405,-3.6405,-3.6405,-3.6405,-3.6405,-3.6405,-3.6405,-3.6405,-3.6405,-3.6405,-3.6405,-3.6405,-3.6405,-3.6405,-3.6405,-3.6405,-3.6405,-3.6405,-3.6405,-3.6405,-3.6405,-3.6405,-3.6405,-3.6405,-3.6405,-3.6405,-3.6405,-3.6405,-3.6254,-3.5742,-3.5868,-3.6019,-3.6019,-3.6267,-3.6317,-3.6044,-3.6019,-3.5931,-3.5692,-3.568,-3.5542,-3.5169,-3.5157,-3.5019,-3.4693,-3.45,-3.4182,-3.374,-3.2977,-3.2071,-3.1054,-3.0469,-2.9675,-2.8661,-2.8661,-2.838,-3.6297,0.0,0.0,-3.7144,-3.7475,-3.7777,-3.8372,-3.856,-3.87,-3.8938,-3.9791,-4.0551,-4.0751,-4.1801,-4.2817,-4.3501,-4.3762,-4.4055,-4.4548,-4.461,-4.461,-4.461,-4.461,-4.461,-4.461,-4.4549,-4.4473,-4.432,-4.4065,-4.3832,-4.3729,-4.4093,-4.4392,-4.4586,-4.5229,-4.5663,-4.5843,-4.6337,-4.6591,-4.6563,-4.707,-4.6925,-4.6248,-4.5941,-4.4886,-4.3188,-4.1297,-4.0369,-4.0073,-3.8192,-3.7407,-3.7361,-3.6675,-3.6405,-3.6405,-3.6405,-3.6405,-3.6405,-3.6405,-3.6405,-3.6405,-3.6405,-3.6405,-3.6405,-3.6405,-3.6405,-3.6405,-3.6405,-3.6405,-3.6405,-3.6405,-3.6405,-3.6405,-3.6405,-3.6405,-3.6405,-3.6405,-3.6405,-3.6405,-3.6405,-3.6405,-3.6405,-3.6405,-3.6405,-3.6405,-3.6405,-3.6405,-3.6405,-3.6405,-3.6405,-3.6405,-3.6405,-3.6405,-3.6405,-3.6405,-3.6405,-3.6194,-3.5805,-3.5768,-3.5592,-3.519,-3.5027,-3.4906,-3.4906,-3.4126,-3.3293,-3.2535,-3.1805,-3.0897,-2.99,-2.9567,-2.9406,0.0,0.0,-3.685,-3.7196,-3.7888,-3.8479,-3.851,-3.8985,-3.9462,-3.9493,-4.0013,-4.0705,-4.1432,-4.214,-4.2817,-4.3501,-4.4163,-4.4594,-4.461,-4.461,-4.461,-4.461,-4.461,-4.461,0.0,-4.4435,-4.432,-4.4281,-4.3949,-4.3729,-4.369,-4.4093,-4.4601,-4.5244,-4.5933,-4.6591,-4.7234,-4.7264,-4.7279,-4.7279,-4.7294,-4.7149,-4.6828,-4.5814,-4.4557,-4.316,-4.1091,-3.9856,-3.9121,-3.7209,-3.6452,-3.6452,-3.6405,-3.6405,-3.6405,-3.6405,-3.6405,-3.6405,-3.6405,-3.6405,-3.6405,-3.6405,-3.6405,-3.6405,-3.6405,-3.6405,-3.6405,-3.6405,-3.6405,-3.6405,-3.6405,-3.6405,-3.6405,-3.6405,-3.6405,-3.6405,-3.6405,-3.6405,-3.6405,-3.6405,-3.6405,-3.6405,-3.6405,-3.6405,-3.6405,-3.6405,-3.6405,-3.6405,-3.6405,-3.6405,-3.6405,-3.6405,-3.6405,-3.6405,-3.6405,-3.6405,-3.6405,-3.638,-3.638,-3.638,-3.6355,-3.5805,-3.547,-3.547,-3.4944,-3.4623,-3.4635,-3.4577,-3.4098,-3.3142,-3.21,-3.1311,-3.5517,0.0,-3.7371,-3.8479,-3.8963,-3.9293,-3.9721,-3.9982,-4.0151,-4.0151,-4.0439,-4.0739,-4.0847,-4.1538,-4.2268,-4.2854,-4.3479,-4.4101,-4.4548,-4.461,-4.461,-4.461,-4.461,0.0,0.0,0.0,0.0,-4.4089,-4.3832,-4.3831,-4.4093,-4.4657,-4.5274,-4.5963,-4.6621,-4.7085,-4.7309,-4.7309,-4.7309,-4.7309,-4.699,-4.6771,-4.6653,-4.5552,-4.4196,-4.2692,-4.0942,-3.9478,-3.8147,-3.6896,-3.6405,-3.6405,-3.6405,-3.6405,-3.6405,-3.6405,-3.6405,-3.6405,-3.6405,-3.6405,-3.6405,-3.6405,-3.6405,-3.6405,-3.6405,-3.6405,-3.6405,-3.6405,-3.6405,-3.6405,-3.6405,-3.6405,-3.6405,-3.6405,-3.6405,-3.6405,-3.6405,-3.6405,-3.6405,-3.6405,-3.6405,-3.6405,-3.6405,-3.6405,-3.6405,-3.6405,-3.6405,-3.6405,-3.6405,-3.6405,-3.6405,-3.6405,-3.6405,-3.6405,-3.6405,-3.6405,-3.6405,-3.6405,-3.6405,-3.6405,-3.6405,-3.6194,-3.6094,-3.6094,-3.5906,-3.5466,-3.4794,-3.4794,-3.4246,-3.3221,-3.2843,-3.2232,-3.5915,-3.702,-3.8076,-3.9223,-3.9659,-3.9967,-4.0397,-4.0489,-4.0489,-4.0489,-4.0276,-4.0081,-4.0124,-4.0662,-4.1163,-4.1553,-4.2572,-4.3467,-4.3899,-4.4176,-4.437,-4.4594,-4.461,-4.4572,0.0,0.0,0.0,-4.4026,-4.3714,-4.3748,-4.4272,-4.4945,-4.5618,-4.6264,-4.6965,-4.7309,-4.7309,-4.7309,-4.7309,-4.7309,-4.6815,-4.6594,-4.658,-4.5653,-4.4569,-4.3229,-4.1328,-3.9819,-3.8555,-3.7032,-3.6405,-3.6405,-3.6405,-3.6405,-3.6405,-3.6405,-3.6405,-3.6405,-3.6405,-3.6405,-3.6405,-3.6405,-3.6405,-3.6405,-3.6405,-3.6405,-3.6405,-3.6405,-3.6405,-3.6405,-3.6405,-3.6405,-3.6405,-3.6405,-3.6405,-3.6405,-3.6405,-3.6405,-3.6405,-3.6405,-3.6405,-3.6405,-3.6405,-3.6405,-3.6405,-3.6405,-3.6405,-3.6405,-3.6405,-3.6405,-3.6405,-3.6405,-3.6405,-3.6405,-3.6405,-3.6405,-3.6405,-3.6405,-3.6405,-3.6405,-3.6405,-3.6405,-3.6405,-3.6405,-3.6405,-3.6061,-3.5367,-3.5367,-3.503,-3.4337,-3.3944,-3.3388,-3.6279,-3.756,-3.8872,-3.9434,-4.0013,-4.0489,-4.0489,-4.0459,-4.0428,-4.0351,-3.9393,-3.8687,0.0,0.0,-3.9586,-3.9727,-4.143,-4.2762,-4.2839,-4.3397,-4.3988,0.0,0.0,0.0,0.0,0.0,0.0,-4.4033,0.0,-4.3633,-4.4332,-4.499,-4.5663,-4.6309,-4.698,-4.7309,-4.7309,-4.7309,-4.7309,-4.7309,-4.6815,-4.6594,-4.6594,-4.6105,-4.5473,-4.4614,-4.2195,-4.0748,-3.9905,-3.7445,-3.6455,-3.6455,-3.6417,-3.6405,-3.6405,-3.6405,-3.6405,-3.6405,-3.6405,-3.6405,-3.6405,-3.6405,-3.6405,-3.6405,-3.6405,-3.6405,-3.6405,-3.6405,-3.6405,-3.6405,-3.6405,-3.6405,-3.6452,-3.6417,-3.6405,-3.6405,-3.6405,-3.6405,-3.6405,-3.6405,-3.6405,-3.6405,-3.6405,-3.6405,-3.6405,-3.6405,-3.6405,-3.6405,-3.6405,-3.6405,-3.6405,-3.6405,-3.6405,-3.6405,-3.6405,-3.6405,-3.6405,-3.6405,-3.6405,-3.6405,-3.6405,-3.6405,-3.6405,-3.6405,-3.6405,-3.6405,-3.6405,-3.6405,-3.6405,-3.6358,-3.5367,-3.4824,-3.7701,-3.8592,-3.9449,-4.0108,-4.0366,-4.0489,-4.0489,-4.0105,-3.9477,-3.8592,-3.7452,-3.6458,0.0,0.0,0.0,-3.8714,-4.0562,0.0,-4.3245,-4.3522,0.0,-4.4305,0.0,-4.4281,-4.4104,-4.391,0.0,0.0,-4.4183,-4.4347,-4.5005,-4.5693,-4.6367,-4.704,-4.7219,-4.7309,-4.7309,-4.7309,-4.7309,-4.7309,-4.6815,-4.6594,-4.6594,-4.6105,-4.4752,-4.268,-4.2062,-4.0573,-3.8457,-3.7427,-3.6973,-3.6935,-3.6568,-3.6405,-3.6405,-3.6405,-3.6405,-3.6405,-3.6405,-3.6405,-3.6405,-3.6405,-3.6405,-3.6405,-3.6405,-3.6405,-3.6405,-3.6405,-3.6499,-3.6581,-3.6452,-3.664,-3.6828,-3.6499,-3.6499,-3.6581,-3.6452,-3.6405,-3.6405,-3.6405,-3.6405,-3.6405,-3.6405,-3.6405,-3.6405,-3.6405,-3.6405,-3.6405,-3.6405,-3.6405,-3.6405,-3.6405,-3.6405,-3.6405,-3.6405,-3.6405,-3.6405,-3.6405,-3.6405,-3.6405,-3.6405,-3.6405,-3.6405,-3.6405,-3.6405,-3.6405,-3.6405,-3.6405,-3.6405,-3.6405,-3.6108,-3.5571,-3.8787,-3.965,-4.0388,-4.0485,-4.0489,-4.037,-3.9838,-3.9406,-3.8699,-3.7157,-3.5852,0.0,-3.4278,0.0,0.0,0.0,0.0,0.0,-4.2623,-4.3071,-4.3553,0.0,-4.4358,0.0,-4.4026,-4.405,-4.4208,0.0,-4.4342,-4.4736,-4.5693,-4.6112,-4.6636,-4.7279,-4.7309,-4.7309,-4.7309,-4.7309,-4.7251,-4.7121,-4.6771,-4.655,-4.6403,-4.606,-4.4864,-4.2987,0.0,-4.0899,-3.8996,-3.796,-3.74,-3.7149,-3.6895,-3.6619,-3.6405,-3.6405,-3.6405,-3.6405,-3.6405,-3.6405,-3.6405,-3.6405,-3.6405,-3.6405,-3.6405,-3.6452,-3.6534,-3.6534,-3.6675,-3.6862,-3.6734,-3.6922,-3.7015,-3.6628,-3.6628,-3.6628,-3.6452,-3.6405,-3.6405,-3.6405,-3.6405,-3.6405,-3.6405,-3.6405,-3.6405,-3.6405,-3.6405,-3.6405,-3.6405,-3.6405,-3.6405,-3.6405,-3.6405,-3.6405,-3.6405,-3.6405,-3.6405,-3.6405,-3.6405,-3.6405,-3.6405,-3.6405,-3.6405,-3.6405,-3.6405,-3.6405,-3.6405,-3.6405,-3.6405,-3.6405,-3.6405,-3.6061,-3.9825,-4.0689,-4.136,-4.0768,-4.0497,-4.0031,-3.8826,-3.852,-3.7823,-3.5608,0.0,-3.35,-3.3132,-3.3798,-3.4723,-3.5694,0.0,-4.0145,-4.1709,-4.2386,-4.3194,-4.438,-4.4358,-4.4158,-4.407,-4.4373,-4.4579,-4.4571,-4.4586,-4.5095,-4.6219,-4.6369,-4.6711,-4.7294,-4.7309,-4.7309,-4.7309,-4.7309,-4.7164,-4.6975,-4.6712,-4.6491,-4.6299,-4.6015,-4.5247,-4.4083,0.0,0.0,-4.0203,-3.8726,-3.7839,-3.74,-3.7249,-3.6945,-3.6565,-3.643,-3.6452,-3.6499,-3.6452,-3.6452,-3.6499,-3.6452,-3.6452,-3.6452,-3.6499,-3.6628,-3.6769,-3.6769,-3.6968,-3.7155,-3.7108,-3.7155,-3.7108,-3.6815,-3.6769,-3.6722,-3.6546,-3.6452,-3.6452,-3.6405,-3.6405,-3.6405,-3.6405,-3.6405,-3.6405,-3.6405,-3.6405,-3.6405,-3.6405,-3.6405,-3.6405,-3.6405,-3.6405,-3.6405,-3.6405,-3.6405,-3.6405,-3.6405,-3.6405,-3.6405,-3.6405,-3.6405,-3.6405,-3.6405,-3.6405,-3.6405,-3.6405,-3.6405,-3.6405,-3.6405,-3.6405,-3.6405,-4.1674,-4.174,-4.1459,-4.1376,-4.0502,-3.9372,-3.8162,-3.7436,0.0,0.0,-3.2324,-3.1784,-3.052,-3.1754,-3.3537,-3.5303,0.0,0.0,0.0,0.0,-4.2805,0.0,0.0,0.0,0.0,0.0,0.0,0.0,0.0,-4.6025,-4.6264,-4.6845,-4.7189,-4.7309,-4.7309,-4.7309,-4.7309,-4.7309,-4.7266,-4.7222,-4.6815,-4.6668,-4.6741,-4.6194,-4.4943,-4.3266,-4.2862,0.0,-3.9752,-3.9045,-3.8668,-3.8529,-3.755,-3.7281,-3.7286,-3.6628,-3.664,-3.6968,-3.6722,-3.6769,-3.6922,-3.6722,-3.6675,-3.6675,-3.6922,-3.7015,-3.7015,-3.7015,-3.7214,-3.7366,-3.7168,-3.7413,-3.7657,-3.7155,-3.7015,-3.7015,-3.6968,-3.6815,-3.6581,-3.6452,-3.6405,-3.6405,-3.6405,-3.6405,-3.6405,-3.6405,-3.6405,-3.6405,-3.6405,-3.6405,-3.6405,-3.6405,-3.6405,-3.6405,-3.6405,-3.6405,-3.6405,-3.6405,-3.6405,-3.6405,-3.6405,-3.6405,-3.6405,-3.6405,-3.6405,-3.6405,-3.6405,-3.6405,-3.6405,-3.6405,-3.6405,-3.6405,-4.2286,-4.252,-4.2363,-4.1673,-4.0758,-3.9464,-3.725,0.0,0.0,0.0,-3.1092,-3.0844,-2.9439,0.0,0.0,0.0,0.0,0.0,0.0,0.0,0.0,0.0,0.0,0.0,0.0,0.0,0.0,0.0,0.0,-4.683,-4.683,-4.713,-4.7309,-4.7309,-4.7309,-4.7309,-4.7309,-4.7309,-4.7207,-4.7062,-4.6844,-4.6756,-4.6712,-4.6417,-4.5158,-4.3313,-4.3184,0.0,-4.0083,-3.9867,-3.9575,-3.9258,-3.8712,-3.8201,-3.7763,-3.7388,-3.7189,-3.7062,-3.6956,-3.7015,-3.7108,-3.7108,-3.7015,-3.6922,-3.7062,-3.7214,-3.7307,-3.7307,-3.7505,-3.7657,-3.7551,-3.7703,-3.7808,-3.74,-3.7201,-3.7062,-3.6909,-3.6815,-3.6628,-3.6452,-3.6405,-3.6405,-3.6405,-3.6405,-3.6405,-3.6405,-3.6405,-3.6405,-3.6405,-3.6405,-3.6405,-3.6405,-3.6405,-3.6405,-3.6405,-3.6405,-3.6405,-3.6405,-3.6405,-3.6405,-3.6405,-3.6405,-3.6405,-3.6405,-3.6405,-3.6405,-3.6405,-3.6405,-3.6405,-3.6405,-3.6405,-3.6405,-4.2311,-4.2736,-4.2736,-4.1581,-4.0658,-3.9235,-3.6155,-3.5443,0.0,0.0,-3.0203,-3.0214,-2.8989,0.0,0.0,0.0,0.0,0.0,0.0,0.0,0.0,0.0,0.0,0.0,0.0,0.0,0.0,0.0,0.0,0.0,-4.7309,-4.7309,-4.7309,-4.7309,-4.7309,-4.7309,-4.7309,-4.7309,-4.7207,-4.6975,-4.6931,-4.6844,-4.6727,-4.6639,-4.5477,-4.3598,-4.3504,0.0,0.0,-4.0504,-4.0248,-3.9888,-3.9759,-3.9105,-3.8255,-3.8079,-3.7668,-3.7261,-3.7214,-3.7214,-3.7307,-3.7505,-3.74,-3.7214,-3.7261,-3.7413,-3.7611,-3.7611,-3.7749,-3.79,-3.79,-3.79,-3.7854,-3.7551,-3.7366,-3.7168,-3.6862,-3.6769,-3.6722,-3.6499,-3.6452,-3.6405,-3.6405,-3.6405,-3.6405,-3.6405,-3.6405,-3.6405,-3.6405,-3.6405,-3.6405,-3.6405,-3.6405,-3.6405,-3.6405,-3.6405,-3.6405,-3.6405,-3.6405,-3.6405,-3.6405,-3.6405,-3.6405,-3.6405,-3.6405,-3.6405,-3.6405,-3.6405,-3.6405,-3.6405,-3.6405,-3.6405,-4.1799,-4.1922,-4.1342,-4.0669,-3.9523,-3.7786,-3.4704,0.0,0.0,-2.9688,-2.9484,-2.9637,-2.8784,0.0,0.0,0.0,0.0,-3.5538,0.0,0.0,0.0,0.0,0.0,0.0,0.0,0.0,0.0,0.0,0.0,0.0,-4.7309,-4.7309,-4.7309,-4.7309,-4.7309,-4.7309,-4.7309,-4.7309,-4.7309,-4.7251,-4.7019,-4.7019,-4.7222,-4.6771,-4.5613,-4.3834,-4.3598,0.0,0.0,-4.0504,-4.0478,-4.0376,-3.9863,-3.9434,-3.901,-3.8267,-3.7916,-3.7808,-3.7551,-3.7611,-3.7854,-3.7854,-3.7703,-3.7505,-3.7749,-3.7854,-3.7854,-3.7854,-3.79,-3.79,-3.79,-3.79,-3.7854,-3.7551,-3.7657,-3.7703,-3.7155,-3.7062,-3.6968,-3.6722,-3.6546,-3.6405,-3.6405,-3.6405,-3.6405,-3.6405,-3.6405,-3.6405,-3.6405,-3.6405,-3.6405,-3.6405,-3.6405,-3.6405,-3.6405,-3.6405,-3.6405,-3.6405,-3.6405,-3.6405,-3.6405,-3.6405,-3.6405,-3.6405,-3.6405,-3.6405,-3.6405,-3.6405,-3.6405,-3.6405,-3.6405,-3.6405,-4.1854,-4.2109,-4.1765,-4.1115,-3.996,-3.8168,-3.5056,0.0,-3.2875,-2.958,-2.9374,-2.9534,-2.8745,0.0,0.0,0.0,0.0,0.0,0.0,0.0,0.0,0.0,0.0,0.0,0.0,0.0,0.0,0.0,0.0,0.0,-4.7279,-4.7309,-4.7309,-4.7309,-4.7309,-4.7309,-4.7309,-4.7309,-4.7309,-4.7309,-4.7207,-4.7207,-4.7309,-4.7135,-4.5957,-4.4144,-4.405,0.0,0.0,-4.0959,-4.0959,-4.0895,-4.0361,-3.9839,-3.939,-3.8661,-3.8184,-3.79,-3.7762,-3.7808,-3.79,-3.79,-3.7854,-3.7749,-3.7854,-3.79,-3.79,-3.79,-3.79,-3.79,-3.79,-3.79,-3.7854,-3.7762,-3.7808,-3.7808,-3.7413,-3.7201,-3.7015,-3.6769,-3.6534,-3.6405,-3.6405,-3.6405,-3.6405,-3.6405,-3.6405,-3.6405,-3.6405,-3.6405,-3.6405,-3.6405,-3.6405,-3.6405,-3.6405,-3.6405,-3.6405,-3.6405,-3.6405,-3.6405,-3.6405,-3.6405,-3.6405,-3.6405,-3.6405,-3.6405,-3.6405,-3.6405,-3.6405,-3.6405,-3.6405,-3.6405,-4.0993,-4.15,-4.1495,-4.0851,-3.9866,-3.8295,0.0,0.0,-3.264,-2.9705,-2.9289,-2.9252,-2.8594,0.0,0.0,0.0,0.0,-3.1665,0.0,0.0,0.0,0.0,0.0,0.0,0.0,0.0,0.0,0.0,0.0,0.0,0.0,-4.7309,-4.7309,-4.7309,-4.7309,-4.7309,-4.7309,-4.7309,-4.7309,-4.7309,-4.7309,-4.7309,-4.7309,-4.7309,-4.6181,-4.4312,0.0,0.0,0.0,-4.1128,-4.105,-4.0997,-4.0409,-3.9834,-3.9298,-3.8867,-3.837,-3.79,-3.79,-3.79,-3.79,-3.79,-3.79,-3.79,-3.79,-3.79,-3.79,-3.79,-3.79,-3.79,-3.79,-3.79,-3.79,-3.79,-3.79,-3.7854,-3.7657,-3.7413,-3.7155,-3.6862,-3.6628,-3.6452,-3.6405,-3.6405,-3.6405,-3.6405,-3.6405,-3.6405,-3.6405,-3.6405,-3.6405,-3.6405,-3.6405,-3.6405,-3.6405,-3.6405,-3.6405,-3.6405,-3.6405,-3.6405,-3.6405,-3.6405,-3.6405,-3.6405,-3.6405,-3.6405,-3.6405,-3.6405,-3.6405,-3.6405,-3.6405,-3.6405,-3.8802,-3.9662,-3.9986,-3.9355,-3.8764,-3.7626,0.0,0.0,-3.2047,-3.0023,-2.9059,-2.8541,-2.8259,-2.8323,0.0,0.0,0.0,0.0,0.0,0.0,0.0,0.0,0.0,0.0,0.0,0.0,0.0,0.0,0.0,0.0,0.0,-4.7309,-4.7309,-4.7309,-4.7309,-4.7309,-4.7309,-4.7309,-4.7309,-4.7309,-4.7309,-4.7309,-4.7309,-4.7309,-4.6181,0.0,0.0,0.0,0.0,-4.0671,-4.0422,-4.037,-3.9834,-3.9246,-3.8723,-3.871,-3.837,-3.79,-3.79,-3.79,-3.79,-3.79,-3.79,-3.79,-3.79,-3.79,-3.79,-3.79,-3.79,-3.79,-3.79,-3.79,-3.79,-3.79,-3.79,-3.79,-3.79,-3.7703,-3.7413,-3.7155,-3.6862,-3.6628,-3.6452,-3.6405,-3.6405,-3.6405,-3.6405,-3.6405,-3.6405,-3.6405,-3.6405,-3.6405,-3.6405,-3.6405,-3.6405,-3.6405,-3.6405,-3.6405,-3.6405,-3.6405,-3.6405,-3.6405,-3.6405,-3.6405,-3.6405,-3.6405,-3.6405,-3.6405,-3.6405,-3.6405,-3.6405,-3.6405,-3.6848,-3.7484,-3.7857,-3.7127,-3.648,-3.5616,-3.3969,0.0,-3.1352,-2.9781,-2.8997,-2.8549,-2.8372,-2.8372,0.0,0.0,0.0,0.0,0.0,0.0,0.0,0.0,0.0,0.0,0.0,0.0,0.0,0.0,0.0,0.0,0.0,-4.7055,-4.7309,-4.7309,-4.7309,-4.7085,-4.6636,-4.6636,-4.6396,-4.5933,-4.5933,-4.5933,-4.5933,-4.5933,0.0,0.0,0.0,0.0,0.0,-3.9939,-3.986,-3.9808,-3.922,-3.888,-3.8671,-3.8292,-3.8057,-3.79,-3.79,-3.79,-3.79,-3.79,-3.79,-3.79,-3.79,-3.79,-3.79,-3.79,-3.79,-3.79,-3.79,-3.79,-3.79,-3.79,-3.79,-3.79,-3.79,-3.7703,-3.7459,-3.74,-3.7015,-3.6675,-3.6628,-3.6499,-3.6405,-3.6405,-3.6405,-3.6405,-3.6405,-3.6405,-3.6405,-3.6405,-3.6405,-3.6405,-3.6405,-3.6405,-3.6405,-3.6405,-3.6405,-3.6405,-3.6405,-3.6405,-3.6405,-3.6405,-3.6405,-3.6405,-3.6405,-3.6405,-3.6405,-3.6405,-3.6405,-3.6405,0.0,-3.6095,-3.6534,-3.6017,-3.5455,0.0,0.0,0.0,-3.1024,-2.9951,-2.912,-2.8525,-2.8372,-2.8323,0.0,0.0,0.0,0.0,0.0,0.0,0.0,0.0,0.0,0.0,0.0,0.0,0.0,0.0,0.0,0.0,0.0,-4.6322,-4.6546,-4.6546,-4.68,-4.6621,-4.5948,-4.5933,-4.5723,-4.5289,-4.5289,-4.5289,-4.5289,-4.5289,0.0,0.0,0.0,0.0,0.0,-3.9493,-3.9272,-3.9207,-3.8632,-3.841,-3.8357,-3.8031,-3.79,-3.79,-3.79,-3.79,-3.79,-3.79,-3.79,-3.79,-3.79,-3.79,-3.79,-3.79,-3.79,-3.79,-3.79,-3.79,-3.79,-3.79,-3.79,-3.79,-3.79,-3.7762,-3.7611,-3.7505,-3.7155,-3.6815,-3.6722,-3.6534,-3.6405,-3.6405,-3.6405,-3.6405,-3.6405,-3.6405,-3.6405,-3.6405,-3.6405,-3.6405,-3.6405,-3.6405,-3.6405,-3.6405,-3.6405,-3.6405,-3.6405,-3.6405,-3.6405,-3.6405,-3.6405,-3.6405,-3.6405,-3.6405,-3.6405,-3.6405,-3.6405,-3.6405,0.0,-3.5219,0.0,0.0,0.0,0.0,0.0,-3.2379,0.0,-3.0403,-2.9371,-2.8501,-2.8235,-2.8186,0.0,0.0,0.0,0.0,0.0,0.0,0.0,0.0,0.0,0.0,0.0,0.0,0.0,0.0,0.0,0.0,0.0,-4.5274,-4.5274,-4.5229,-4.5843,-4.5873,-4.5229,-4.5229,-4.52,-4.5155,-4.5155,-4.5155,-4.5155,-4.5155,0.0,0.0,0.0,0.0,0.0,-3.9276,-3.8658,-3.8606,-3.8096,-3.79,-3.79,-3.79,-3.79,-3.79,-3.79,-3.79,-3.79,-3.79,-3.79,-3.79,-3.79,-3.79,-3.79,-3.79,-3.79,-3.79,-3.79,-3.79,-3.79,-3.79,-3.79,-3.79,-3.79,-3.79,-3.7808,-3.7564,-3.7307,-3.7062,-3.6756,-3.6546,-3.6405,-3.6405,-3.6405,-3.6405,-3.6405,-3.6405,-3.6405,-3.6405,-3.6405,-3.6405,-3.6405,-3.6405,-3.6405,-3.6405,-3.6405,-3.6405,-3.6405,-3.6405,-3.6405,-3.6405,-3.6405,-3.6405,-3.6405,-3.6405,-3.6405,-3.6405,-3.6405,-3.6405,-3.2452,0.0,-3.3461,-3.2894,-3.2674,-3.2521,0.0,0.0,-3.033,-3.0187,-2.9257,-2.8372,-2.8103,-2.8054,0.0,0.0,0.0,0.0,0.0,0.0,0.0,0.0,0.0,0.0,0.0,0.0,0.0,0.0,0.0,0.0,0.0,-4.502,-4.5065,-4.4556,-4.4706,-4.4706,-4.4541,-4.4541,-4.4287,-4.3753,-4.3753,-4.3753,-4.3753,-4.3753,0.0,0.0,0.0,0.0,-3.9528,-3.8523,-3.8096,-3.8083,-3.7952,-3.79,-3.79,-3.79,-3.79,-3.79,-3.79,-3.79,-3.79,-3.79,-3.79,-3.79,-3.79,-3.79,-3.79,-3.79,-3.79,-3.79,-3.79,-3.79,-3.79,-3.79,-3.79,-3.79,-3.79,-3.79,-3.79,-3.7808,-3.7598,-3.7307,-3.7062,-3.6815,-3.6581,-3.6405,-3.6405,-3.6405,-3.6405,-3.6405,-3.6405,-3.6405,-3.6405,-3.6405,-3.6405,-3.6405,-3.6405,-3.6405,-3.6405,-3.6405,-3.6405,-3.6405,-3.6405,-3.6405,-3.6405,-3.6405,-3.6405,-3.6405,-3.6405,-3.6405,-3.6405,-3.6405,-3.1781,-3.2093,-3.23,-3.1903,-3.18,-3.18,-3.18,0.0,0.0,0.0,0.0,0.0,0.0,0.0,0.0,0.0,0.0,0.0,0.0,0.0,0.0,0.0,0.0,0.0,0.0,0.0,0.0,0.0,0.0,0.0,0.0,-4.4212,-4.4227,-4.3828,-4.3828,-4.3828,-4.3828,-4.3828,-4.3648,-4.329,-4.329,-4.329,-4.329,-4.329,-4.3036,0.0,0.0,0.0,-3.9768,-3.885,-3.8272,-3.79,-3.79,-3.79,-3.79,-3.79,-3.79,-3.79,-3.79,-3.79,-3.79,-3.79,-3.79,-3.79,-3.79,-3.79,-3.79,-3.79,-3.79,-3.79,-3.79,-3.79,-3.79,-3.79,-3.79,-3.79,-3.79,-3.79,-3.79,-3.79,-3.7703,-3.7459,-3.7307,-3.6968,-3.6675,-3.6534,-3.6452,-3.6405,-3.6405,-3.6405,-3.6405,-3.6405,-3.6405,-3.6405,-3.6405,-3.6405,-3.6405,-3.6405,-3.6405,-3.6405,-3.6405,-3.6405,-3.6405,-3.6405,-3.6405,-3.6405,-3.6405,-3.6405,-3.6405,-3.6405,-3.6405,-3.6405,-3.2126,-3.2212,-3.2247,-3.2024,-3.1972,-3.1936,-3.1881,0.0,0.0,0.0,0.0,0.0,0.0,-2.9282,0.0,0.0,0.0,0.0,0.0,0.0,0.0,0.0,0.0,0.0,0.0,0.0,0.0,0.0,0.0,0.0,0.0,-4.329,-4.329,-4.329,-4.329,-4.329,-4.329,-4.329,-4.329,-4.329,-4.329,-4.329,-4.329,-4.329,-4.329,0.0,0.0,0.0,-4.0504,-3.9593,-3.8671,-3.79,-3.79,-3.79,-3.79,-3.79,-3.79,-3.79,-3.79,-3.79,-3.79,-3.79,-3.79,-3.79,-3.79,-3.79,-3.79,-3.79,-3.79,-3.79,-3.79,-3.79,-3.79,-3.79,-3.79,-3.79,-3.79,-3.79,-3.79,-3.79,-3.7703,-3.7551,-3.7505,-3.7108,-3.6769,-3.6722,-3.6534,-3.6405,-3.6405,-3.6405,-3.6405,-3.6405,-3.6405,-3.6405,-3.6405,-3.6405,-3.6405,-3.6405,-3.6405,-3.6405,-3.6405,-3.6405,-3.6405,-3.6405,-3.6405,-3.6405,-3.6405,-3.6405,-3.6405,-3.6405,-3.6405,-3.6405,-3.3712,-3.4117,-3.4229,-3.304,-3.2731,-3.2636,-3.2304,0.0,0.0,0.0,0.0,0.0,0.0,0.0,0.0,0.0,0.0,0.0,0.0,0.0,0.0,0.0,0.0,0.0,0.0,0.0,0.0,0.0,0.0,0.0,0.0,-4.329,-4.329,-4.329,-4.329,-4.329,-4.329,-4.329,-4.329,-4.329,-4.329,-4.329,-4.329,-4.329,-4.329,0.0,0.0,-4.1463,-4.0504,-3.9593,-3.8671,-3.79,-3.79,-3.79,-3.79,-3.79,-3.79,-3.79,-3.79,-3.79,-3.79,-3.79,-3.79,-3.79,-3.79,-3.79,-3.79,-3.79,-3.79,-3.79,-3.79,-3.79,-3.79,-3.79,-3.79,-3.79,-3.79,-3.79,-3.79,-3.79,-3.7854,-3.7762,-3.7551,-3.7261,-3.6956,-3.6709,-3.6534,-3.6405,-3.6405,-3.6405,-3.6405,-3.6405,-3.6405,-3.6405,-3.6405,-3.6405,-3.6405,-3.6405,-3.6405,-3.6405,-3.6405,-3.6405,-3.6405,-3.6405,-3.6405,-3.6405,-3.6405,-3.6405,-3.6405,-3.6405,-3.6405,-3.6405,-3.3416,-3.3968,-3.4424,-3.4094,-3.4277,-3.4303,-3.3473,-3.2881,0.0,0.0,0.0,0.0,0.0,0.0,0.0,0.0,0.0,0.0,0.0,0.0,0.0,0.0,0.0,0.0,0.0,0.0,0.0,0.0,0.0,0.0,0.0,0.0,-4.329,-4.329,-4.329,-4.329,-4.329,-4.329,-4.329,-4.329,-4.329,-4.329,-4.329,-4.329,-4.329,-4.329,0.0,-4.2196,-4.1338,-4.0901,-4.0187,-3.9295,-3.8819,-3.8594,-3.8562,-3.807,-3.79,-3.79,-3.79,-3.79,-3.79,-3.79,-3.79,-3.79,-3.79,-3.79,-3.79,-3.79,-3.79,-3.79,-3.79,-3.79,-3.79,-3.79,-3.79,-3.79,-3.79,-3.79,-3.79,-3.79,-3.79,-3.7854,-3.7749,-3.7353,-3.7062,-3.6909,-3.664,-3.6405,-3.6405,-3.6405,-3.6405,-3.6405,-3.6405,-3.6405,-3.6405,-3.6405,-3.6405,-3.6405,-3.6405,-3.6405,-3.6405,-3.6405,-3.6405,-3.6405,-3.6405,-3.6405,-3.6405,-3.6405,-3.6405,-3.6405,-3.6405,-3.6405,-3.338,-3.3987,-3.4596,-3.4746,0.0,-3.5292,-3.4586,-3.4048,0.0,0.0,0.0,0.0,0.0,0.0,0.0,0.0,0.0,0.0,0.0,0.0,0.0,0.0,0.0,0.0,0.0,0.0,0.0,0.0,0.0,0.0,0.0,0.0,-4.329,-4.329,-4.329,-4.329,-4.329,-4.329,-4.329,-4.329,-4.329,-4.329,-4.329,-4.329,-4.329,-4.329,-4.329,-4.2795,-4.199,-4.199,-4.1463,-4.0504,-3.9812,-3.9373,-3.9077,-3.8226,-3.79,-3.79,-3.79,-3.79,-3.79,-3.79,-3.79,-3.79,-3.79,-3.79,-3.79,-3.79,-3.79,-3.79,-3.79,-3.79,-3.79,-3.79,-3.79,-3.79,-3.79,-3.79,-3.79,-3.79,-3.79,-3.79,-3.7808,-3.74,-3.7062,-3.7015,-3.664,-3.6405,-3.6405,-3.6405,-3.6405,-3.6405,-3.6405,-3.6405,-3.6405,-3.6405,-3.6405,-3.6405,-3.6405,-3.6405,-3.6405,-3.6405,-3.6405,-3.6405,-3.6405,-3.6405,-3.6405,-3.6405,-3.6405,-3.6405,-3.6405,-3.6405,-3.4984,-3.5494,-3.5655,-3.4459,-3.421,0.0,-3.5209,-3.419,0.0,-3.2545,0.0,0.0,0.0,0.0,0.0,0.0,0.0,0.0,0.0,0.0,0.0,0.0,0.0,0.0,0.0,0.0,0.0,0.0,0.0,0.0,0.0,0.0,0.0,-4.329,-4.329,-4.329,-4.329,-4.329,-4.329,-4.329,-4.329,-4.329,-4.329,-4.329,-4.329,-4.329,-4.329,-4.2795,-4.199,-4.199,-4.1463,-4.0603,-4.0504,-3.9986,-3.9077,-3.8226,-3.79,-3.79,-3.79,-3.79,-3.79,-3.79,-3.79,-3.79,-3.79,-3.79,-3.79,-3.79,-3.79,-3.79,-3.79,-3.79,-3.79,-3.79,-3.79,-3.79,-3.79,-3.79,-3.79,-3.79,-3.79,-3.7808,-3.7564,-3.7307,-3.7015,-3.6769,-3.6534,-3.6405,-3.6405,-3.6405,-3.6405,-3.6405,-3.6405,-3.6405,-3.6405,-3.6405,-3.6405,-3.6405,-3.6405,-3.6405,-3.6405,-3.6405,-3.6405,-3.6405,-3.6405,-3.6405,-3.6405,-3.6405,-3.6405,-3.6405,-3.6405,-3.6405,-3.3779,-3.4514,-3.5125,-3.421,-3.4664,0.0,0.0,-3.5104,-3.476,-3.4356,-3.4552,0.0,0.0,0.0,0.0,0.0,0.0,0.0,0.0,0.0,0.0,0.0,0.0,0.0,0.0,0.0,0.0,0.0,0.0,0.0,0.0,0.0,0.0,-4.329,-4.329,-4.329,-4.329,-4.329,-4.329,-4.329,-4.329,-4.329,-4.329,-4.329,-4.329,-4.329,-4.329,-4.3115,-4.2835,-4.301,-4.2739,-4.2181,-4.1029,-4.0029,-3.9077,-3.8226,-3.79,-3.79,-3.79,-3.79,-3.79,-3.79,-3.79,-3.79,-3.79,-3.79,-3.79,-3.79,-3.79,-3.79,-3.79,-3.79,-3.79,-3.79,-3.79,-3.79,-3.79,-3.79,-3.79,-3.79,-3.79,-3.7854,-3.7762,-3.74,-3.7062,-3.6956,-3.664,-3.6405,-3.6405,-3.6405,-3.6405,-3.6405,-3.6405,-3.6405,-3.6405,-3.6405,-3.6405,-3.6405,-3.6405,-3.6405,-3.6405,-3.6405,-3.6405,-3.6405,-3.6405,-3.6405,-3.6405,-3.6405,-3.6405,-3.6405,-3.6405,-3.6405,-3.3542,-3.435,-3.5168,-3.4654,0.0,0.0,-3.5669,-3.5696,-3.5819,-3.5959,-3.6214,0.0,0.0,0.0,0.0,0.0,0.0,0.0,0.0,0.0,0.0,0.0,0.0,0.0,0.0,0.0,0.0,0.0,0.0,0.0,0.0,0.0,0.0,0.0,-4.329,-4.329,-4.329,-4.329,-4.329,-4.329,-4.329,-4.329,-4.329,-4.329,-4.3344,-4.3423,-4.3423,-4.3463,-4.3542,-4.3714,-4.3636,-4.325,-4.174,-4.0717,-4.0,-3.9073,-3.8742,-3.8742,-3.8742,-3.8742,-3.8742,-3.8742,-3.8742,-3.8711,-3.8395,-3.8317,-3.8272,-3.7992,-3.79,-3.79,-3.79,-3.79,-3.79,-3.79,-3.79,-3.79,-3.79,-3.79,-3.79,-3.79,-3.79,-3.7854,-3.7808,-3.7459,-3.7168,-3.7015,-3.6687,-3.6452,-3.6405,-3.6405,-3.6405,-3.6405,-3.6405,-3.6405,-3.6405,-3.6405,-3.6405,-3.6405,-3.6405,-3.6405,-3.6405,-3.6405,-3.6405,-3.6405,-3.6405,-3.6405,-3.6405,-3.6405,-3.6405,-3.6405,-3.6405,-3.6405,-3.4827,-3.5459,-3.6067,0.0,0.0,0.0,-3.6182,-3.5747,-3.5696,-3.6955,0.0,-3.7696,-3.7711,0.0,0.0,0.0,0.0,0.0,0.0,0.0,0.0,0.0,0.0,0.0,0.0,0.0,0.0,0.0,0.0,0.0,0.0,0.0,0.0,0.0,-4.329,-4.329,-4.329,-4.329,-4.329,-4.329,-4.329,-4.329,-4.329,-4.329,-4.3463,-4.369,-4.369,-4.3808,-4.3988,-4.3988,-4.3871,-4.3596,-4.2684,-4.2181,-4.1908,-4.0944,-4.0603,-4.0603,-4.0603,-4.0603,-4.0603,-4.0603,-4.0603,-4.0418,-3.9461,-3.921,-3.9002,-3.8148,-3.79,-3.79,-3.79,-3.79,-3.79,-3.79,-3.79,-3.79,-3.79,-3.79,-3.79,-3.79,-3.79,-3.7808,-3.7551,-3.7505,-3.7307,-3.6769,-3.6709,-3.6628,-3.6452,-3.6405,-3.6405,-3.6405,-3.6405,-3.6405,-3.6405,-3.6405,-3.6405,-3.6405,-3.6405,-3.6405,-3.6405,-3.6405,-3.6405,-3.6405,-3.6405,-3.6405,-3.6405,-3.6405,-3.6405,-3.6405,-3.6405,-3.6405,-3.2602,-3.4095,0.0,-3.4698,0.0,0.0,0.0,-3.679,0.0,0.0,0.0,-3.8299,-3.8383,0.0,0.0,0.0,0.0,0.0,0.0,0.0,0.0,0.0,0.0,0.0,0.0,0.0,0.0,0.0,0.0,0.0,0.0,0.0,0.0,0.0,-4.3463,-4.3596,-4.3596,-4.3699,-4.3778,-4.3778,-4.3778,-4.3714,-4.3596,-4.3596,-4.3714,-4.391,-4.391,-4.3949,-4.3988,-4.3988,-4.4065,-4.4011,-4.279,-4.2249,-4.2085,-4.1014,-4.0603,-4.0603,-4.0603,-4.0603,-4.0603,-4.0603,-4.0603,-4.0418,-3.9461,-3.921,-3.9002,-3.8148,-3.79,-3.79,-3.79,-3.79,-3.79,-3.79,-3.79,-3.79,-3.79,-3.79,-3.79,-3.79,-3.79,-3.7854,-3.7808,-3.7611,-3.7366,-3.7015,-3.6815,-3.6628,-3.6452,-3.6405,-3.6405,-3.6405,-3.6405,-3.6405,-3.6405,-3.6405,-3.6405,-3.6405,-3.6405,-3.6405,-3.6405,-3.6405,-3.6405,-3.6405,-3.6405,-3.6405,-3.6405,-3.6405,-3.6405,-3.6405,-3.6405,-3.6405,-3.3913,0.0,0.0,0.0,0.0,0.0,-3.8036,0.0,0.0,0.0,0.0,0.0,0.0,0.0,0.0,0.0,0.0,0.0,0.0,0.0,0.0,0.0,0.0,0.0,0.0,0.0,0.0,0.0,0.0,0.0,0.0,0.0,0.0,0.0,-4.3714,-4.3832,-4.3832,-4.3949,-4.3988,-4.3988,-4.3988,-4.3988,-4.3949,-4.3871,-4.3949,-4.4127,-4.4205,-4.4243,-4.4243,-4.4243,-4.4243,-4.4205,-4.3339,-4.2926,-4.2765,-4.1961,-4.1672,-4.1672,-4.1672,-4.1672,-4.1672,-4.1672,-4.1672,-4.1491,-4.0589,-4.0029,-3.9651,-3.9118,-3.8453,-3.7992,-3.8317,-3.8148,-3.79,-3.79,-3.79,-3.79,-3.79,-3.79,-3.79,-3.79,-3.79,-3.79,-3.79,-3.7762,-3.7505,-3.7168,-3.6815,-3.6534,-3.6405,-3.6405,-3.6405,-3.6405,-3.6405,-3.6405,-3.6405,-3.6405,-3.6405,-3.6405,-3.6405,-3.6405,-3.6405,-3.6405,-3.6405,-3.6405,-3.6405,-3.6405,-3.6405,-3.6405,-3.6405,-3.6405,-3.6405,-3.6405,-3.6988,0.0,0.0,0.0,0.0,0.0,0.0,0.0,0.0,0.0,0.0,0.0,0.0,0.0,0.0,0.0,0.0,0.0,0.0,0.0,0.0,0.0,0.0,0.0,0.0,0.0,0.0,0.0,0.0,0.0,0.0,0.0,0.0,-4.3988,-4.4026,-4.4026,-4.4026,-4.4065,-4.4065,0.0,-4.4065,-4.4127,-4.432,-4.4127,-4.4143,-4.4358,-4.4511,-4.461,-4.461,-4.461,-4.4496,-4.432,-4.4104,-4.3871,-4.3675,-4.3423,-4.329,-4.329,-4.329,-4.329,-4.329,-4.329,-4.329,-4.313,-4.2237,-4.138,-4.0731,-4.0646,-3.9428,-3.8317,-3.9002,-3.8594,-3.7992,-3.79,-3.79,-3.79,-3.79,-3.79,-3.79,-3.79,-3.79,-3.79,-3.79,-3.7854,-3.7703,-3.7155,-3.6687,-3.6405,-3.6405,-3.6405,-3.6405,-3.6405,-3.6405,-3.6405,-3.6405,-3.6405,-3.6405,-3.6405,-3.6405,-3.6405,-3.6405,-3.6405,-3.6405,-3.6405,-3.6405,-3.6405,-3.6405,-3.6405,-3.6405,-3.6405,-3.6405,-3.6405,0.0,-3.6209,0.0,0.0,0.0,0.0,0.0,0.0,0.0,0.0,0.0,0.0,0.0,0.0,0.0,0.0,0.0,0.0,0.0,0.0,0.0,0.0,0.0,0.0,0.0,0.0,0.0,0.0,0.0,0.0,0.0,0.0,0.0,-4.3988,-4.4127,-4.4243,-4.4243,-4.4396,-4.4473,0.0,-4.4473,-4.4496,-4.4549,-4.432,-4.4358,-4.4549,-4.4587,-4.461,-4.461,-4.461,-4.4572,-4.4496,-4.4127,-4.3988,-4.3871,-4.3463,-4.329,-4.329,-4.329,-4.329,-4.329,-4.329,-4.329,-4.313,-4.2237,-4.1867,-4.1561,-4.0817,-4.0303,-3.9869,-3.9329,-3.9033,-3.876,-3.807,-3.79,-3.79,-3.79,-3.79,-3.79,-3.79,-3.79,-3.79,-3.79,-3.7703,-3.74,-3.6862,-3.6593,-3.6405,-3.6405,-3.6405,-3.6405,-3.6405,-3.6405,-3.6405,-3.6405,-3.6405,-3.6405,-3.6405,-3.6405,-3.6405,-3.6405,-3.6405,-3.6405,-3.6405,-3.6405,-3.6405,-3.6405,-3.6405,-3.6405,-3.6405,-3.6405,-3.6405,0.0,0.0,0.0,0.0,0.0,0.0,0.0,0.0,0.0,0.0,0.0,0.0,0.0,0.0,0.0,0.0,0.0,0.0,0.0,0.0,0.0,0.0,0.0,0.0,0.0,0.0,0.0,0.0,0.0,0.0,0.0,-4.4113,-4.4281,-4.4281,-4.4396,-4.4435,-4.4435,-4.4549,-4.461,-4.461,-4.461,-4.461,-4.461,-4.4496,-4.4496,-4.461,-4.461,-4.461,-4.461,-4.461,-4.461,-4.4572,-4.4166,-4.3988,-4.3934,-4.3448,-4.329,-4.329,-4.329,-4.329,-4.329,-4.329,-4.329,-4.321,-4.2739,-4.2319,-4.199,-4.192,-4.1281,-4.0603,-4.0546,-3.9855,-3.9077,-3.8639,-3.8181,-3.79,-3.79,-3.79,-3.79,-3.79,-3.79,-3.79,-3.79,-3.7564,-3.7168,-3.6756,-3.6534,-3.6405,-3.6405,-3.6405,-3.6405,-3.6405,-3.6405,-3.6405,-3.6405,-3.6405,-3.6405,-3.6405,-3.6405,-3.6405,-3.6405,-3.6405,-3.6405,-3.6405,-3.6405,-3.6405,-3.6405,-3.6405,-3.6405,-3.6405,-3.6405,-3.6405,0.0,0.0,0.0,0.0,0.0,0.0,0.0,0.0,0.0,0.0,0.0,0.0,0.0,0.0,0.0,0.0,0.0,0.0,0.0,0.0,0.0,0.0,0.0,0.0,0.0,0.0,0.0,0.0,0.0,0.0,-4.3593,-4.4132,-4.4486,-4.461,-4.461,-4.461,-4.461,-4.461,-4.461,-4.461,-4.461,-4.461,-4.461,-4.461,-4.461,-4.461,-4.461,-4.461,-4.461,-4.461,-4.4587,-4.4511,-4.4127,-4.3988,-4.391,-4.3463,-4.329,-4.329,-4.329,-4.329,-4.329,-4.329,-4.329,-4.329,-4.329,-4.2795,-4.2374,-4.309,-4.2222,-4.1197,-4.1852,-4.0731,-3.9417,-3.9241,-3.8517,-3.79,-3.79,-3.79,-3.79,-3.79,-3.79,-3.79,-3.7854,-3.7459,-3.7062,-3.6815,-3.6581,-3.6452,-3.6452,-3.6405,-3.6405,-3.6405,-3.6405,-3.6405,-3.6405,-3.6405,-3.6405,-3.6405,-3.6405,-3.6405,-3.6405,-3.6405,-3.6405,-3.6405,-3.6405,-3.6405,-3.6405,-3.6405,-3.6405,-3.6405,-3.6405,-3.6405,0.0,0.0,0.0,0.0,0.0,0.0,0.0,0.0,0.0,0.0,0.0,0.0,0.0,0.0,0.0,0.0,0.0,0.0,0.0,0.0,0.0,0.0,0.0,0.0,0.0,0.0,0.0,0.0,0.0,0.0,-4.3578,-4.3685,-4.4009,-4.4594,-4.461,-4.461,-4.461,-4.461,-4.461,-4.461,-4.461,-4.461,-4.461,-4.461,-4.461,-4.461,-4.461,-4.461,-4.461,-4.461,-4.4511,-4.432,-4.4104,-4.391,-4.3714,-4.3423,-4.329,-4.329,-4.329,-4.329,-4.329,-4.329,-4.329,-4.329,-4.329,-4.321,-4.317,-4.325,-4.313,-4.278,-4.2155,-4.1212,-4.0202,-3.9373,-3.8517,-3.79,-3.79,-3.79,-3.79,-3.79,-3.79,-3.7808,-3.7598,-3.7505,-3.7366,-3.7108,-3.6815,-3.6675,-3.6675,-3.6499,-3.6405,-3.6405,-3.6405,-3.6405,-3.6405,-3.6405,-3.6405,-3.6405,-3.6405,-3.6405,-3.6405,-3.6405,-3.6405,-3.6405,-3.6405,-3.6405,-3.6405,-3.6405,-3.6405,-3.6405,-3.6405,-3.6405,0.0,0.0,0.0,0.0,0.0,0.0,0.0,0.0,0.0,0.0,0.0,0.0,0.0,0.0,0.0,0.0,0.0,0.0,0.0,0.0,0.0,0.0,0.0,0.0,0.0,0.0,0.0,0.0,0.0,-4.2171,-4.2448,-4.2833,-4.334,-4.4024,-4.4055,-4.424,-4.461,-4.461,-4.461,-4.461,-4.461,-4.461,-4.461,-4.461,-4.461,-4.461,-4.461,-4.461,-4.4572,-4.4473,-4.4396,-4.4281,-4.3949,-4.3769,-4.369,-4.3384,-4.329,-4.329,-4.329,-4.329,-4.329,-4.329,-4.329,-4.329,-4.329,-4.329,-4.329,-4.329,-4.329,-4.321,-4.2835,-4.1672,-4.0504,-4.0073,-3.8908,-3.79,-3.79,-3.79,-3.79,-3.79,-3.79,-3.7808,-3.7564,-3.7505,-3.7413,-3.7155,-3.6862,-3.6709,-3.6709,-3.6546,-3.6405,-3.6405,-3.6405,-3.6405,-3.6405,-3.6405,-3.6405,-3.6405,-3.6405,-3.6405,-3.6405,-3.6405,-3.6405,-3.6405,-3.6405,-3.6405,-3.6405,-3.6405,-3.6405,-3.6405,-3.6405,-3.6405,0.0,0.0,0.0,0.0,0.0,0.0,0.0,0.0,0.0,0.0,0.0,0.0,0.0,0.0,0.0,0.0,0.0,0.0,0.0,0.0,0.0,0.0,0.0,0.0,0.0,0.0,0.0,0.0,0.0,-4.1401,-4.1586,-4.2078,-4.2648,-4.331,-4.3362,-4.3685,-4.4348,-4.4533,-4.461,-4.461,-4.461,-4.461,-4.461,-4.461,-4.461,-4.461,-4.461,-4.461,-4.4572,-4.4396,-4.4281,-4.4166,-4.3847,-4.3651,-4.3557,-4.3384,-4.329,-4.329,-4.329,-4.329,-4.329,-4.329,-4.329,-4.329,-4.329,-4.329,-4.329,-4.329,-4.329,-4.329,-4.329,-4.214,-4.0901,-4.0646,-3.937,-3.8194,-3.7946,-3.79,-3.79,-3.79,-3.79,-3.7854,-3.7657,-3.7598,-3.7505,-3.7261,-3.6956,-3.6769,-3.6709,-3.6546,-3.6405,-3.6405,-3.6405,-3.6405,-3.6405,-3.6405,-3.6405,-3.6405,-3.6405,-3.6405,-3.6405,-3.6405,-3.6405,-3.6405,-3.6405,-3.6405,-3.6405,-3.6405,-3.6405,-3.6405,-3.6405,-3.6405,0.0,0.0,0.0,0.0,0.0,0.0,0.0,0.0,0.0,0.0,0.0,0.0,0.0,0.0,0.0,0.0,0.0,0.0,0.0,0.0,0.0,0.0,0.0,0.0,0.0,0.0,0.0,0.0,0.0,-4.0843,-4.1555,-4.1632,-4.1971,-4.2633,-4.2663,-4.2971,-4.3655,-4.4302,-4.461,-4.461,-4.461,-4.461,-4.461,-4.461,-4.461,-4.461,-4.461,-4.461,-4.4572,-4.4396,-4.4166,-4.3988,-4.3754,-4.3557,-4.3329,-4.329,-4.329,-4.329,-4.329,-4.329,-4.329,-4.329,-4.329,-4.329,-4.329,-4.329,-4.329,-4.329,-4.329,-4.329,-4.329,-4.2618,-4.1686,-4.0817,-3.9855,-3.8926,-3.807,-3.79,-3.79,-3.79,-3.79,-3.79,-3.79,-3.7854,-3.7808,-3.7505,-3.7261,-3.7015,-3.6722,-3.6546,-3.6405,-3.6405,-3.6405,-3.6405,-3.6405,-3.6405,-3.6405,-3.6405,-3.6405,-3.6405,-3.6405,-3.6405,-3.6405,-3.6405,-3.6405,-3.6405,-3.6405,-3.6405,-3.6405,-3.6405,-3.6405,-3.6405,0.0,0.0,0.0,0.0,0.0,0.0,0.0,0.0,0.0,0.0,0.0,0.0,0.0,0.0,0.0,0.0,0.0,0.0,0.0,0.0,0.0,0.0,0.0,0.0,0.0,0.0,0.0,0.0,0.0,0.0,-4.0858,-4.0874,-4.1232,-4.194,-4.1971,-4.2479,-4.3593,-4.3855,-4.4178,-4.461,-4.461,-4.461,-4.461,-4.461,-4.461,-4.461,-4.461,-4.461,-4.4572,-4.4396,-4.4166,-4.3988,-4.3769,-4.3557,-4.329,-4.329,-4.329,-4.329,-4.329,-4.329,-4.329,-4.329,-4.329,-4.329,-4.329,-4.329,-4.329,-4.329,-4.329,-4.329,-4.329,-4.2659,-4.1603,-4.0073,-3.9015,-3.8272,-3.7992,-3.79,-3.79,-3.79,-3.79,-3.79,-3.79,-3.79,-3.7808,-3.7551,-3.7261,-3.7015,-3.6709,-3.6546,-3.6405,-3.6405,-3.6405,-3.6405,-3.6405,-3.6405,-3.6405,-3.6405,-3.6405,-3.6405,-3.6405,-3.6405,-3.6405,-3.6405,-3.6405,-3.6405,-3.6405,-3.6405,-3.6405,-3.6405,-3.6405,-3.6405,-3.3359,0.0,0.0,0.0,0.0,0.0,0.0,0.0,0.0,0.0,0.0,0.0,0.0,0.0,0.0,0.0,0.0,0.0,0.0,0.0,0.0,0.0,0.0,0.0,0.0,0.0,0.0,0.0,0.0,0.0,-4.0489,-4.0489,-4.0705,-4.1232,-4.1478,-4.2017,-4.2931,-4.314,-4.3608,-4.4271,-4.4271,-4.4394,-4.461,-4.461,-4.461,-4.461,-4.461,-4.461,-4.4572,-4.4396,-4.4166,-4.3988,-4.3769,-4.3557,-4.329,-4.329,-4.329,-4.329,-4.329,-4.329,-4.329,-4.329,-4.329,-4.329,-4.329,-4.329,-4.329,-4.329,-4.329,-4.329,-4.329,-4.2659,-4.1686,-4.0418,-3.9237,-3.8362,-3.8362,-3.8103,-3.79,-3.79,-3.79,-3.79,-3.79,-3.79,-3.7808,-3.7551,-3.7353,-3.7108,-3.6769,-3.6581,-3.6452,-3.6405,-3.6405,-3.6405,-3.6405,-3.6405,-3.6405,-3.6405,-3.6405,-3.6405,-3.6405,-3.6405,-3.6405,-3.6405,-3.6405,-3.6405,-3.6405,-3.6405,-3.6405,-3.6405,-3.6405,-3.6405,0.0,0.0,0.0,0.0,0.0,0.0,0.0,0.0,0.0,0.0,0.0,0.0,0.0,0.0,0.0,0.0,0.0,0.0,0.0,0.0,0.0,0.0,0.0,0.0,0.0,0.0,0.0,0.0,0.0,-4.0489,-4.0489,-4.0489,-4.0489,-4.0489,-4.1201,-4.1571,-4.1601,-4.2248,-4.291,-4.3578,-4.3578,-4.3932,-4.4594,-4.4594,-4.4594,-4.461,-4.461,-4.461,-4.4572,-4.4396,-4.4166,-4.3988,-4.3808,-4.3557,-4.329,-4.329,-4.329,-4.329,-4.329,-4.329,-4.329,-4.329,-4.329,-4.329,-4.329,-4.329,-4.329,-4.329,-4.329,-4.329,-4.329,-4.2659,-4.199,-4.199,-4.0603,-3.9241,-3.9241,-3.8562,-3.7946,-3.79,-3.79,-3.79,-3.79,-3.79,-3.7808,-3.7551,-3.7505,-3.7307,-3.6769,-3.6709,-3.6628,-3.6405,-3.6405,-3.6405,-3.6405,-3.6405,-3.6405,-3.6405,-3.6405,-3.6405,-3.6405,-3.6405,-3.6405,-3.6405,-3.6405,-3.6405,-3.6405,-3.6405,-3.6405,-3.6405,-3.6405,-3.6405,-3.3613,0.0,0.0,0.0,0.0,0.0,0.0,0.0,0.0,0.0,0.0,0.0,0.0,0.0,0.0,0.0,0.0,0.0,0.0,0.0,0.0,0.0,0.0,0.0,0.0,0.0,0.0,0.0,-4.0489,-4.0489,-4.0489,-4.0489,-4.0489,-4.0489,-4.0689,-4.1078,-4.1586,-4.1786,-4.2217,-4.2879,-4.2879,-4.3217,-4.3886,-4.3886,-4.4148,-4.461,-4.461,-4.461,-4.4587,-4.4549,-4.432,-4.3988,-4.3949,-4.366,-4.329,-4.329,-4.329,-4.329,-4.329,-4.329,-4.329,-4.329,-4.329,-4.329,-4.329,-4.329,-4.329,-4.329,-4.329,-4.329,-4.329,-4.2659,-4.199,-4.199,-4.1071,-4.0202,-4.0202,-4.0,-3.9472,-3.8161,-3.79,-3.79,-3.79,-3.79,-3.7808,-3.7551,-3.7505,-3.7307,-3.6769,-3.6709,-3.6628,-3.6405,-3.6405,-3.6405,-3.6405,-3.6405,-3.6405,-3.6405,-3.6405,-3.6405,-3.6405,-3.6405,-3.6405,-3.6405,-3.6405,-3.6405,-3.6405,-3.6405,-3.6405,-3.6405,-3.6405,-3.6405,-3.4167,-3.4184,-3.3677,0.0,0.0,0.0,-3.5255,-3.6485,0.0,0.0,0.0,0.0,0.0,0.0,0.0,0.0,0.0,0.0,0.0,0.0,0.0,0.0,0.0,0.0,0.0,0.0,0.0,-4.0956,-4.0938,-4.0817,-4.0524,-4.0489,-4.0489,-4.0489,-4.0489,-4.0689,-4.1155,-4.1155,-4.1509,-4.2186,-4.2186,-4.2525,-4.3171,-4.3171,-4.3541,-4.4194,-4.4194,-4.4272,-4.4473,-4.4473,-4.4281,-4.3988,-4.3988,-4.3699,-4.329,-4.329,-4.329,-4.329,-4.329,-4.329,-4.329,-4.329,-4.329,-4.329,-4.329,-4.329,-4.329,-4.329,-4.329,-4.329,-4.329,-4.2915,-4.2537,-4.2537,-4.1852,-4.1169,-4.1169,-4.0901,-4.0173,-3.8729,-3.8427,-3.8317,-3.7946,-3.79,-3.7854,-3.7703,-3.7657,-3.7505,-3.7108,-3.7015,-3.6922,-3.6534,-3.6534,-3.6499,-3.6405,-3.6405,-3.6405,-3.6405,-3.6405,-3.6405,-3.6405,-3.6405,-3.6405,-3.6405,-3.6405,-3.6405,-3.6405,-3.6405,-3.6405,-3.6405,-3.6405,-3.6405,-3.4438,-3.4624,-3.4438,-3.3711,0.0,0.0,-3.6084,-3.6609,-3.7252,0.0,0.0,0.0,0.0,0.0,0.0,0.0,0.0,0.0,0.0,0.0,0.0,0.0,0.0,0.0,0.0,-4.2452,-4.2219,-4.153,-4.1511,-4.1209,-4.0524,-4.0489,-4.0489,-4.0489,-4.0489,-4.0489,-4.0489,-4.0489,-4.0812,-4.1478,-4.1478,-4.1832,-4.2494,-4.2494,-4.2848,-4.3464,-4.3464,-4.3736,-4.4174,-4.4174,-4.4066,-4.3988,-4.3988,-4.3699,-4.329,-4.329,-4.329,-4.329,-4.329,-4.329,-4.329,-4.329,-4.329,-4.329,-4.329,-4.329,-4.329,-4.329,-4.329,-4.329,-4.329,-4.329,-4.329,-4.329,-4.2714,-4.2155,-4.2155,-4.1505,-4.0589,-3.9549,-3.9285,-3.8912,-3.807,-3.79,-3.79,-3.79,-3.79,-3.7808,-3.7551,-3.7505,-3.7307,-3.6815,-3.6722,-3.6628,-3.6452,-3.6405,-3.6405,-3.6405,-3.6405,-3.6405,-3.6405,-3.6405,-3.6405,-3.6405,-3.6405,-3.6405,-3.6405,-3.6405,-3.6405,-3.6405,-3.6405,-3.6405,-3.5346,-3.538,-3.5216,0.0,0.0,0.0,-3.4844,-3.5419,-3.6146,0.0,0.0,0.0,0.0,0.0,0.0,0.0,0.0,0.0,0.0,0.0,0.0,0.0,0.0,0.0,0.0,-4.2071,-4.2133,-4.1463,-4.1453,-4.1209,-4.0524,-4.0489,-4.0489,-4.0489,-4.0489,-4.0489,-4.0489,-4.0489,-4.0566,-4.0705,-4.0705,-4.1074,-4.1801,-4.1801,-4.2083,-4.2536,-4.2536,-4.2823,-4.3259,-4.3259,-4.3463,-4.3769,-4.3769,-4.3557,-4.329,-4.329,-4.329,-4.329,-4.329,-4.329,-4.329,-4.329,-4.329,-4.329,-4.329,-4.329,-4.329,-4.329,-4.329,-4.329,-4.329,-4.329,-4.329,-4.329,-4.317,-4.3036,-4.3036,-4.2915,-4.2304,-4.0632,-3.9724,-3.8912,-3.807,-3.79,-3.79,-3.79,-3.79,-3.7808,-3.7551,-3.7505,-3.7366,-3.7062,-3.6815,-3.6675,-3.6628,-3.6499,-3.6405,-3.6405,-3.6405,-3.6405,-3.6405,-3.6405,-3.6405,-3.6405,-3.6405,-3.6405,-3.6405,-3.6405,-3.6405,-3.6405,-3.6405,-3.6405,0.0,0.0,0.0,-3.5148,0.0,0.0,0.0,-3.5926,-3.6417,-3.7178,0.0,0.0,0.0,0.0,0.0,0.0,0.0,0.0,0.0,0.0,0.0,0.0,0.0,0.0,0.0,-4.2127,-4.2226,-4.1904,-4.1293,-4.0965,-4.1008,-4.0681,-4.0489,-4.0489,-4.0489,-4.0489,-4.0489,-4.0489,-4.0489,-4.0489,-4.0489,-4.0674,-4.1063,-4.1063,-4.1361,-4.195,-4.1847,-4.2062,-4.2485,-4.241,-4.2651,-4.3091,-4.3515,-4.3557,-4.329,-4.329,-4.329,-4.329,-4.329,-4.329,-4.329,-4.329,-4.329,-4.329,-4.329,-4.329,-4.329,-4.329,-4.329,-4.329,-4.329,-4.329,-4.329,-4.329,-4.329,-4.329,-4.329,-4.329,-4.278,-4.0944,-4.0202,-3.9489,-3.8116,-3.79,-3.79,-3.79,-3.79,-3.7854,-3.7703,-3.7703,-3.7611,-3.7307,-3.7062,-3.6862,-3.6709,-3.6546,-3.6405,-3.6405,-3.6405,-3.6405,-3.6405,-3.6405,-3.6405,-3.6405,-3.6405,-3.6405,-3.6405,-3.6094,-3.6094,-3.6405,-3.6405,-3.6267,0.0,0.0,0.0,0.0,0.0,-3.5769,0.0,0.0,0.0,-3.733,0.0,0.0,0.0,0.0,0.0,0.0,0.0,0.0,0.0,0.0,0.0,0.0,0.0,0.0,0.0,-4.1779,-4.196,-4.217,-4.1197,-4.0785,-4.124,-4.0927,-4.0612,-4.0489,-4.0489,-4.0489,-4.0489,-4.0489,-4.0489,-4.0489,-4.0489,-4.0489,-4.0489,-4.0455,-4.0777,-4.1295,-4.1087,-4.1252,-4.1691,-4.1527,-4.1768,-4.2276,-4.3106,-4.3397,-4.329,-4.329,-4.329,-4.329,-4.329,-4.329,-4.329,-4.329,-4.329,-4.329,-4.329,-4.329,-4.329,-4.329,-4.329,-4.329,-4.329,-4.329,-4.329,-4.329,-4.329,-4.329,-4.329,-4.329,-4.278,-4.0944,-4.0603,-4.0014,-3.8194,-3.79,-3.79,-3.79,-3.79,-3.79,-3.79,-3.7854,-3.7749,-3.7505,-3.7201,-3.6956,-3.6722,-3.6546,-3.6405,-3.6405,-3.6405,-3.6405,-3.6405,-3.6405,-3.6405,-3.6405,-3.6405,-3.6355,-3.6207,-3.5768,-3.5768,-3.6194,-3.6141,-3.5805,0.0,0.0,0.0,0.0,-3.56,0.0,0.0,0.0,-3.5752,-3.5836,0.0,0.0,0.0,0.0,0.0,0.0,0.0,0.0,0.0,0.0,0.0,0.0,0.0,0.0,0.0,0.0,-4.0649,-4.1359,-4.1288,-4.1,-4.0546,-4.1047,-4.1109,-4.0524,-4.0489,-4.0489,-4.0489,-4.0489,-4.0489,-4.0489,-4.0489,-4.0489,-4.0505,-4.0366,-4.0288,-4.0188,-3.998,-4.0142,-4.0591,-4.0554,-4.0943,-4.1587,-4.2261,-4.2875,-4.329,-4.329,-4.329,-4.329,-4.329,-4.329,-4.329,-4.329,-4.329,-4.329,-4.329,-4.329,-4.329,-4.329,-4.329,-4.329,-4.329,-4.329,-4.329,-4.329,-4.329,-4.329,-4.329,-4.329,-4.278,-4.0944,-4.0603,-4.0014,-3.8194,-3.79,-3.79,-3.79,-3.79,-3.79,-3.79,-3.7703,-3.7551,-3.7505,-3.7062,-3.6722,-3.6709,-3.6546,-3.6405,-3.6405,-3.6405,-3.6405,-3.6405,-3.6405,-3.6405,-3.6405,-3.6405,-3.6119,-3.5596,-3.552,-3.5533,-3.5583,-3.5082,-3.4876,0.0,0.0,0.0,0.0,0.0,0.0,-3.5701,0.0,-3.56,0.0,0.0,0.0,0.0,0.0,0.0,0.0,-3.6282,0.0,0.0,0.0,0.0,0.0,0.0,0.0,0.0,0.0,0.0,0.0,0.0,-4.0745,-4.0908,-4.0864,-4.0729,-4.0448,-4.0464,-4.0489,-4.0489,-4.0489,-4.0489,-4.0489,-4.0436,-4.0366,-4.0366,-4.0207,-4.0066,-3.9996,-3.9803,-3.9811,-3.9959,-3.9865,-4.0217,-4.0846,-4.1115,-4.1863,-4.2821,-4.3155,-4.329,-4.329,-4.329,-4.329,-4.329,-4.329,-4.329,-4.329,-4.329,-4.329,-4.329,-4.329,-4.329,-4.329,-4.329,-4.329,-4.329,-4.329,-4.329,-4.329,-4.329,-4.2915,-4.2319,-4.1547,-4.0986,-4.0346,-3.959,-3.8575,-3.79,-3.79,-3.79,-3.79,-3.79,-3.7808,-3.7703,-3.7703,-3.74,-3.7155,-3.7155,-3.6815,-3.6581,-3.6581,-3.6452,-3.6405,-3.6405,-3.6405,-3.6405,-3.6405,-3.6405,-3.6304,-3.6019,-3.5378,-3.5019,-3.5019,-3.4781,-3.455,-3.6197,0.0,0.0,0.0,0.0,0.0,0.0,0.0,0.0,0.0,0.0,0.0,0.0,0.0,0.0,0.0,0.0,0.0,0.0,0.0,0.0,0.0,0.0,0.0,0.0,0.0,0.0,-4.0544,-4.033,-4.0408,-4.0955,-4.0966,-4.0785,-4.0402,-4.0631,-4.0681,-4.0489,-4.0489,-4.0489,-4.0489,-4.0366,-4.0312,-4.0312,-4.0031,-3.9925,-3.9925,-3.9696,-3.9625,-3.9625,-3.9445,-3.9709,-4.0142,-4.0337,-4.098,-4.1961,-4.2761,-4.314,-4.329,-4.329,-4.329,-4.329,-4.329,-4.329,-4.329,-4.329,-4.329,-4.329,-4.329,-4.329,-4.329,-4.329,-4.329,-4.329,-4.329,-4.329,-4.329,-4.329,-4.2795,-4.2293,-4.2032,-4.1463,-4.0901,-4.0646,-3.9502,-3.853,-3.8317,-3.8272,-3.8194,-3.7946,-3.7854,-3.7808,-3.7808,-3.7551,-3.74,-3.74,-3.7015,-3.6815,-3.6815,-3.6581,-3.6499,-3.6499,-3.6452,-3.6405,-3.6405,-3.6405,-3.6329,-3.6132,-3.5341,-3.4818,-3.4668,-3.4412,-3.406,0.0,0.0,0.0,-3.5785,0.0,0.0,0.0,0.0,-3.56,0.0,0.0,0.0,0.0,0.0,0.0,-3.56,0.0,0.0,0.0,0.0,0.0,0.0,0.0,0.0,0.0,0.0,0.0,-3.9005,-3.9715,-4.0126,-4.0227,-4.1588,-4.1741,-4.0434,-4.1096,-4.1158,-4.0489,-4.0489,-4.0489,-4.0489,-4.0366,-4.0312,-4.0277,-3.991,-3.9717,-3.9696,-3.9481,-3.9424,-3.9424,-3.9388,-3.9388,-3.9514,-4.0157,-4.0427,-4.0621,-4.1946,-4.2791,-4.329,-4.329,-4.329,-4.329,-4.329,-4.329,-4.329,-4.329,-4.329,-4.329,-4.329,-4.329,-4.329,-4.329,-4.329,-4.329,-4.329,-4.329,-4.329,-4.329,-4.329,-4.2996,-4.2155,-4.199,-4.1686,-4.0774,-4.0546,-4.0216,-3.9299,-3.9166,-3.8836,-3.8024,-3.7657,-3.7505,-3.7505,-3.7261,-3.7108,-3.7108,-3.7108,-3.7108,-3.7108,-3.6815,-3.6675,-3.6675,-3.6499,-3.6405,-3.6405,-3.6405,-3.6094,-3.552,-3.5495,-3.5194,-3.4655,-3.3621,-3.3162,0.0,0.0,-3.7956,-3.6705,0.0,0.0,0.0,0.0,0.0,0.0,0.0,0.0,0.0,0.0,-3.56,-3.56,-3.56,0.0,0.0,0.0,0.0,0.0,0.0,0.0,0.0,0.0,0.0,-3.8971,-3.969,-4.0113,0.0,-4.0662,-4.0754,-4.0346,-4.061,-4.0673,-4.0489,-4.0489,-4.0489,-4.0489,-4.0366,-4.0242,-4.0101,-3.9839,-3.9625,-3.9481,-3.9424,-3.9388,-3.9388,-3.9388,-3.9388,-3.9403,-3.9664,-4.0023,-4.0561,-4.1916,-4.2545,-4.2746,-4.314,-4.329,-4.329,-4.329,-4.329,-4.329,-4.329,-4.329,-4.329,-4.329,-4.329,-4.329,-4.329,-4.329,-4.329,-4.329,-4.329,-4.329,-4.329,-4.2835,-4.2537,-4.2795,-4.2415,-4.2073,-4.2345,-4.24,-4.1879,-4.0332,-3.9593,-3.9077,-3.8792,-3.8181,-3.7749,-3.7749,-3.7703,-3.7611,-3.7611,-3.7459,-3.7307,-3.7108,-3.6862,-3.6709,-3.6709,-3.6499,-3.6405,-3.6405,-3.6405,-3.6317,-3.6081,-3.5671,-3.5408,-3.5207,-3.4512,-3.3972,-3.8362,-3.8633,0.0,-3.7483,-3.755,0.0,-3.6315,0.0,0.0,0.0,0.0,0.0,0.0,0.0,0.0,-3.5994,-3.5785,0.0,0.0,-3.56,0.0,0.0,0.0,0.0,0.0,0.0,-3.843,-3.8954,-3.9453,-3.9825,0.0,0.0,-4.047,-4.0274,-4.0601,-4.0671,-4.0463,-4.0504,-4.0489,-4.0489,-4.0296,-4.0137,-3.9996,-3.9696,-3.9517,-3.9388,-3.9388,-3.9388,-3.9388,-3.9388,-3.9388,-3.9388,-3.9388,-3.9679,-4.0187,-4.1265,-4.1991,-4.247,-4.2851,-4.3135,-4.329,-4.329,-4.329,-4.329,-4.329,-4.329,-4.329,-4.329,-4.329,-4.329,-4.329,-4.329,-4.329,-4.329,-4.329,-4.329,-4.329,-4.2875,-4.2618,-4.321,-4.2835,-4.2618,-4.321,-4.3036,-4.2319,-4.0817,-4.0073,-3.9475,-3.8836,-3.8226,-3.79,-3.79,-3.7717,-3.7528,-3.7436,-3.7573,-3.7505,-3.7108,-3.6956,-3.6815,-3.6709,-3.6499,-3.6405,-3.6405,-3.6405,-3.6405,-3.6405,-3.6006,-3.583,-3.5818,-3.5232,-3.4781]},{"header":{"parameterUnit":"m.s-1","parameterCategory":1,"la1":30.6,"la2":29.2853,"lo1":-89.7004,"lo2":-87.6739,"dy":0.0162,"dx":0.0183,"nx":112,"ny":82,"refTime":"2023-07-04T18:00:00:Z","depth":0,"parameterNumber":3,"parameterNumberName":"V-component_of_WINDS"},"data":[0.0,0.0,0.0,0.0,0.0,0.0,0.0,0.0,0.0,0.0,0.0,0.0,0.0,0.0,0.0,0.0,0.0,0.0,0.0,0.0,0.0,0.0,0.0,0.0,0.0,0.0,0.0,0.0,0.0,0.0,0.0,0.0,0.0,0.0,0.0,0.0,0.0,0.0,0.0,0.0,0.0,0.0,0.0,0.0,0.0,0.0,0.0,0.0,0.0,0.0,0.0,0.0,0.0,0.0,0.0,0.0,0.0,0.0,0.0,0.0,0.0,0.0,0.0,0.0,0.0,0.0,0.0,0.0,0.0,0.0,0.0,0.0,0.0,0.0,0.0,0.0,0.0,0.0,0.0,0.0,0.0,0.0,0.0,0.0,0.0,0.0,0.0,0.0,0.0,0.0,-3.1422,-3.2339,-3.2976,-3.3252,-3.3138,-3.3235,-3.2351,-3.0104,0.0,0.0,0.0,0.0,0.0,0.0,0.0,0.0,0.0,0.0,0.0,0.0,0.0,0.0,0.0,0.0,0.0,0.0,0.0,0.0,0.0,0.0,0.0,0.0,0.0,0.0,0.0,0.0,0.0,0.0,0.0,0.0,0.0,0.0,0.0,0.0,0.0,0.0,0.0,0.0,0.0,0.0,0.0,0.0,0.0,0.0,0.0,0.0,0.0,0.0,0.0,0.0,0.0,0.0,0.0,0.0,0.0,0.0,0.0,0.0,0.0,0.0,0.0,0.0,0.0,0.0,0.0,0.0,0.0,0.0,0.0,0.0,0.0,0.0,0.0,0.0,0.0,0.0,0.0,0.0,0.0,0.0,0.0,0.0,0.0,0.0,0.0,0.0,0.0,0.0,0.0,0.0,0.0,0.0,0.0,0.0,0.0,0.0,0.0,0.0,0.0,0.0,0.0,0.0,-3.2788,-3.4295,-3.4533,-3.4592,-3.4574,-3.4607,-3.3768,-3.1778,0.0,0.0,0.0,0.0,0.0,0.0,0.0,0.0,0.0,0.0,0.0,0.0,0.0,0.0,0.0,0.0,0.0,0.0,0.0,0.0,0.0,0.0,0.0,0.0,0.0,0.0,0.0,0.0,0.0,0.0,0.0,0.0,0.0,0.0,0.0,0.0,0.0,0.0,0.0,0.0,0.0,0.0,0.0,0.0,0.0,0.0,0.0,0.0,0.0,0.0,0.0,0.0,0.0,0.0,0.0,0.0,0.0,0.0,0.0,0.0,0.0,0.0,0.0,0.0,0.0,0.0,0.0,0.0,0.0,0.0,0.0,0.0,0.0,0.0,0.0,0.0,0.0,0.0,0.0,0.0,0.0,0.0,0.0,0.0,0.0,0.0,0.0,0.0,0.0,0.0,0.0,0.0,0.0,0.0,0.0,0.0,0.0,0.0,0.0,0.0,0.0,0.0,0.0,-3.2606,-3.3554,-3.4934,-3.5148,-3.518,-3.5082,-3.5148,-3.4201,-3.1767,-3.2049,0.0,0.0,0.0,0.0,0.0,0.0,0.0,0.0,0.0,0.0,0.0,0.0,0.0,0.0,0.0,0.0,0.0,0.0,0.0,0.0,0.0,0.0,0.0,0.0,0.0,0.0,0.0,0.0,0.0,0.0,0.0,0.0,0.0,0.0,0.0,0.0,0.0,0.0,0.0,0.0,0.0,0.0,0.0,0.0,0.0,0.0,0.0,0.0,0.0,0.0,0.0,0.0,0.0,0.0,0.0,0.0,0.0,0.0,0.0,0.0,0.0,0.0,0.0,0.0,0.0,0.0,0.0,0.0,0.0,0.0,0.0,0.0,0.0,0.0,0.0,0.0,0.0,0.0,0.0,0.0,0.0,0.0,0.0,0.0,0.0,0.0,0.0,0.0,0.0,0.0,0.0,0.0,0.0,0.0,0.0,0.0,0.0,0.0,0.0,0.0,0.0,0.0,-3.363,-3.4289,-3.519,-3.5407,-3.5439,-3.5294,-3.5407,-3.4304,-3.1515,-3.2422,0.0,0.0,0.0,0.0,0.0,0.0,0.0,0.0,0.0,0.0,0.0,0.0,0.0,0.0,0.0,0.0,0.0,0.0,0.0,0.0,0.0,0.0,0.0,0.0,0.0,0.0,0.0,0.0,0.0,0.0,0.0,0.0,0.0,0.0,0.0,0.0,0.0,0.0,0.0,0.0,0.0,0.0,0.0,0.0,0.0,0.0,0.0,0.0,0.0,0.0,0.0,0.0,0.0,0.0,0.0,0.0,0.0,0.0,0.0,0.0,0.0,0.0,0.0,0.0,0.0,0.0,0.0,0.0,0.0,0.0,0.0,0.0,0.0,0.0,0.0,0.0,0.0,0.0,0.0,0.0,0.0,0.0,0.0,0.0,0.0,0.0,0.0,0.0,0.0,0.0,0.0,0.0,0.0,0.0,0.0,0.0,0.0,0.0,0.0,0.0,0.0,0.0,-3.4386,-3.54,-3.5457,-3.5504,-3.5504,-3.5472,-3.5504,-3.4336,-3.1646,-3.1686,0.0,0.0,0.0,0.0,0.0,0.0,0.0,0.0,0.0,0.0,0.0,0.0,0.0,0.0,0.0,0.0,0.0,0.0,0.0,0.0,0.0,0.0,0.0,0.0,0.0,0.0,0.0,0.0,0.0,0.0,0.0,0.0,0.0,0.0,0.0,0.0,0.0,0.0,0.0,0.0,0.0,0.0,0.0,0.0,0.0,0.0,0.0,0.0,0.0,0.0,0.0,0.0,0.0,0.0,0.0,0.0,0.0,0.0,0.0,0.0,0.0,0.0,0.0,0.0,0.0,0.0,0.0,0.0,0.0,0.0,0.0,0.0,0.0,0.0,0.0,0.0,0.0,0.0,0.0,0.0,0.0,0.0,0.0,0.0,0.0,0.0,0.0,0.0,0.0,0.0,0.0,0.0,0.0,0.0,0.0,0.0,0.0,0.0,0.0,0.0,0.0,0.0,-3.423,-3.5026,0.0,-3.5504,-3.5504,-3.5504,-3.5504,-3.4367,-3.1675,0.0,0.0,0.0,0.0,0.0,0.0,0.0,0.0,0.0,0.0,0.0,0.0,0.0,0.0,0.0,0.0,0.0,0.0,0.0,0.0,0.0,0.0,0.0,0.0,0.0,0.0,0.0,0.0,0.0,0.0,0.0,0.0,0.0,0.0,0.0,0.0,0.0,0.0,0.0,0.0,0.0,0.0,0.0,0.0,0.0,0.0,0.0,0.0,0.0,0.0,0.0,0.0,0.0,0.0,0.0,0.0,0.0,0.0,0.0,0.0,0.0,0.0,0.0,0.0,0.0,0.0,0.0,0.0,0.0,0.0,0.0,0.0,0.0,0.0,0.0,0.0,0.0,0.0,0.0,0.0,0.0,0.0,0.0,0.0,0.0,0.0,0.0,0.0,0.0,0.0,0.0,0.0,0.0,0.0,0.0,0.0,0.0,0.0,0.0,0.0,0.0,0.0,-3.3095,-3.4128,-3.4981,0.0,-3.5504,-3.5504,-3.5504,-3.5504,-3.4457,-3.1974,0.0,0.0,0.0,0.0,0.0,0.0,0.0,0.0,0.0,0.0,0.0,0.0,0.0,0.0,0.0,0.0,0.0,0.0,0.0,0.0,0.0,0.0,0.0,0.0,0.0,0.0,0.0,0.0,0.0,0.0,0.0,0.0,0.0,0.0,0.0,0.0,0.0,0.0,0.0,0.0,0.0,0.0,0.0,0.0,0.0,0.0,0.0,0.0,0.0,0.0,0.0,0.0,0.0,0.0,0.0,0.0,0.0,0.0,0.0,0.0,0.0,0.0,0.0,0.0,0.0,0.0,0.0,0.0,0.0,0.0,0.0,0.0,0.0,0.0,0.0,0.0,0.0,0.0,0.0,0.0,0.0,0.0,0.0,0.0,0.0,0.0,0.0,0.0,0.0,0.0,0.0,0.0,0.0,0.0,0.0,0.0,0.0,0.0,0.0,0.0,0.0,0.0,-3.2572,-3.4262,-3.5504,-3.5504,-3.5504,-3.5504,-3.5504,-3.5504,-3.4651,0.0,0.0,0.0,0.0,0.0,0.0,0.0,0.0,0.0,0.0,0.0,0.0,0.0,0.0,0.0,0.0,0.0,0.0,0.0,0.0,0.0,0.0,0.0,0.0,0.0,0.0,0.0,0.0,0.0,0.0,0.0,0.0,0.0,0.0,0.0,0.0,0.0,0.0,0.0,0.0,0.0,0.0,0.0,0.0,0.0,0.0,0.0,0.0,0.0,0.0,0.0,0.0,0.0,0.0,0.0,0.0,0.0,0.0,0.0,0.0,0.0,0.0,0.0,0.0,0.0,0.0,0.0,0.0,0.0,0.0,0.0,0.0,0.0,0.0,0.0,0.0,0.0,0.0,0.0,0.0,0.0,0.0,0.0,0.0,0.0,0.0,0.0,0.0,0.0,0.0,0.0,0.0,0.0,0.0,0.0,0.0,0.0,0.0,0.0,0.0,0.0,0.0,0.0,-3.2452,-3.4262,-3.5504,-3.5504,-3.5504,-3.5504,-3.5504,-3.5504,-3.4651,-3.2647,0.0,0.0,0.0,0.0,0.0,0.0,0.0,0.0,0.0,0.0,0.0,0.0,0.0,0.0,0.0,0.0,0.0,0.0,0.0,0.0,0.0,0.0,0.0,0.0,0.0,0.0,0.0,0.0,0.0,0.0,0.0,0.0,0.0,0.0,0.0,0.0,0.0,0.0,0.0,0.0,0.0,0.0,0.0,0.0,0.0,0.0,0.0,0.0,0.0,0.0,0.0,0.0,0.0,0.0,0.0,0.0,0.0,0.0,0.0,0.0,0.0,0.0,0.0,0.0,0.0,0.0,0.0,0.0,0.0,0.0,0.0,0.0,0.0,0.0,0.0,0.0,0.0,0.0,0.0,0.0,0.0,0.0,0.0,0.0,0.0,0.0,0.0,0.0,0.0,0.0,0.0,0.0,0.0,0.0,0.0,0.0,0.0,0.0,0.0,0.0,0.0,0.0,-3.2467,-3.4262,-3.5504,-3.5504,-3.5504,-3.5504,-3.5504,-3.5504,-3.4876,-3.3395,0.0,0.0,0.0,0.0,0.0,0.0,0.0,0.0,0.0,0.0,0.0,0.0,0.0,0.0,0.0,0.0,0.0,0.0,0.0,0.0,0.0,0.0,0.0,0.0,0.0,0.0,0.0,0.0,0.0,0.0,0.0,0.0,0.0,0.0,0.0,0.0,0.0,0.0,0.0,0.0,0.0,0.0,0.0,0.0,0.0,0.0,0.0,0.0,0.0,0.0,0.0,0.0,0.0,0.0,0.0,0.0,0.0,0.0,0.0,0.0,0.0,0.0,0.0,0.0,0.0,0.0,0.0,0.0,0.0,0.0,0.0,0.0,0.0,0.0,0.0,0.0,0.0,0.0,0.0,0.0,0.0,0.0,0.0,0.0,0.0,0.0,0.0,0.0,0.0,0.0,0.0,0.0,0.0,0.0,0.0,0.0,0.0,0.0,0.0,0.0,0.0,0.0,-3.2587,-3.4262,-3.5504,-3.5504,-3.5504,-3.5504,-3.5504,-3.5504,-3.5205,-3.4548,0.0,0.0,0.0,0.0,0.0,0.0,0.0,0.0,0.0,0.0,0.0,0.0,0.0,0.0,0.0,0.0,0.0,0.0,0.0,0.0,0.0,0.0,0.0,0.0,0.0,0.0,0.0,0.0,0.0,0.0,0.0,0.0,0.0,0.0,0.0,0.0,0.0,0.0,0.0,0.0,0.0,0.0,0.0,0.0,0.0,0.0,0.0,0.0,0.0,0.0,0.0,0.0,0.0,0.0,0.0,0.0,0.0,0.0,0.0,0.0,-2.6716,0.0,0.0,0.0,0.0,0.0,0.0,0.0,0.0,0.0,0.0,0.0,0.0,0.0,0.0,0.0,0.0,0.0,0.0,0.0,0.0,0.0,0.0,0.0,0.0,0.0,0.0,0.0,0.0,0.0,0.0,0.0,0.0,0.0,0.0,0.0,0.0,0.0,0.0,0.0,0.0,0.0,-3.2527,-3.4262,-3.5504,-3.5504,-3.5504,-3.5504,-3.5504,-3.5504,-3.5205,-3.4548,-3.4384,0.0,0.0,0.0,0.0,0.0,0.0,0.0,0.0,0.0,0.0,0.0,0.0,0.0,0.0,0.0,0.0,0.0,0.0,0.0,0.0,0.0,0.0,0.0,0.0,0.0,0.0,0.0,0.0,0.0,0.0,0.0,0.0,0.0,0.0,0.0,0.0,0.0,0.0,0.0,0.0,0.0,0.0,0.0,0.0,0.0,0.0,0.0,0.0,0.0,0.0,0.0,0.0,0.0,0.0,0.0,0.0,0.0,0.0,0.0,0.0,-2.6801,0.0,0.0,0.0,0.0,0.0,0.0,0.0,0.0,0.0,0.0,0.0,0.0,0.0,0.0,0.0,0.0,0.0,0.0,0.0,0.0,0.0,0.0,0.0,0.0,0.0,0.0,0.0,0.0,0.0,0.0,0.0,0.0,0.0,0.0,0.0,0.0,0.0,0.0,0.0,0.0,-3.2976,-3.4457,-3.5504,-3.5504,-3.5504,-3.5504,-3.5504,-3.5504,-3.5355,-3.4996,-3.4698,0.0,0.0,0.0,0.0,0.0,0.0,0.0,0.0,0.0,0.0,0.0,0.0,0.0,0.0,0.0,0.0,0.0,0.0,0.0,0.0,0.0,0.0,0.0,0.0,0.0,0.0,0.0,0.0,0.0,0.0,0.0,0.0,0.0,0.0,0.0,0.0,0.0,0.0,0.0,0.0,0.0,0.0,0.0,0.0,0.0,0.0,0.0,0.0,0.0,0.0,0.0,0.0,0.0,-2.6323,-2.6688,-2.6618,-2.7039,-2.7679,-2.8348,-2.7467,-2.748,-2.7996,-2.6603,0.0,0.0,0.0,0.0,0.0,0.0,0.0,0.0,0.0,0.0,0.0,0.0,0.0,0.0,0.0,0.0,0.0,0.0,0.0,0.0,0.0,0.0,0.0,0.0,-3.442,-3.4565,0.0,0.0,0.0,0.0,0.0,0.0,0.0,0.0,0.0,0.0,0.0,0.0,-3.3649,-3.4741,-3.5504,-3.5504,-3.5504,-3.5504,-3.5504,-3.5504,-3.5537,-3.5651,-3.503,-3.4655,0.0,0.0,0.0,0.0,0.0,0.0,0.0,0.0,0.0,0.0,0.0,0.0,0.0,0.0,0.0,0.0,0.0,0.0,0.0,0.0,0.0,0.0,0.0,0.0,0.0,0.0,0.0,0.0,0.0,0.0,0.0,0.0,-2.0391,-2.0653,0.0,0.0,0.0,0.0,0.0,0.0,0.0,0.0,0.0,0.0,0.0,0.0,0.0,-2.4755,-2.4884,-2.6139,-2.6756,-2.6756,-2.8269,-2.8981,-2.8958,-2.9262,-2.9465,-2.9566,-2.9415,0.0,-2.8084,-2.7858,0.0,0.0,0.0,0.0,0.0,0.0,0.0,0.0,0.0,0.0,0.0,0.0,0.0,0.0,0.0,0.0,0.0,0.0,0.0,0.0,0.0,0.0,-3.5267,-3.5299,-3.5342,-3.534,0.0,-3.4322,-3.3531,-3.3593,-3.3412,0.0,0.0,0.0,0.0,0.0,0.0,0.0,-3.4294,-3.5026,-3.5504,-3.5504,-3.5504,-3.5504,-3.5504,-3.5504,-3.5701,-3.6258,-3.5706,-3.5326,-3.5278,-3.4758,0.0,0.0,0.0,0.0,0.0,0.0,0.0,0.0,0.0,0.0,0.0,0.0,0.0,0.0,0.0,0.0,0.0,0.0,0.0,0.0,0.0,0.0,0.0,0.0,0.0,0.0,0.0,0.0,0.0,-1.9509,-2.0256,-2.0294,-2.0896,-2.1382,0.0,0.0,0.0,0.0,0.0,0.0,0.0,0.0,0.0,-2.6224,-2.6531,-2.6969,-2.7498,-2.8594,-2.9193,-2.93,-3.0114,-3.0498,-3.0538,-3.0643,-3.0696,-3.0696,-3.0696,-3.0407,-2.988,-2.895,-2.8134,-2.7431,0.0,0.0,0.0,0.0,-2.8812,-2.9449,-3.0959,-3.1927,0.0,-3.204,0.0,0.0,0.0,0.0,0.0,0.0,0.0,0.0,0.0,0.0,0.0,-3.5415,-3.5504,-3.5504,-3.5504,-3.504,-3.4548,0.0,-3.3831,-3.3351,-3.2854,0.0,0.0,0.0,0.0,-3.4174,-3.4474,-3.5085,-3.5504,-3.5504,-3.5504,-3.5504,-3.5504,-3.5504,-3.5619,-3.5878,-3.5651,-3.5629,-3.5953,-3.5675,-3.5375,0.0,0.0,0.0,0.0,0.0,0.0,0.0,0.0,0.0,0.0,0.0,0.0,0.0,0.0,0.0,0.0,0.0,0.0,0.0,0.0,0.0,0.0,0.0,0.0,0.0,0.0,0.0,0.0,-2.0091,-2.0867,-2.0857,-2.1942,-2.2633,0.0,0.0,0.0,0.0,0.0,0.0,-2.6196,-2.6269,-2.6857,-2.8112,-2.857,-2.9116,-2.9882,-3.0692,-3.1141,-3.1294,-3.168,-3.1813,-3.1813,-3.1662,-3.1599,-3.1599,-3.1449,-3.1386,-3.1286,-2.9917,-2.9239,-2.9101,-2.8536,-2.8538,-2.8938,-2.9896,-3.0665,-3.1428,-3.2619,-3.3531,-3.4041,-3.331,0.0,-3.4126,-3.3469,0.0,0.0,0.0,0.0,-3.4243,-3.4766,-3.4915,-3.5018,-3.5417,-3.5504,-3.5504,-3.5504,-3.537,-3.5177,0.0,-3.4415,-3.3891,-3.3472,0.0,0.0,0.0,0.0,-3.4578,-3.4711,-3.534,-3.5759,-3.5759,-3.5893,-3.5923,-3.5774,-3.5759,-3.5749,-3.5716,-3.5602,-3.5765,-3.6368,-3.6362,-3.6328,-3.6371,0.0,0.0,0.0,0.0,0.0,0.0,0.0,0.0,0.0,0.0,0.0,0.0,0.0,0.0,0.0,0.0,0.0,0.0,0.0,0.0,0.0,0.0,0.0,0.0,0.0,0.0,0.0,0.0,0.0,-2.3379,-2.4775,0.0,0.0,0.0,0.0,-2.6153,-2.6162,-2.6736,-2.8001,-2.806,-2.8738,-3.0197,-3.0257,-3.0448,-3.0733,-3.1455,-3.1866,-3.1866,-3.2644,-3.2993,-3.3023,-3.2416,-3.2177,-3.2139,-3.1625,-3.1386,-3.1348,-3.0771,-3.0218,-2.9691,-2.9076,-2.9113,-2.9553,-3.0383,-3.1682,-3.3167,-3.3936,-3.4747,-3.5307,-3.4618,-3.4022,-3.368,-3.4388,-3.4164,0.0,0.0,-3.4662,-3.4781,-3.5312,-3.5459,-3.5459,-3.5489,-3.5504,-3.5504,-3.5504,-3.4996,-3.4743,0.0,-3.5429,-3.519,-3.4533,0.0,-3.4444,-3.4414,-3.4459,-3.4711,-3.537,-3.6028,-3.6432,-3.6432,-3.6971,-3.7075,-3.6492,-3.6432,-3.6411,-3.6352,-3.5829,-3.5765,-3.6368,-3.6399,-3.6381,-3.6316,-3.634,0.0,0.0,0.0,0.0,0.0,0.0,0.0,0.0,0.0,0.0,0.0,0.0,0.0,0.0,0.0,0.0,0.0,0.0,0.0,0.0,0.0,0.0,0.0,0.0,0.0,0.0,0.0,0.0,-2.3886,-2.5605,0.0,-2.5849,-2.6706,-2.7482,-2.7992,-2.8469,-2.8949,-2.9414,-2.9928,-3.0458,-3.0961,-3.1761,-3.2333,-3.2605,-3.322,-3.3582,-3.3715,-3.3991,-3.4135,-3.4123,-3.3922,-3.3834,-3.3822,-3.3621,-3.3533,-3.347,-3.2566,-3.165,-3.0849,-3.0767,-3.0853,-3.1189,-3.2746,-3.3732,-3.442,-3.582,-3.6499,-3.6626,-3.5983,-3.5642,-3.5459,-3.5764,-3.5707,-3.5647,-3.6259,-3.6439,-3.6499,-3.6671,-3.6731,-3.6731,-3.6731,-3.6731,-3.6731,-3.6731,-3.6537,-3.6432,-3.6686,-3.5714,-3.4906,-3.51,-3.5489,-3.5806,-3.5806,-3.6118,-3.6447,-3.6701,-3.6941,-3.7075,-3.7075,-3.7285,-3.7315,-3.7105,-3.7075,-3.7072,-3.705,-3.6475,-3.6626,-3.7638,-3.6848,-3.6961,-3.822,-3.7441,-3.6726,0.0,0.0,0.0,0.0,0.0,0.0,0.0,0.0,0.0,0.0,0.0,0.0,0.0,0.0,0.0,0.0,0.0,0.0,0.0,0.0,0.0,0.0,0.0,0.0,0.0,0.0,-2.5743,-2.5043,-2.6785,-2.7758,-2.7002,-2.8251,-2.9284,-2.9618,-3.0272,-3.0699,-3.0891,-3.1477,-3.193,-3.2213,-3.3121,-3.3714,-3.3983,-3.4499,-3.4832,-3.4956,-3.519,-3.5278,-3.5265,-3.5031,-3.4956,-3.4944,-3.4756,-3.468,-3.4663,-3.4023,-3.3323,-3.258,-3.2028,-3.2154,-3.2856,-3.4255,-3.515,-3.5856,-3.701,-3.7404,-3.7345,-3.6926,-3.6791,-3.6791,-3.6791,-3.6791,-3.6881,-3.73,-3.7404,-3.7404,-3.7404,-3.7404,-3.7404,-3.7404,-3.7404,-3.7404,-3.7404,-3.7404,-3.7404,-3.7404,-3.6357,-3.5609,-3.6073,-3.6507,-3.6675,-3.6274,-3.69,-3.7255,-3.6873,-3.7364,-3.7749,-3.7749,-3.7943,-3.7988,-3.7764,-3.7345,-3.718,-3.7404,-3.6626,-3.6741,-3.801,-3.6971,-3.6934,-3.822,-3.7644,-3.7113,-3.6738,0.0,0.0,0.0,0.0,0.0,0.0,0.0,0.0,0.0,0.0,0.0,0.0,0.0,0.0,0.0,0.0,0.0,0.0,0.0,0.0,0.0,0.0,0.0,-2.5017,-2.5702,-2.6518,-2.7164,-2.8474,-2.9282,-2.9129,-3.0241,-3.097,-3.0951,-3.1476,-3.1994,-3.2491,-3.2762,-3.3219,-3.401,-3.4334,-3.4562,-3.4731,-3.5257,-3.552,-3.5533,-3.6107,-3.6405,-3.6392,-3.5805,-3.552,-3.5495,-3.4956,-3.4731,-3.4776,-3.5034,-3.5123,-3.4908,-3.2784,-3.3001,-3.4527,-3.4854,-3.6043,-3.7494,-3.7479,-3.7464,-3.7464,-3.7449,-3.7434,-3.7434,-3.7434,-3.7434,-3.7449,-3.7464,-3.7464,-3.7464,-3.7464,-3.7464,-3.7464,-3.7464,-3.7464,-3.7464,-3.7464,-3.7464,-3.7464,-3.7464,-3.7464,-3.7464,-3.7434,-3.7434,-3.7049,-3.5984,-3.6772,0.0,-3.5954,-3.7357,-3.8422,-3.8427,-3.899,-3.9125,-3.8452,-3.7289,-3.6806,-3.7434,-3.6282,-3.6148,-3.7458,-3.6708,-3.6292,-3.6321,-3.6857,-3.75,-3.8186,0.0,0.0,0.0,0.0,0.0,0.0,0.0,0.0,0.0,0.0,0.0,0.0,0.0,0.0,0.0,0.0,0.0,0.0,0.0,0.0,0.0,0.0,-2.6742,-2.6428,-2.7602,-2.8797,-2.9738,-3.0212,-3.0747,-3.1452,-3.1833,-3.2214,-3.2599,-3.2767,-3.2911,-3.3056,-3.3823,-3.4335,-3.4588,-3.5438,-3.5871,-3.5906,-3.6056,-3.6132,-3.6132,-3.6329,-3.6405,-3.6405,-3.6207,-3.6132,-3.6119,-3.5981,-3.5906,-3.5927,-3.5742,-3.5669,-3.5691,-3.5719,-3.6,-3.6593,-3.8079,-3.9028,-3.9514,-3.9035,-3.8871,-3.8781,-3.8272,-3.8123,-3.8123,-3.8123,-3.8123,-3.8227,-3.8721,-3.8871,-3.8871,-3.8871,-3.8871,-3.8871,-3.8871,-3.8871,-3.8871,-3.8871,-3.8871,-3.8871,-3.8871,-3.8871,-3.8706,-3.8212,-3.8123,-3.8167,-3.8352,-3.8646,0.0,-3.8412,-3.8796,-3.8981,-3.8627,-3.8782,-3.8828,-3.8632,-3.8301,-3.8307,-3.8826,-3.8078,-3.8198,-3.952,-3.8492,-3.8325,-3.9293,-3.8373,-3.8013,0.0,0.0,0.0,0.0,0.0,0.0,0.0,0.0,0.0,0.0,0.0,0.0,0.0,0.0,0.0,0.0,0.0,0.0,0.0,0.0,0.0,0.0,-2.6701,-2.821,-2.8864,-2.9546,-3.0266,-3.1151,-3.1408,-3.1889,-3.2743,-3.302,-3.3272,-3.3585,-3.3813,-3.3933,-3.3933,-3.4698,-3.5153,-3.5153,-3.5959,-3.6405,-3.6405,-3.6405,-3.6405,-3.6405,-3.6405,-3.6405,-3.6405,-3.6405,-3.6405,0.0,-3.6499,-3.6534,-3.6508,-3.6565,-3.6792,0.0,0.0,0.0,0.0,0.0,-4.0721,-4.0756,-4.0367,-4.0247,-4.0172,-3.9768,-3.9649,-3.9649,-3.9649,-3.9649,-3.9723,-4.0127,-4.0247,-4.0247,-4.0247,-4.0247,-4.0247,-4.0247,-4.0247,-4.0172,-3.9888,-3.9828,-3.9753,-3.9433,-3.9388,0.0,-3.8901,-3.8826,-3.8801,-3.8722,-3.9101,-3.9215,-3.8767,-3.9101,-3.9311,-3.9013,-3.8983,-3.8983,-3.8983,-3.8457,0.0,0.0,0.0,-3.8424,-3.944,-3.8779,0.0,0.0,0.0,-3.8957,-3.9526,0.0,0.0,0.0,-3.7489,-3.7102,0.0,0.0,0.0,0.0,0.0,0.0,0.0,0.0,0.0,0.0,0.0,0.0,0.0,0.0,0.0,0.0,-2.8498,-3.0062,-3.1512,-3.1464,-3.1452,-3.1922,-3.237,-3.2887,-3.3416,-3.3861,-3.4078,-3.4078,-3.451,-3.4823,-3.4823,0.0,0.0,0.0,0.0,-3.6405,-3.6405,-3.6405,-3.6405,-3.6405,-3.6405,-3.6405,-3.6405,-3.6405,-3.6405,-3.6405,-3.6628,-3.6709,-3.6722,-3.7261,-3.8122,-3.9009,-3.81,-3.8241,-3.9162,-4.0884,-4.1527,-4.1512,-4.1452,0.0,0.0,-4.1422,-4.1422,-4.1422,-4.1422,-4.1422,-4.1422,-4.1422,-4.1422,-4.1422,-4.1422,-4.1422,-4.1422,-4.1422,-4.1422,-4.122,-4.0636,-4.0502,-4.0337,-3.9753,-3.9649,-3.9649,-3.9649,-3.9514,-3.9056,-3.8045,-3.8842,-3.9146,-3.8136,-3.8942,-3.9589,-3.9439,0.0,0.0,-3.932,-3.8247,-3.8063,-3.9298,-3.8357,-3.7956,-3.8451,-3.8528,-3.8926,-3.966,-3.9588,-4.0211,-4.1513,-4.1621,-4.166,-4.1588,-3.791,-3.6966,0.0,0.0,0.0,0.0,0.0,0.0,0.0,0.0,0.0,0.0,0.0,0.0,0.0,0.0,0.0,-2.7542,-2.9683,-3.1356,-3.1669,-3.2683,-3.3418,-3.3526,-3.3634,-3.3898,-3.4487,-3.457,-3.4631,-3.4631,-3.4727,-3.4872,-3.5126,-3.5428,-3.5716,-3.592,-3.6228,-3.6405,-3.6405,-3.6405,-3.6405,-3.6405,0.0,0.0,-3.6405,-3.6405,-3.6405,-3.6405,-3.6628,-3.6709,-3.6722,-3.7261,-3.8581,-4.0318,-4.0857,-4.1613,-4.2336,-4.224,-4.2216,-4.2126,-4.1602,-4.1422,-4.1422,-4.1422,-4.1422,-4.1422,-4.1422,-4.1422,0.0,-4.1422,-4.1422,-4.1422,-4.1422,-4.1422,-4.1422,-4.1422,-4.1422,-4.1339,-4.122,-4.119,-4.1145,-4.1025,-4.0995,-4.0995,-4.0995,-4.0127,-3.9334,-3.9101,-3.9709,-4.0113,-3.9895,-4.0554,-4.068,-3.9739,-3.9619,-3.9429,-3.8873,-3.8587,-3.8697,-3.9364,-3.9692,-3.9963,-4.0047,-4.0565,-4.1215,-4.1959,-4.1374,-4.1465,-4.2274,-4.1723,-4.1453,-4.1437,-4.0892,-4.0872,0.0,0.0,0.0,0.0,0.0,0.0,0.0,0.0,0.0,0.0,0.0,-2.4978,0.0,0.0,-2.8385,-2.9542,-3.087,-3.1982,-3.2743,-3.349,-3.3994,-3.3994,-3.4234,-3.4486,-3.4751,-3.4775,-3.4775,-3.4775,-3.4932,-3.5078,-3.5175,-3.5572,-3.586,-3.6015,-3.6275,-3.6405,-3.6405,-3.6681,-3.682,-3.682,-3.7048,-3.7048,-3.682,-3.682,-3.6716,-3.6534,-3.6815,-3.6968,-3.7201,-3.8522,-3.9651,-4.0731,-4.2099,-4.2915,-4.3245,-4.297,-4.2851,-4.2806,-4.2476,-4.2357,-4.2357,-4.2357,-4.2357,-4.2357,-4.2357,-4.2357,-4.2357,-4.2357,-4.2357,-4.2357,-4.2357,-4.2357,-4.2357,-4.2357,-4.2357,-4.2267,-4.1991,-4.1916,-4.1811,-4.1482,-4.1422,-4.1422,-4.1422,-4.0831,-4.0397,-4.0397,-4.0681,-4.0891,-4.0891,-4.1175,-4.1168,-4.0598,-4.0559,-4.0424,-4.0079,-4.0049,-4.0012,-3.9918,-4.0251,-4.0461,-4.0493,-4.0805,-4.1327,-4.2061,-4.2057,-4.2205,-4.2556,-4.2508,-4.2489,-4.2518,-4.2679,-4.2439,0.0,0.0,0.0,0.0,0.0,0.0,0.0,0.0,-2.376,-2.5357,-2.6092,-2.7001,-2.8789,-2.9337,-3.0073,-3.1733,-3.2114,-3.2575,-3.3814,-3.4078,-3.415,-3.415,-3.4522,-3.4775,-3.4775,-3.4775,-3.4775,-3.4775,-3.5078,-3.5223,-3.5271,-3.5716,-3.6065,-3.6212,-3.6438,-3.6619,-3.6732,-3.7123,-3.7349,-3.7349,-3.7789,-3.7776,-3.7337,-3.7236,-3.7079,-3.6874,-3.7286,-3.7605,-3.7972,-3.9826,-4.0731,-4.1029,-4.2482,-4.317,-4.329,-4.329,-4.329,-4.329,-4.329,-4.329,-4.329,-4.329,-4.329,-4.329,-4.329,-4.329,-4.329,-4.329,-4.329,-4.329,-4.329,-4.329,-4.329,-4.329,-4.329,-4.3155,-4.2671,-4.259,-4.244,-4.1863,-4.1758,-4.1758,-4.1758,-4.1758,-4.1683,-4.1452,-4.1527,-4.1564,-4.1564,-4.1683,-4.1713,-4.1632,-4.1564,-4.1557,-4.1384,-4.1422,-4.116,-4.0621,-4.0591,-4.0631,-4.0664,-4.0546,-4.0801,-4.1482,-4.1964,-4.2253,-4.238,-4.2943,-4.3265,-4.3402,-4.3402,-4.294,-2.1497,-2.1181,-2.1828,-2.3724,-2.3763,-2.4078,0.0,0.0,-2.6728,-2.8437,-2.923,-2.9941,-3.1132,-3.136,-3.1769,-3.2923,-3.3477,-3.379,-3.397,-3.439,-3.4691,-3.4691,-3.4739,-3.4775,-3.4775,-3.4775,-3.4775,-3.4775,-3.5078,-3.532,-3.5512,-3.5812,-3.6322,-3.7025,-3.7086,-3.7324,-3.7814,-3.7889,-3.7914,-3.7914,-3.7977,-3.7977,-3.7902,-3.7412,-3.7306,-3.7553,-3.8365,-3.8836,-3.9077,-4.0159,-4.1071,-4.1867,-4.2073,-4.2618,-4.329,-4.329,-4.329,-4.329,-4.329,-4.329,-4.329,-4.329,-4.329,-4.329,-4.329,-4.329,-4.329,-4.329,-4.329,-4.329,-4.329,-4.329,-4.329,-4.329,-4.329,-4.3275,-4.32,-4.3185,-4.317,-4.308,-4.308,-4.308,-4.308,-4.308,-4.2677,-4.1549,-4.1916,-4.2291,-4.2291,-4.2761,-4.2895,-4.2351,-4.2291,-4.2051,-4.1467,-4.1422,-4.1392,-4.1265,-4.1265,-4.131,-4.131,-4.074,-4.0707,-4.1379,-4.0962,-4.1042,-4.1624,-4.1689,-4.2078,-4.271,-4.271,-4.3061,-2.3516,-2.3311,0.0,0.0,-2.5856,-2.6075,-2.7725,-2.7805,-2.7902,-2.932,-3.0349,-3.1187,-3.1633,-3.2223,-3.2851,0.0,-3.385,-3.4102,-3.4402,-3.4643,-3.4775,-3.4775,-3.4775,-3.4775,-3.4775,-3.4775,-3.4872,-3.503,-3.5271,-3.5572,-3.5824,-3.6397,-3.6864,-3.7174,-3.75,-3.7776,-3.8002,-3.8341,-3.8504,-3.8517,-3.8831,-3.8932,-3.8767,-3.8527,-3.8303,-3.8118,-3.8775,-3.9121,-3.9329,-4.0817,-4.1645,-4.2032,-4.2578,-4.2955,-4.329,-4.329,-4.329,-4.329,-4.329,-4.329,-4.329,-4.329,-4.329,-4.329,-4.329,-4.329,-4.329,-4.329,-4.329,-4.329,-4.329,-4.329,-4.329,-4.329,-4.329,-4.329,-4.329,-4.329,-4.329,-4.329,-4.329,-4.329,-4.329,-4.329,-4.311,-4.2596,-4.2746,-4.2925,-4.2925,-4.3125,-4.3185,-4.2955,-4.2925,-4.2821,-4.2536,-4.2521,-4.2357,-4.2006,-4.1991,-4.1826,-4.1437,-4.1115,-4.11,-4.1388,-4.1551,-4.1984,-4.2742,-4.3113,-4.3687,-4.4452,-4.4452,-4.4655,-2.3967,0.0,0.0,-2.6863,-2.7667,-2.8145,-2.8393,-2.8664,-2.9096,-2.9945,-3.0949,-3.1753,-3.191,-3.2659,-3.3452,-3.391,-3.4114,-3.4342,-3.4727,-3.4775,-3.4775,-3.4775,-3.4775,-3.4775,-3.4775,-3.4884,-3.4981,-3.5175,-3.5524,-3.5812,-3.5968,-3.6753,-3.7249,-3.7412,-3.7952,-3.8316,-3.8467,-3.8881,-3.9094,-3.9158,-3.9496,-3.9637,-3.95,-3.9498,-3.9105,-3.8462,-3.9447,-3.9758,-3.9724,-4.1589,-4.2374,-4.2415,-4.3036,-4.329,-4.329,-4.329,-4.329,-4.329,-4.329,-4.329,-4.329,-4.329,-4.329,-4.329,-4.329,-4.329,-4.329,-4.329,-4.329,-4.329,-4.329,-4.329,-4.329,-4.329,-4.329,-4.329,-4.329,-4.329,-4.329,-4.329,-4.329,-4.329,-4.329,-4.329,-4.329,-4.329,-4.329,-4.329,-4.329,-4.329,-4.329,-4.329,-4.329,-4.329,-4.329,-4.329,-4.3135,-4.2671,-4.2626,-4.2417,-4.1938,-4.1743,-4.1692,-4.1692,-4.1955,-4.2421,-4.298,-4.3476,-4.4125,-4.4854,-4.5097,-4.5389,0.0,0.0,-2.5862,-2.7024,-2.8681,-2.9996,-3.002,-3.0458,-3.0831,-3.0855,-3.1332,-3.1874,-3.237,-3.2923,-3.3452,-3.391,-3.4426,-3.4763,-3.4775,-3.4775,-3.4775,-3.4775,-3.4775,-3.4775,0.0,-3.503,-3.5175,-3.5223,-3.5668,-3.5968,-3.6015,-3.6753,-3.7425,-3.7965,-3.8542,-3.9094,-3.9634,-3.9659,-3.9672,-3.9672,-3.9685,-3.9826,-4.0083,-4.0002,-3.9421,-3.8522,-4.0556,-4.1092,-4.0689,-4.2522,-4.325,-4.325,-4.329,-4.329,-4.329,-4.329,-4.329,-4.329,-4.329,-4.329,-4.329,-4.329,-4.329,-4.329,-4.329,-4.329,-4.329,-4.329,-4.329,-4.329,-4.329,-4.329,-4.329,-4.329,-4.329,-4.329,-4.329,-4.329,-4.329,-4.329,-4.329,-4.329,-4.329,-4.329,-4.329,-4.329,-4.329,-4.329,-4.329,-4.329,-4.329,-4.329,-4.329,-4.329,-4.329,-4.329,-4.329,-4.326,-4.326,-4.326,-4.323,-4.2671,-4.2366,-4.2366,-4.1737,-4.1445,-4.146,-4.1483,-4.1827,-4.2515,-4.3282,-4.4407,-2.4183,0.0,-2.7214,-2.9194,-3.0168,-3.0699,-3.1103,-3.1308,-3.144,-3.144,-3.1452,-3.1543,-3.1913,-3.2234,-3.2727,-3.3406,-3.397,-3.4378,-3.4727,-3.4775,-3.4775,-3.4775,-3.4775,0.0,0.0,0.0,0.0,-3.5464,-3.5812,-3.6212,-3.6753,-3.7389,-3.799,-3.8567,-3.912,-3.9509,-3.9697,-3.9697,-3.9697,-3.9697,-4.0044,-4.03,-4.0377,-4.0301,-4.0233,-4.0161,-4.1121,-4.151,-4.163,-4.282,-4.329,-4.329,-4.329,-4.329,-4.329,-4.329,-4.329,-4.329,-4.329,-4.329,-4.329,-4.329,-4.329,-4.329,-4.329,-4.329,-4.329,-4.329,-4.329,-4.329,-4.329,-4.329,-4.329,-4.329,-4.329,-4.329,-4.329,-4.329,-4.329,-4.329,-4.329,-4.329,-4.329,-4.329,-4.329,-4.329,-4.329,-4.329,-4.329,-4.329,-4.329,-4.329,-4.329,-4.329,-4.329,-4.329,-4.329,-4.329,-4.329,-4.329,-4.329,-4.3135,-4.3015,-4.3015,-4.2791,-4.2928,-4.3449,-4.3449,-4.3833,-4.459,-4.4894,-4.5502,-2.5796,-2.7331,-2.8627,-3.0438,-3.1055,-3.1296,-3.1633,-3.1705,-3.1705,-3.1705,-3.1185,-3.0894,-3.1348,-3.1484,-3.1729,-3.2246,-3.3037,-3.3731,-3.4067,-3.4282,-3.451,-3.4763,-3.4775,-3.4823,0.0,0.0,0.0,-3.5572,-3.5955,-3.6466,-3.7149,-3.7713,-3.8278,-3.8906,-3.9408,-3.9697,-3.9697,-3.9697,-3.9697,-3.9697,-4.0249,-4.0504,-4.0491,-4.0657,-4.0751,-4.0844,-4.1508,-4.1778,-4.1892,-4.2883,-4.329,-4.329,-4.329,-4.329,-4.329,-4.329,-4.329,-4.329,-4.329,-4.329,-4.329,-4.329,-4.329,-4.329,-4.329,-4.329,-4.329,-4.329,-4.329,-4.329,-4.329,-4.329,-4.329,-4.329,-4.329,-4.329,-4.329,-4.329,-4.329,-4.329,-4.329,-4.329,-4.329,-4.329,-4.329,-4.329,-4.329,-4.329,-4.329,-4.329,-4.329,-4.329,-4.329,-4.329,-4.329,-4.329,-4.329,-4.329,-4.329,-4.329,-4.329,-4.329,-4.329,-4.329,-4.329,-4.3551,-4.4066,-4.4066,-4.4335,-4.4849,-4.5147,-4.5536,-2.6358,-2.8175,-3.003,-3.074,-3.1332,-3.1705,-3.1705,-3.1681,-3.1657,-3.1597,-3.057,-2.9887,0.0,0.0,-3.0513,-3.0553,-3.1862,-3.2886,-3.2946,-3.3375,-3.3983,0.0,0.0,0.0,0.0,0.0,0.0,-3.5657,0.0,-3.6694,-3.7199,-3.7751,-3.8316,-3.8944,-3.9421,-3.9697,-3.9697,-3.9697,-3.9697,-3.9697,-4.0249,-4.0504,-4.0504,-4.106,-4.1034,-4.0614,-4.1828,-4.2104,-4.1777,-4.2887,-4.3349,-4.3349,-4.3305,-4.329,-4.329,-4.329,-4.329,-4.329,-4.329,-4.329,-4.329,-4.329,-4.329,-4.329,-4.329,-4.329,-4.329,-4.329,-4.329,-4.329,-4.329,-4.329,-4.325,-4.3305,-4.329,-4.329,-4.329,-4.329,-4.329,-4.329,-4.329,-4.329,-4.329,-4.329,-4.329,-4.329,-4.329,-4.329,-4.329,-4.329,-4.329,-4.329,-4.329,-4.329,-4.329,-4.329,-4.329,-4.329,-4.329,-4.329,-4.329,-4.329,-4.329,-4.329,-4.329,-4.329,-4.329,-4.329,-4.329,-4.3329,-4.4066,-4.4472,-2.8474,-2.9881,-3.0752,-3.1336,-3.1609,-3.1705,-3.1705,-3.1404,-3.0843,-2.9881,-2.8673,-2.7786,0.0,0.0,0.0,-3.0043,-3.1548,0.0,-3.3635,-3.3851,0.0,-3.5005,0.0,-3.5223,-3.5476,-3.5716,0.0,0.0,-3.6828,-3.7211,-3.7764,-3.8341,-3.8906,-3.9471,-3.9622,-3.9697,-3.9697,-3.9697,-3.9697,-3.9697,-4.0249,-4.0504,-4.0504,-4.106,-4.1732,-4.2587,-4.2897,-4.351,-4.4337,-4.4113,-4.4062,-4.4018,-4.3484,-4.329,-4.329,-4.329,-4.329,-4.329,-4.329,-4.329,-4.329,-4.329,-4.329,-4.329,-4.329,-4.329,-4.329,-4.329,-4.321,-4.3115,-4.325,-4.309,-4.293,-4.321,-4.321,-4.3115,-4.325,-4.329,-4.329,-4.329,-4.329,-4.329,-4.329,-4.329,-4.329,-4.329,-4.329,-4.329,-4.329,-4.329,-4.329,-4.329,-4.329,-4.329,-4.329,-4.329,-4.329,-4.329,-4.329,-4.329,-4.329,-4.329,-4.329,-4.329,-4.329,-4.329,-4.329,-4.329,-4.329,-4.329,-4.3512,-4.3927,-2.9628,-3.0493,-3.0782,-3.1488,-3.1705,-3.1541,-3.0985,-3.0649,-3.0031,-2.8576,-2.7325,0.0,-2.6362,0.0,0.0,0.0,0.0,0.0,-3.3002,-3.3349,-3.3875,0.0,-3.5126,0.0,-3.5572,-3.607,-3.6523,0.0,-3.7125,-3.7538,-3.8341,-3.8693,-3.9132,-3.9672,-3.9697,-3.9697,-3.9697,-3.9697,-3.9736,-3.989,-4.03,-4.0555,-4.0694,-4.111,-4.1928,-4.3081,0.0,-4.3954,-4.5058,-4.484,-4.4571,-4.4272,-4.3873,-4.3544,-4.329,-4.329,-4.329,-4.329,-4.329,-4.329,-4.329,-4.329,-4.329,-4.329,-4.329,-4.325,-4.3155,-4.3155,-4.3036,-4.2875,-4.301,-4.285,-4.2769,-4.3076,-4.3076,-4.3076,-4.325,-4.329,-4.329,-4.329,-4.329,-4.329,-4.329,-4.329,-4.329,-4.329,-4.329,-4.329,-4.329,-4.329,-4.329,-4.329,-4.329,-4.329,-4.329,-4.329,-4.329,-4.329,-4.329,-4.329,-4.329,-4.329,-4.329,-4.329,-4.329,-4.329,-4.329,-4.329,-4.329,-4.329,-4.329,-4.3551,-2.9875,-3.0384,-3.0396,-3.1282,-3.1569,-3.1276,-2.9995,-2.9624,-2.9088,-2.7323,0.0,-2.5416,-2.548,-2.5992,-2.6584,-2.7081,0.0,-3.0874,-3.2077,-3.2671,-3.3445,-3.4751,-3.5126,-3.544,-3.5767,-3.6416,-3.6994,-3.74,-3.7412,-3.7839,-3.8869,-3.8994,-3.9195,-3.9685,-3.9697,-3.9697,-3.9697,-3.9697,-3.9839,-4.0032,-4.0338,-4.0593,-4.0782,-4.1161,-4.1918,-4.2944,0.0,0.0,-4.5142,-4.5342,-4.5095,-4.4571,-4.4392,-4.3932,-4.3384,-4.3319,-4.325,-4.321,-4.325,-4.325,-4.321,-4.325,-4.325,-4.325,-4.321,-4.3076,-4.2955,-4.2955,-4.2809,-4.2648,-4.2688,-4.2648,-4.2688,-4.2915,-4.2955,-4.2996,-4.317,-4.325,-4.325,-4.329,-4.329,-4.329,-4.329,-4.329,-4.329,-4.329,-4.329,-4.329,-4.329,-4.329,-4.329,-4.329,-4.329,-4.329,-4.329,-4.329,-4.329,-4.329,-4.329,-4.329,-4.329,-4.329,-4.329,-4.329,-4.329,-4.329,-4.329,-4.329,-4.329,-4.329,-4.329,-4.329,-2.8709,-2.9636,-3.026,-3.0407,-3.0729,-3.0692,-2.9416,-2.879,0.0,0.0,-2.4413,-2.406,-2.3366,-2.4421,-2.585,-2.7334,0.0,0.0,0.0,0.0,-3.3973,0.0,0.0,0.0,0.0,0.0,0.0,0.0,0.0,-3.8705,-3.8906,-3.9308,-3.9597,-3.9697,-3.9697,-3.9697,-3.9697,-3.9697,-3.9749,-3.98,-4.0249,-4.0389,-4.0275,-4.0959,-4.2186,-4.374,-4.3999,0.0,-4.6854,-4.6326,-4.6082,-4.5816,-4.4751,-4.4135,-4.3849,-4.3459,-4.309,-4.2809,-4.2996,-4.2955,-4.285,-4.2996,-4.3036,-4.3036,-4.285,-4.2769,-4.2769,-4.2769,-4.2622,-4.2514,-4.2662,-4.2474,-4.2284,-4.2648,-4.2769,-4.2769,-4.2809,-4.2915,-4.3115,-4.325,-4.329,-4.329,-4.329,-4.329,-4.329,-4.329,-4.329,-4.329,-4.329,-4.329,-4.329,-4.329,-4.329,-4.329,-4.329,-4.329,-4.329,-4.329,-4.329,-4.329,-4.329,-4.329,-4.329,-4.329,-4.329,-4.329,-4.329,-4.329,-4.329,-4.329,-4.329,-4.329,-2.8188,-2.868,-2.8912,-2.9932,-3.0159,-2.9738,-2.839,0.0,0.0,0.0,-2.3323,-2.3295,-2.2335,0.0,0.0,0.0,0.0,0.0,0.0,0.0,0.0,0.0,0.0,0.0,0.0,0.0,0.0,0.0,0.0,-3.9295,-3.9295,-3.9546,-3.9697,-3.9697,-3.9697,-3.9697,-3.9697,-3.9697,-3.9788,-3.9929,-4.0185,-4.0287,-4.0338,-4.0707,-4.1927,-4.3693,-4.3848,0.0,-4.6931,-4.6576,-4.6235,-4.5864,-4.5226,-4.4531,-4.3826,-4.3582,-4.316,-4.2729,-4.2795,-4.2769,-4.2688,-4.2688,-4.2769,-4.285,-4.2729,-4.2622,-4.2541,-4.2541,-4.2392,-4.2284,-4.2351,-4.2242,-4.2175,-4.2459,-4.2607,-4.2729,-4.2835,-4.2915,-4.3076,-4.325,-4.329,-4.329,-4.329,-4.329,-4.329,-4.329,-4.329,-4.329,-4.329,-4.329,-4.329,-4.329,-4.329,-4.329,-4.329,-4.329,-4.329,-4.329,-4.329,-4.329,-4.329,-4.329,-4.329,-4.329,-4.329,-4.329,-4.329,-4.329,-4.329,-4.329,-4.329,-4.329,-2.715,-2.7357,-2.7357,-2.9116,-2.9337,-2.8703,-2.7183,-2.683,0.0,0.0,-2.2554,-2.2768,-2.1894,0.0,0.0,0.0,0.0,0.0,0.0,0.0,0.0,0.0,0.0,0.0,0.0,0.0,0.0,0.0,0.0,0.0,-3.9697,-3.9697,-3.9697,-3.9697,-3.9697,-3.9697,-3.9697,-3.9697,-3.9788,-4.0032,-4.0083,-4.0185,-4.0351,-4.0453,-4.1581,-4.3409,-4.3504,0.0,0.0,-4.6594,-4.63,-4.5784,-4.5637,-4.4886,-4.3814,-4.3708,-4.3237,-4.2581,-4.2622,-4.2622,-4.2541,-4.2392,-4.2459,-4.2622,-4.2581,-4.2474,-4.2325,-4.2325,-4.2201,-4.2092,-4.2092,-4.2092,-4.2133,-4.2351,-4.2514,-4.2662,-4.2875,-4.2955,-4.2996,-4.321,-4.325,-4.329,-4.329,-4.329,-4.329,-4.329,-4.329,-4.329,-4.329,-4.329,-4.329,-4.329,-4.329,-4.329,-4.329,-4.329,-4.329,-4.329,-4.329,-4.329,-4.329,-4.329,-4.329,-4.329,-4.329,-4.329,-4.329,-4.329,-4.329,-4.329,-4.329,-4.329,-2.4744,-2.5376,-2.6274,-2.7303,-2.7867,-2.7706,-2.6092,0.0,0.0,-2.2069,-2.2016,-2.2333,-2.1938,0.0,0.0,0.0,0.0,-2.7828,0.0,0.0,0.0,0.0,0.0,0.0,0.0,0.0,0.0,0.0,0.0,0.0,-3.9697,-3.9697,-3.9697,-3.9697,-3.9697,-3.9697,-3.9697,-3.9697,-3.9697,-3.9736,-3.9981,-3.9981,-3.98,-4.03,-4.1432,-4.317,-4.3409,0.0,0.0,-4.6594,-4.6565,-4.6447,-4.5857,-4.5065,-4.419,-4.3828,-4.3045,-4.2175,-4.2351,-4.2325,-4.2133,-4.2133,-4.2242,-4.2392,-4.2201,-4.2133,-4.2133,-4.2133,-4.2092,-4.2092,-4.2092,-4.2092,-4.2133,-4.2351,-4.2284,-4.2242,-4.2648,-4.2729,-4.2809,-4.2996,-4.317,-4.329,-4.329,-4.329,-4.329,-4.329,-4.329,-4.329,-4.329,-4.329,-4.329,-4.329,-4.329,-4.329,-4.329,-4.329,-4.329,-4.329,-4.329,-4.329,-4.329,-4.329,-4.329,-4.329,-4.329,-4.329,-4.329,-4.329,-4.329,-4.329,-4.329,-4.329,-2.4225,-2.468,-2.5219,-2.6193,-2.6075,-2.5563,-2.4948,0.0,-2.3667,-2.1788,-2.1935,-2.2306,-2.1957,0.0,0.0,0.0,0.0,0.0,0.0,0.0,0.0,0.0,0.0,0.0,0.0,0.0,0.0,0.0,0.0,0.0,-3.9672,-3.9697,-3.9697,-3.9697,-3.9697,-3.9697,-3.9697,-3.9697,-3.9697,-3.9697,-3.9788,-3.9788,-3.9697,-3.9903,-4.1108,-4.2909,-4.3006,0.0,0.0,-4.6194,-4.6194,-4.6121,-4.542,-4.4734,-4.4036,-4.3507,-4.2782,-4.2092,-4.2216,-4.2175,-4.2092,-4.2092,-4.2133,-4.2201,-4.2133,-4.2092,-4.2092,-4.2092,-4.2092,-4.2092,-4.2092,-4.2092,-4.2133,-4.2216,-4.2175,-4.2175,-4.2474,-4.2607,-4.2769,-4.2955,-4.3155,-4.329,-4.329,-4.329,-4.329,-4.329,-4.329,-4.329,-4.329,-4.329,-4.329,-4.329,-4.329,-4.329,-4.329,-4.329,-4.329,-4.329,-4.329,-4.329,-4.329,-4.329,-4.329,-4.329,-4.329,-4.329,-4.329,-4.329,-4.329,-4.329,-4.329,-4.329,-2.3489,-2.39,-2.426,-2.5218,-2.473,-2.3929,0.0,0.0,-2.2749,-2.1384,-2.1722,-2.2194,-2.209,0.0,0.0,0.0,0.0,-2.5699,0.0,0.0,0.0,0.0,0.0,0.0,0.0,0.0,0.0,0.0,0.0,0.0,0.0,-3.9697,-3.9697,-3.9697,-3.9697,-3.9697,-3.9697,-3.9697,-3.9697,-3.9697,-3.9697,-3.9697,-3.9697,-3.9697,-4.0857,-4.2792,0.0,0.0,0.0,-4.5677,-4.559,-4.5532,-4.4879,-4.424,-4.3645,-4.3166,-4.2615,-4.2092,-4.2092,-4.2092,-4.2092,-4.2092,-4.2092,-4.2092,-4.2092,-4.2092,-4.2092,-4.2092,-4.2092,-4.2092,-4.2092,-4.2092,-4.2092,-4.2092,-4.2092,-4.2133,-4.2284,-4.2474,-4.2648,-4.2875,-4.3076,-4.325,-4.329,-4.329,-4.329,-4.329,-4.329,-4.329,-4.329,-4.329,-4.329,-4.329,-4.329,-4.329,-4.329,-4.329,-4.329,-4.329,-4.329,-4.329,-4.329,-4.329,-4.329,-4.329,-4.329,-4.329,-4.329,-4.329,-4.329,-4.329,-4.329,-4.329,-2.2009,-2.2669,-2.3319,-2.4294,-2.3988,-2.334,0.0,0.0,-2.2335,-2.073,-2.121,-2.1999,-2.2328,-2.2278,0.0,0.0,0.0,0.0,0.0,0.0,0.0,0.0,0.0,0.0,0.0,0.0,0.0,0.0,0.0,0.0,0.0,-3.9697,-3.9697,-3.9697,-3.9697,-3.9697,-3.9697,-3.9697,-3.9697,-3.9697,-3.9697,-3.9697,-3.9697,-3.9697,-4.0857,0.0,0.0,0.0,0.0,-4.5169,-4.4893,-4.4835,-4.424,-4.3587,-4.3007,-4.2992,-4.2615,-4.2092,-4.2092,-4.2092,-4.2092,-4.2092,-4.2092,-4.2092,-4.2092,-4.2092,-4.2092,-4.2092,-4.2092,-4.2092,-4.2092,-4.2092,-4.2092,-4.2092,-4.2092,-4.2092,-4.2092,-4.2242,-4.2474,-4.2648,-4.2875,-4.3076,-4.325,-4.329,-4.329,-4.329,-4.329,-4.329,-4.329,-4.329,-4.329,-4.329,-4.329,-4.329,-4.329,-4.329,-4.329,-4.329,-4.329,-4.329,-4.329,-4.329,-4.329,-4.329,-4.329,-4.329,-4.329,-4.329,-4.329,-4.329,-4.329,-4.329,-2.0583,-2.1046,-2.1418,-2.1435,-2.0956,-2.0459,-2.041,0.0,-2.0751,-2.0564,-2.1262,-2.1956,-2.2216,-2.2216,0.0,0.0,0.0,0.0,0.0,0.0,0.0,0.0,0.0,0.0,0.0,0.0,0.0,0.0,0.0,0.0,0.0,-3.9484,-3.9697,-3.9697,-3.9697,-3.9509,-3.9132,-3.9132,-3.8931,-3.8542,-3.8542,-3.8542,-3.8542,-3.8542,0.0,0.0,0.0,0.0,0.0,-4.4356,-4.4269,-4.4211,-4.3558,-4.3181,-4.2948,-4.2528,-4.2266,-4.2092,-4.2092,-4.2092,-4.2092,-4.2092,-4.2092,-4.2092,-4.2092,-4.2092,-4.2092,-4.2092,-4.2092,-4.2092,-4.2092,-4.2092,-4.2092,-4.2092,-4.2092,-4.2092,-4.2092,-4.2242,-4.2433,-4.2459,-4.2769,-4.3036,-4.3076,-4.321,-4.329,-4.329,-4.329,-4.329,-4.329,-4.329,-4.329,-4.329,-4.329,-4.329,-4.329,-4.329,-4.329,-4.329,-4.329,-4.329,-4.329,-4.329,-4.329,-4.329,-4.329,-4.329,-4.329,-4.329,-4.329,-4.329,-4.329,-4.329,0.0,-2.0008,-2.0303,-2.0068,-1.9552,0.0,0.0,0.0,-2.0003,-2.0107,-2.106,-2.1987,-2.2216,-2.2278,0.0,0.0,0.0,0.0,0.0,0.0,0.0,0.0,0.0,0.0,0.0,0.0,0.0,0.0,0.0,0.0,0.0,-3.8868,-3.9057,-3.9057,-3.927,-3.912,-3.8555,-3.8542,-3.8366,-3.8002,-3.8002,-3.8002,-3.8002,-3.8002,0.0,0.0,0.0,0.0,0.0,-4.3574,-4.3616,-4.3544,-4.2905,-4.2658,-4.26,-4.2237,-4.2092,-4.2092,-4.2092,-4.2092,-4.2092,-4.2092,-4.2092,-4.2092,-4.2092,-4.2092,-4.2092,-4.2092,-4.2092,-4.2092,-4.2092,-4.2092,-4.2092,-4.2092,-4.2092,-4.2092,-4.2092,-4.2216,-4.2325,-4.2392,-4.2648,-4.2915,-4.2996,-4.3155,-4.329,-4.329,-4.329,-4.329,-4.329,-4.329,-4.329,-4.329,-4.329,-4.329,-4.329,-4.329,-4.329,-4.329,-4.329,-4.329,-4.329,-4.329,-4.329,-4.329,-4.329,-4.329,-4.329,-4.329,-4.329,-4.329,-4.329,-4.329,0.0,-1.9372,0.0,0.0,0.0,0.0,0.0,-1.9263,0.0,-1.9416,-2.0709,-2.2018,-2.2359,-2.242,0.0,0.0,0.0,0.0,0.0,0.0,0.0,0.0,0.0,0.0,0.0,0.0,0.0,0.0,0.0,0.0,0.0,-3.799,-3.799,-3.7952,-3.8467,-3.8492,-3.7952,-3.7952,-3.7927,-3.7889,-3.7889,-3.7889,-3.7889,-3.7889,0.0,0.0,0.0,0.0,0.0,-4.2768,-4.2934,-4.2876,-4.231,-4.2092,-4.2092,-4.2092,-4.2092,-4.2092,-4.2092,-4.2092,-4.2092,-4.2092,-4.2092,-4.2092,-4.2092,-4.2092,-4.2092,-4.2092,-4.2092,-4.2092,-4.2092,-4.2092,-4.2092,-4.2092,-4.2092,-4.2092,-4.2092,-4.2092,-4.2175,-4.2366,-4.2541,-4.2729,-4.2941,-4.317,-4.329,-4.329,-4.329,-4.329,-4.329,-4.329,-4.329,-4.329,-4.329,-4.329,-4.329,-4.329,-4.329,-4.329,-4.329,-4.329,-4.329,-4.329,-4.329,-4.329,-4.329,-4.329,-4.329,-4.329,-4.329,-4.329,-4.329,-4.329,-1.7346,0.0,-1.8026,-1.7721,-1.751,-1.7383,0.0,0.0,-1.9603,-1.9464,-2.0869,-2.2216,-2.2555,-2.2616,0.0,0.0,0.0,0.0,0.0,0.0,0.0,0.0,0.0,0.0,0.0,0.0,0.0,0.0,0.0,0.0,0.0,-3.7776,-3.7814,-3.7387,-3.7513,-3.7513,-3.7374,-3.7374,-3.7161,-3.6795,-3.6795,-3.6795,-3.6795,-3.6795,0.0,0.0,0.0,0.0,-4.1111,-4.1948,-4.231,-4.2295,-4.215,-4.2092,-4.2092,-4.2092,-4.2092,-4.2092,-4.2092,-4.2092,-4.2092,-4.2092,-4.2092,-4.2092,-4.2092,-4.2092,-4.2092,-4.2092,-4.2092,-4.2092,-4.2092,-4.2092,-4.2092,-4.2092,-4.2092,-4.2092,-4.2092,-4.2092,-4.2092,-4.2175,-4.231,-4.2541,-4.2729,-4.2915,-4.3115,-4.329,-4.329,-4.329,-4.329,-4.329,-4.329,-4.329,-4.329,-4.329,-4.329,-4.329,-4.329,-4.329,-4.329,-4.329,-4.329,-4.329,-4.329,-4.329,-4.329,-4.329,-4.329,-4.329,-4.329,-4.329,-4.329,-4.329,-1.6943,-1.7064,-1.7174,-1.6963,-1.6908,-1.6908,-1.6908,0.0,0.0,0.0,0.0,0.0,0.0,0.0,0.0,0.0,0.0,0.0,0.0,0.0,0.0,0.0,0.0,0.0,0.0,0.0,0.0,0.0,0.0,0.0,0.0,-3.7098,-3.7111,-3.6857,-3.6857,-3.6857,-3.6857,-3.6857,-3.6707,-3.6405,-3.6405,-3.6405,-3.6405,-3.6405,-3.6675,0.0,0.0,0.0,-4.0029,-4.1029,-4.1675,-4.2092,-4.2092,-4.2092,-4.2092,-4.2092,-4.2092,-4.2092,-4.2092,-4.2092,-4.2092,-4.2092,-4.2092,-4.2092,-4.2092,-4.2092,-4.2092,-4.2092,-4.2092,-4.2092,-4.2092,-4.2092,-4.2092,-4.2092,-4.2092,-4.2092,-4.2092,-4.2092,-4.2092,-4.2092,-4.2242,-4.2433,-4.2541,-4.2809,-4.3036,-4.3155,-4.325,-4.329,-4.329,-4.329,-4.329,-4.329,-4.329,-4.329,-4.329,-4.329,-4.329,-4.329,-4.329,-4.329,-4.329,-4.329,-4.329,-4.329,-4.329,-4.329,-4.329,-4.329,-4.329,-4.329,-4.329,-4.329,-1.7127,-1.7173,-1.7191,-1.7027,-1.7,-1.7026,-1.713,0.0,0.0,0.0,0.0,0.0,0.0,-2.4139,0.0,0.0,0.0,0.0,0.0,0.0,0.0,0.0,0.0,0.0,0.0,0.0,0.0,0.0,0.0,0.0,0.0,-3.6405,-3.6405,-3.6405,-3.6405,-3.6405,-3.6405,-3.6405,-3.6405,-3.6405,-3.6405,-3.6405,-3.6405,-3.6405,-3.6405,0.0,0.0,0.0,-3.9285,-4.0202,-4.1198,-4.2092,-4.2092,-4.2092,-4.2092,-4.2092,-4.2092,-4.2092,-4.2092,-4.2092,-4.2092,-4.2092,-4.2092,-4.2092,-4.2092,-4.2092,-4.2092,-4.2092,-4.2092,-4.2092,-4.2092,-4.2092,-4.2092,-4.2092,-4.2092,-4.2092,-4.2092,-4.2092,-4.2092,-4.2092,-4.2242,-4.2351,-4.2392,-4.2688,-4.2955,-4.2996,-4.3155,-4.329,-4.329,-4.329,-4.329,-4.329,-4.329,-4.329,-4.329,-4.329,-4.329,-4.329,-4.329,-4.329,-4.329,-4.329,-4.329,-4.329,-4.329,-4.329,-4.329,-4.329,-4.329,-4.329,-4.329,-4.329,-1.7972,-1.8332,-1.8536,-1.7614,-1.7403,-1.7582,-1.8184,0.0,0.0,0.0,0.0,0.0,0.0,0.0,0.0,0.0,0.0,0.0,0.0,0.0,0.0,0.0,0.0,0.0,0.0,0.0,0.0,0.0,0.0,0.0,0.0,-3.6405,-3.6405,-3.6405,-3.6405,-3.6405,-3.6405,-3.6405,-3.6405,-3.6405,-3.6405,-3.6405,-3.6405,-3.6405,-3.6405,0.0,0.0,-3.8328,-3.9285,-4.0202,-4.1198,-4.2092,-4.2092,-4.2092,-4.2092,-4.2092,-4.2092,-4.2092,-4.2092,-4.2092,-4.2092,-4.2092,-4.2092,-4.2092,-4.2092,-4.2092,-4.2092,-4.2092,-4.2092,-4.2092,-4.2092,-4.2092,-4.2092,-4.2092,-4.2092,-4.2092,-4.2092,-4.2092,-4.2092,-4.2092,-4.2133,-4.2216,-4.2351,-4.2581,-4.2795,-4.2981,-4.3155,-4.329,-4.329,-4.329,-4.329,-4.329,-4.329,-4.329,-4.329,-4.329,-4.329,-4.329,-4.329,-4.329,-4.329,-4.329,-4.329,-4.329,-4.329,-4.329,-4.329,-4.329,-4.329,-4.329,-4.329,-4.329,-1.7861,-1.8156,-1.8545,-1.8416,-1.8611,-1.9211,-2.0512,-2.0797,0.0,0.0,0.0,0.0,0.0,0.0,0.0,0.0,0.0,0.0,0.0,0.0,0.0,0.0,0.0,0.0,0.0,0.0,0.0,0.0,0.0,0.0,0.0,0.0,-3.6405,-3.6405,-3.6405,-3.6405,-3.6405,-3.6405,-3.6405,-3.6405,-3.6405,-3.6405,-3.6405,-3.6405,-3.6405,-3.6405,0.0,-3.7579,-3.8464,-3.8899,-3.9664,-4.0603,-4.1085,-4.1296,-4.1353,-4.1912,-4.2092,-4.2092,-4.2092,-4.2092,-4.2092,-4.2092,-4.2092,-4.2092,-4.2092,-4.2092,-4.2092,-4.2092,-4.2092,-4.2092,-4.2092,-4.2092,-4.2092,-4.2092,-4.2092,-4.2092,-4.2092,-4.2092,-4.2092,-4.2092,-4.2092,-4.2133,-4.2201,-4.25,-4.2729,-4.2835,-4.309,-4.329,-4.329,-4.329,-4.329,-4.329,-4.329,-4.329,-4.329,-4.329,-4.329,-4.329,-4.329,-4.329,-4.329,-4.329,-4.329,-4.329,-4.329,-4.329,-4.329,-4.329,-4.329,-4.329,-4.329,-4.329,-1.7889,-1.8119,-1.8638,-1.926,0.0,-2.012,-2.23,-2.2482,0.0,0.0,0.0,0.0,0.0,0.0,0.0,0.0,0.0,0.0,0.0,0.0,0.0,0.0,0.0,0.0,0.0,0.0,0.0,0.0,0.0,0.0,0.0,0.0,-3.6405,-3.6405,-3.6405,-3.6405,-3.6405,-3.6405,-3.6405,-3.6405,-3.6405,-3.6405,-3.6405,-3.6405,-3.6405,-3.6405,-3.6405,-3.6956,-3.7808,-3.7808,-3.8328,-3.9285,-3.9986,-4.0418,-4.0731,-4.1717,-4.2092,-4.2092,-4.2092,-4.2092,-4.2092,-4.2092,-4.2092,-4.2092,-4.2092,-4.2092,-4.2092,-4.2092,-4.2092,-4.2092,-4.2092,-4.2092,-4.2092,-4.2092,-4.2092,-4.2092,-4.2092,-4.2092,-4.2092,-4.2092,-4.2092,-4.2092,-4.2175,-4.2459,-4.2729,-4.2769,-4.309,-4.329,-4.329,-4.329,-4.329,-4.329,-4.329,-4.329,-4.329,-4.329,-4.329,-4.329,-4.329,-4.329,-4.329,-4.329,-4.329,-4.329,-4.329,-4.329,-4.329,-4.329,-4.329,-4.329,-4.329,-4.329,-1.8699,-1.9071,-1.9713,-2.0197,-1.9257,0.0,-2.2269,-2.1468,0.0,-2.4413,0.0,0.0,0.0,0.0,0.0,0.0,0.0,0.0,0.0,0.0,0.0,0.0,0.0,0.0,0.0,0.0,0.0,0.0,0.0,0.0,0.0,0.0,0.0,-3.6405,-3.6405,-3.6405,-3.6405,-3.6405,-3.6405,-3.6405,-3.6405,-3.6405,-3.6405,-3.6405,-3.6405,-3.6405,-3.6405,-3.6956,-3.7808,-3.7808,-3.8328,-3.921,-3.9285,-3.9812,-4.0731,-4.1717,-4.2092,-4.2092,-4.2092,-4.2092,-4.2092,-4.2092,-4.2092,-4.2092,-4.2092,-4.2092,-4.2092,-4.2092,-4.2092,-4.2092,-4.2092,-4.2092,-4.2092,-4.2092,-4.2092,-4.2092,-4.2092,-4.2092,-4.2092,-4.2092,-4.2092,-4.2175,-4.2366,-4.2541,-4.2769,-4.2955,-4.3155,-4.329,-4.329,-4.329,-4.329,-4.329,-4.329,-4.329,-4.329,-4.329,-4.329,-4.329,-4.329,-4.329,-4.329,-4.329,-4.329,-4.329,-4.329,-4.329,-4.329,-4.329,-4.329,-4.329,-4.329,-4.329,-1.8341,-1.8788,-1.942,-1.9257,-1.9165,0.0,0.0,-2.3678,-2.3281,-2.5018,-2.6453,0.0,0.0,0.0,0.0,0.0,0.0,0.0,0.0,0.0,0.0,0.0,0.0,0.0,0.0,0.0,0.0,0.0,0.0,0.0,0.0,0.0,0.0,-3.6405,-3.6405,-3.6405,-3.6405,-3.6405,-3.6405,-3.6405,-3.6405,-3.6405,-3.6405,-3.6405,-3.6405,-3.6405,-3.6405,-3.6581,-3.6909,-3.6734,-3.6989,-3.7566,-3.8765,-3.9768,-4.0731,-4.1717,-4.2092,-4.2092,-4.2092,-4.2092,-4.2092,-4.2092,-4.2092,-4.2092,-4.2092,-4.2092,-4.2092,-4.2092,-4.2092,-4.2092,-4.2092,-4.2092,-4.2092,-4.2092,-4.2092,-4.2092,-4.2092,-4.2092,-4.2092,-4.2092,-4.2092,-4.2133,-4.2216,-4.2459,-4.2729,-4.2795,-4.309,-4.329,-4.329,-4.329,-4.329,-4.329,-4.329,-4.329,-4.329,-4.329,-4.329,-4.329,-4.329,-4.329,-4.329,-4.329,-4.329,-4.329,-4.329,-4.329,-4.329,-4.329,-4.329,-4.329,-4.329,-4.329,-1.8449,-1.8845,-1.9344,-1.9061,0.0,0.0,-2.4343,-2.4648,-2.4675,-2.6366,-2.8357,0.0,0.0,0.0,0.0,0.0,0.0,0.0,0.0,0.0,0.0,0.0,0.0,0.0,0.0,0.0,0.0,0.0,0.0,0.0,0.0,0.0,0.0,0.0,-3.6405,-3.6405,-3.6405,-3.6405,-3.6405,-3.6405,-3.6405,-3.6405,-3.6405,-3.6405,-3.637,-3.6275,-3.6275,-3.6228,-3.6133,-3.5955,-3.6051,-3.6452,-3.7997,-3.9064,-3.9826,-4.0816,-4.1184,-4.1184,-4.1184,-4.1184,-4.1184,-4.1184,-4.1184,-4.1241,-4.1535,-4.1633,-4.1675,-4.2009,-4.2092,-4.2092,-4.2092,-4.2092,-4.2092,-4.2092,-4.2092,-4.2092,-4.2092,-4.2092,-4.2092,-4.2092,-4.2092,-4.2133,-4.2175,-4.2433,-4.2662,-4.2769,-4.305,-4.325,-4.329,-4.329,-4.329,-4.329,-4.329,-4.329,-4.329,-4.329,-4.329,-4.329,-4.329,-4.329,-4.329,-4.329,-4.329,-4.329,-4.329,-4.329,-4.329,-4.329,-4.329,-4.329,-4.329,-4.329,-1.9355,-1.9504,-1.9736,0.0,0.0,0.0,-2.3609,-2.3772,-2.4476,-2.8742,0.0,-3.1005,-3.1017,0.0,0.0,0.0,0.0,0.0,0.0,0.0,0.0,0.0,0.0,0.0,0.0,0.0,0.0,0.0,0.0,0.0,0.0,0.0,0.0,0.0,-3.6405,-3.6405,-3.6405,-3.6405,-3.6405,-3.6405,-3.6405,-3.6405,-3.6405,-3.6405,-3.6228,-3.6015,-3.6015,-3.5872,-3.562,-3.562,-3.5764,-3.6098,-3.7023,-3.7566,-3.79,-3.8854,-3.921,-3.921,-3.921,-3.921,-3.921,-3.921,-3.921,-3.9373,-4.0332,-4.0603,-4.0831,-4.1814,-4.2092,-4.2092,-4.2092,-4.2092,-4.2092,-4.2092,-4.2092,-4.2092,-4.2092,-4.2092,-4.2092,-4.2092,-4.2092,-4.2175,-4.2351,-4.2392,-4.2541,-4.2955,-4.2981,-4.3076,-4.325,-4.329,-4.329,-4.329,-4.329,-4.329,-4.329,-4.329,-4.329,-4.329,-4.329,-4.329,-4.329,-4.329,-4.329,-4.329,-4.329,-4.329,-4.329,-4.329,-4.329,-4.329,-4.329,-4.329,-1.8211,-1.9143,0.0,-1.9184,0.0,0.0,0.0,-2.3892,0.0,0.0,0.0,-3.0601,-3.143,0.0,0.0,0.0,0.0,0.0,0.0,0.0,0.0,0.0,0.0,0.0,0.0,0.0,0.0,0.0,0.0,0.0,0.0,0.0,0.0,0.0,-3.6228,-3.6098,-3.6098,-3.5943,-3.5847,-3.5847,-3.5847,-3.5955,-3.6098,-3.6098,-3.5955,-3.5716,-3.5716,-3.5668,-3.562,-3.562,-3.5524,-3.556,-3.6871,-3.7461,-3.7645,-3.8751,-3.921,-3.921,-3.921,-3.921,-3.921,-3.921,-3.921,-3.9373,-4.0332,-4.0603,-4.0831,-4.1814,-4.2092,-4.2092,-4.2092,-4.2092,-4.2092,-4.2092,-4.2092,-4.2092,-4.2092,-4.2092,-4.2092,-4.2092,-4.2092,-4.2133,-4.2175,-4.2325,-4.2514,-4.2769,-4.2915,-4.3076,-4.325,-4.329,-4.329,-4.329,-4.329,-4.329,-4.329,-4.329,-4.329,-4.329,-4.329,-4.329,-4.329,-4.329,-4.329,-4.329,-4.329,-4.329,-4.329,-4.329,-4.329,-4.329,-4.329,-4.329,-1.9187,0.0,0.0,0.0,0.0,0.0,-2.5056,0.0,0.0,0.0,0.0,0.0,0.0,0.0,0.0,0.0,0.0,0.0,0.0,0.0,0.0,0.0,0.0,0.0,0.0,0.0,0.0,0.0,0.0,0.0,0.0,0.0,0.0,0.0,-3.5955,-3.5812,-3.5812,-3.5668,-3.562,-3.562,-3.562,-3.562,-3.5668,-3.5764,-3.5668,-3.5416,-3.532,-3.5271,-3.5271,-3.5271,-3.5271,-3.532,-3.6285,-3.6743,-3.693,-3.7782,-3.8102,-3.8102,-3.8102,-3.8102,-3.8102,-3.8102,-3.8102,-3.827,-3.9197,-3.9768,-4.0173,-4.0774,-4.1507,-4.2009,-4.1633,-4.1814,-4.2092,-4.2092,-4.2092,-4.2092,-4.2092,-4.2092,-4.2092,-4.2092,-4.2092,-4.2092,-4.2092,-4.2216,-4.2392,-4.2662,-4.2915,-4.3155,-4.329,-4.329,-4.329,-4.329,-4.329,-4.329,-4.329,-4.329,-4.329,-4.329,-4.329,-4.329,-4.329,-4.329,-4.329,-4.329,-4.329,-4.329,-4.329,-4.329,-4.329,-4.329,-4.329,-4.329,-2.1247,0.0,0.0,0.0,0.0,0.0,0.0,0.0,0.0,0.0,0.0,0.0,0.0,0.0,0.0,0.0,0.0,0.0,0.0,0.0,0.0,0.0,0.0,0.0,0.0,0.0,0.0,0.0,0.0,0.0,0.0,0.0,0.0,-3.562,-3.5572,-3.5572,-3.5572,-3.5524,-3.5524,0.0,-3.5524,-3.5416,-3.5175,-3.5416,-3.5428,-3.5126,-3.4932,-3.4775,-3.4775,-3.4775,-3.492,-3.5175,-3.5476,-3.5764,-3.6003,-3.6275,-3.6405,-3.6405,-3.6405,-3.6405,-3.6405,-3.6405,-3.6405,-3.6593,-3.7533,-3.8419,-3.9077,-3.9166,-4.0474,-4.1633,-4.0831,-4.1296,-4.2009,-4.2092,-4.2092,-4.2092,-4.2092,-4.2092,-4.2092,-4.2092,-4.2092,-4.2092,-4.2092,-4.2133,-4.2242,-4.2648,-4.305,-4.329,-4.329,-4.329,-4.329,-4.329,-4.329,-4.329,-4.329,-4.329,-4.329,-4.329,-4.329,-4.329,-4.329,-4.329,-4.329,-4.329,-4.329,-4.329,-4.329,-4.329,-4.329,-4.329,-4.329,-4.329,0.0,-2.0643,0.0,0.0,0.0,0.0,0.0,0.0,0.0,0.0,0.0,0.0,0.0,0.0,0.0,0.0,0.0,0.0,0.0,0.0,0.0,0.0,0.0,0.0,0.0,0.0,0.0,0.0,0.0,0.0,0.0,0.0,0.0,-3.562,-3.5416,-3.5271,-3.5271,-3.5078,-3.4981,0.0,-3.4981,-3.492,-3.4884,-3.5175,-3.5126,-3.4884,-3.4835,-3.4775,-3.4775,-3.4775,-3.4823,-3.492,-3.5416,-3.562,-3.5764,-3.6228,-3.6405,-3.6405,-3.6405,-3.6405,-3.6405,-3.6405,-3.6405,-3.6593,-3.7533,-3.7946,-3.8251,-3.8988,-3.9519,-3.9956,-4.0461,-4.0774,-4.1113,-4.1912,-4.2092,-4.2092,-4.2092,-4.2092,-4.2092,-4.2092,-4.2092,-4.2092,-4.2092,-4.2242,-4.2459,-4.2875,-4.313,-4.329,-4.329,-4.329,-4.329,-4.329,-4.329,-4.329,-4.329,-4.329,-4.329,-4.329,-4.329,-4.329,-4.329,-4.329,-4.329,-4.329,-4.329,-4.329,-4.329,-4.329,-4.329,-4.329,-4.329,-4.329,0.0,0.0,0.0,0.0,0.0,0.0,0.0,0.0,0.0,0.0,0.0,0.0,0.0,0.0,0.0,0.0,0.0,0.0,0.0,0.0,0.0,0.0,0.0,0.0,0.0,0.0,0.0,0.0,0.0,0.0,0.0,-3.5089,-3.5223,-3.5223,-3.5078,-3.503,-3.503,-3.4884,-3.4775,-3.4775,-3.4775,-3.4775,-3.4775,-3.492,-3.492,-3.4775,-3.4775,-3.4775,-3.4775,-3.4775,-3.4775,-3.4823,-3.5368,-3.562,-3.5656,-3.6216,-3.6405,-3.6405,-3.6405,-3.6405,-3.6405,-3.6405,-3.6405,-3.6499,-3.6989,-3.7441,-3.7808,-3.7828,-3.8496,-3.921,-3.9241,-3.9942,-4.0731,-4.1254,-4.1758,-4.2092,-4.2092,-4.2092,-4.2092,-4.2092,-4.2092,-4.2092,-4.2092,-4.2366,-4.2662,-4.2941,-4.3155,-4.329,-4.329,-4.329,-4.329,-4.329,-4.329,-4.329,-4.329,-4.329,-4.329,-4.329,-4.329,-4.329,-4.329,-4.329,-4.329,-4.329,-4.329,-4.329,-4.329,-4.329,-4.329,-4.329,-4.329,-4.329,0.0,0.0,0.0,0.0,0.0,0.0,0.0,0.0,0.0,0.0,0.0,0.0,0.0,0.0,0.0,0.0,0.0,0.0,0.0,0.0,0.0,0.0,0.0,0.0,0.0,0.0,0.0,0.0,0.0,0.0,-3.3982,-3.4402,-3.4679,-3.4775,-3.4775,-3.4775,-3.4775,-3.4775,-3.4775,-3.4775,-3.4775,-3.4775,-3.4775,-3.4775,-3.4775,-3.4775,-3.4775,-3.4775,-3.4775,-3.4775,-3.4835,-3.4932,-3.5416,-3.562,-3.5716,-3.6228,-3.6405,-3.6405,-3.6405,-3.6405,-3.6405,-3.6405,-3.6405,-3.6405,-3.6405,-3.6956,-3.7407,-3.664,-3.752,-3.8585,-3.7933,-3.9077,-4.0375,-4.0546,-4.1395,-4.2092,-4.2092,-4.2092,-4.2092,-4.2092,-4.2092,-4.2092,-4.2133,-4.2433,-4.2729,-4.2915,-4.3115,-4.325,-4.325,-4.329,-4.329,-4.329,-4.329,-4.329,-4.329,-4.329,-4.329,-4.329,-4.329,-4.329,-4.329,-4.329,-4.329,-4.329,-4.329,-4.329,-4.329,-4.329,-4.329,-4.329,-4.329,-4.329,0.0,0.0,0.0,0.0,0.0,0.0,0.0,0.0,0.0,0.0,0.0,0.0,0.0,0.0,0.0,0.0,0.0,0.0,0.0,0.0,0.0,0.0,0.0,0.0,0.0,0.0,0.0,0.0,0.0,0.0,-3.397,-3.4054,-3.4306,-3.4763,-3.4775,-3.4775,-3.4775,-3.4775,-3.4775,-3.4775,-3.4775,-3.4775,-3.4775,-3.4775,-3.4775,-3.4775,-3.4775,-3.4775,-3.4775,-3.4775,-3.4932,-3.5175,-3.5476,-3.5716,-3.5955,-3.6275,-3.6405,-3.6405,-3.6405,-3.6405,-3.6405,-3.6405,-3.6405,-3.6405,-3.6405,-3.6499,-3.6546,-3.6452,-3.6593,-3.6943,-3.7625,-3.8599,-3.9593,-4.0418,-4.1395,-4.2092,-4.2092,-4.2092,-4.2092,-4.2092,-4.2092,-4.2175,-4.231,-4.2392,-4.2514,-4.2688,-4.2915,-4.3036,-4.3036,-4.321,-4.329,-4.329,-4.329,-4.329,-4.329,-4.329,-4.329,-4.329,-4.329,-4.329,-4.329,-4.329,-4.329,-4.329,-4.329,-4.329,-4.329,-4.329,-4.329,-4.329,-4.329,-4.329,0.0,0.0,0.0,0.0,0.0,0.0,0.0,0.0,0.0,0.0,0.0,0.0,0.0,0.0,0.0,0.0,0.0,0.0,0.0,0.0,0.0,0.0,0.0,0.0,0.0,0.0,0.0,0.0,0.0,-3.2947,-3.3164,-3.3464,-3.3861,-3.4318,-3.4342,-3.4486,-3.4775,-3.4775,-3.4775,-3.4775,-3.4775,-3.4775,-3.4775,-3.4775,-3.4775,-3.4775,-3.4775,-3.4775,-3.4823,-3.4981,-3.5078,-3.5223,-3.5668,-3.592,-3.6015,-3.6323,-3.6405,-3.6405,-3.6405,-3.6405,-3.6405,-3.6405,-3.6405,-3.6405,-3.6405,-3.6405,-3.6405,-3.6405,-3.6405,-3.6499,-3.6909,-3.8102,-3.9285,-3.9724,-4.1001,-4.2092,-4.2092,-4.2092,-4.2092,-4.2092,-4.2092,-4.2175,-4.2366,-4.2392,-4.2474,-4.2648,-4.2875,-4.2981,-4.2981,-4.317,-4.329,-4.329,-4.329,-4.329,-4.329,-4.329,-4.329,-4.329,-4.329,-4.329,-4.329,-4.329,-4.329,-4.329,-4.329,-4.329,-4.329,-4.329,-4.329,-4.329,-4.329,-4.329,0.0,0.0,0.0,0.0,0.0,0.0,0.0,0.0,0.0,0.0,0.0,0.0,0.0,0.0,0.0,0.0,0.0,0.0,0.0,0.0,0.0,0.0,0.0,0.0,0.0,0.0,0.0,0.0,0.0,-3.2346,-3.2491,-3.2875,-3.332,-3.3837,-3.3802,-3.4054,-3.457,-3.4715,-3.4775,-3.4775,-3.4775,-3.4775,-3.4775,-3.4775,-3.4775,-3.4775,-3.4775,-3.4775,-3.4823,-3.5078,-3.5223,-3.5368,-3.5824,-3.6063,-3.6146,-3.6323,-3.6405,-3.6405,-3.6405,-3.6405,-3.6405,-3.6405,-3.6405,-3.6405,-3.6405,-3.6405,-3.6405,-3.6405,-3.6405,-3.6405,-3.6405,-3.7612,-3.8899,-3.9166,-4.0503,-4.1773,-4.2051,-4.2092,-4.2092,-4.2092,-4.2092,-4.2133,-4.2284,-4.231,-4.2392,-4.2581,-4.2795,-4.2955,-4.2981,-4.317,-4.329,-4.329,-4.329,-4.329,-4.329,-4.329,-4.329,-4.329,-4.329,-4.329,-4.329,-4.329,-4.329,-4.329,-4.329,-4.329,-4.329,-4.329,-4.329,-4.329,-4.329,-4.329,0.0,0.0,0.0,0.0,0.0,0.0,0.0,0.0,0.0,0.0,0.0,0.0,0.0,0.0,0.0,0.0,0.0,0.0,0.0,0.0,0.0,0.0,0.0,0.0,0.0,0.0,0.0,0.0,0.0,-3.1982,-3.2466,-3.2527,-3.2791,-3.3308,-3.3332,-3.3573,-3.403,-3.4534,-3.4775,-3.4775,-3.4775,-3.4775,-3.4775,-3.4775,-3.4775,-3.4775,-3.4775,-3.4775,-3.4823,-3.5078,-3.5368,-3.562,-3.5908,-3.6146,-3.6358,-3.6405,-3.6405,-3.6405,-3.6405,-3.6405,-3.6405,-3.6405,-3.6405,-3.6405,-3.6405,-3.6405,-3.6405,-3.6405,-3.6405,-3.6405,-3.6405,-3.7129,-3.8115,-3.8988,-3.9942,-4.093,-4.1912,-4.2092,-4.2092,-4.2092,-4.2092,-4.2092,-4.2092,-4.2133,-4.2175,-4.2392,-4.2581,-4.2769,-4.2996,-4.317,-4.329,-4.329,-4.329,-4.329,-4.329,-4.329,-4.329,-4.329,-4.329,-4.329,-4.329,-4.329,-4.329,-4.329,-4.329,-4.329,-4.329,-4.329,-4.329,-4.329,-4.329,-4.329,0.0,0.0,0.0,0.0,0.0,0.0,0.0,0.0,0.0,0.0,0.0,0.0,0.0,0.0,0.0,0.0,0.0,0.0,0.0,0.0,0.0,0.0,0.0,0.0,0.0,0.0,0.0,0.0,0.0,0.0,-3.1994,-3.2006,-3.2214,-3.2767,-3.2791,-3.3188,-3.3982,-3.4186,-3.4438,-3.4775,-3.4775,-3.4775,-3.4775,-3.4775,-3.4775,-3.4775,-3.4775,-3.4775,-3.4823,-3.5078,-3.5368,-3.562,-3.592,-3.6146,-3.6405,-3.6405,-3.6405,-3.6405,-3.6405,-3.6405,-3.6405,-3.6405,-3.6405,-3.6405,-3.6405,-3.6405,-3.6405,-3.6405,-3.6405,-3.6405,-3.6405,-3.7083,-3.8206,-3.9724,-4.0845,-4.1675,-4.2009,-4.2092,-4.2092,-4.2092,-4.2092,-4.2092,-4.2092,-4.2092,-4.2175,-4.2351,-4.2581,-4.2769,-4.2981,-4.317,-4.329,-4.329,-4.329,-4.329,-4.329,-4.329,-4.329,-4.329,-4.329,-4.329,-4.329,-4.329,-4.329,-4.329,-4.329,-4.329,-4.329,-4.329,-4.329,-4.329,-4.329,-4.329,-1.9212,0.0,0.0,0.0,0.0,0.0,0.0,0.0,0.0,0.0,0.0,0.0,0.0,0.0,0.0,0.0,0.0,0.0,0.0,0.0,0.0,0.0,0.0,0.0,0.0,0.0,0.0,0.0,0.0,0.0,-3.1705,-3.1705,-3.1874,-3.2214,-3.2406,-3.2827,-3.3466,-3.3705,-3.3994,-3.451,-3.451,-3.4607,-3.4775,-3.4775,-3.4775,-3.4775,-3.4775,-3.4775,-3.4823,-3.5078,-3.5368,-3.562,-3.592,-3.6146,-3.6405,-3.6405,-3.6405,-3.6405,-3.6405,-3.6405,-3.6405,-3.6405,-3.6405,-3.6405,-3.6405,-3.6405,-3.6405,-3.6405,-3.6405,-3.6405,-3.6405,-3.7083,-3.8115,-3.9373,-4.0631,-4.1591,-4.1591,-4.1856,-4.2092,-4.2092,-4.2092,-4.2092,-4.2092,-4.2092,-4.2175,-4.2351,-4.25,-4.2688,-4.2955,-4.3115,-4.325,-4.329,-4.329,-4.329,-4.329,-4.329,-4.329,-4.329,-4.329,-4.329,-4.329,-4.329,-4.329,-4.329,-4.329,-4.329,-4.329,-4.329,-4.329,-4.329,-4.329,-4.329,0.0,0.0,0.0,0.0,0.0,0.0,0.0,0.0,0.0,0.0,0.0,0.0,0.0,0.0,0.0,0.0,0.0,0.0,0.0,0.0,0.0,0.0,0.0,0.0,0.0,0.0,0.0,0.0,0.0,-3.1705,-3.1705,-3.1705,-3.1705,-3.1705,-3.219,-3.2478,-3.2503,-3.3008,-3.3525,-3.397,-3.397,-3.4246,-3.4763,-3.4763,-3.4763,-3.4775,-3.4775,-3.4775,-3.4823,-3.5078,-3.5368,-3.562,-3.5872,-3.6146,-3.6405,-3.6405,-3.6405,-3.6405,-3.6405,-3.6405,-3.6405,-3.6405,-3.6405,-3.6405,-3.6405,-3.6405,-3.6405,-3.6405,-3.6405,-3.6405,-3.6405,-3.7083,-3.7808,-3.7808,-3.921,-4.0546,-4.0546,-4.1353,-4.2051,-4.2092,-4.2092,-4.2092,-4.2092,-4.2092,-4.2175,-4.2351,-4.2392,-4.2541,-4.2955,-4.2981,-4.3076,-4.329,-4.329,-4.329,-4.329,-4.329,-4.329,-4.329,-4.329,-4.329,-4.329,-4.329,-4.329,-4.329,-4.329,-4.329,-4.329,-4.329,-4.329,-4.329,-4.329,-4.329,-1.9358,0.0,0.0,0.0,0.0,0.0,0.0,0.0,0.0,0.0,0.0,0.0,0.0,0.0,0.0,0.0,0.0,0.0,0.0,0.0,0.0,0.0,0.0,0.0,0.0,0.0,0.0,0.0,-3.1705,-3.1705,-3.1705,-3.1705,-3.1705,-3.1705,-3.1862,-3.2094,-3.2491,-3.2647,-3.2984,-3.3501,-3.3501,-3.3765,-3.421,-3.421,-3.4414,-3.4775,-3.4775,-3.4775,-3.4835,-3.4884,-3.5175,-3.562,-3.5668,-3.5991,-3.6405,-3.6405,-3.6405,-3.6405,-3.6405,-3.6405,-3.6405,-3.6405,-3.6405,-3.6405,-3.6405,-3.6405,-3.6405,-3.6405,-3.6405,-3.6405,-3.6405,-3.7083,-3.7808,-3.7808,-3.872,-3.9593,-3.9593,-3.9826,-4.0431,-4.1829,-4.2092,-4.2092,-4.2092,-4.2092,-4.2175,-4.2351,-4.2392,-4.2541,-4.2955,-4.2981,-4.3076,-4.329,-4.329,-4.329,-4.329,-4.329,-4.329,-4.329,-4.329,-4.329,-4.329,-4.329,-4.329,-4.329,-4.329,-4.329,-4.329,-4.329,-4.329,-4.329,-4.329,-4.329,-1.9727,-1.9736,-1.9443,0.0,0.0,0.0,-2.0303,-2.1064,0.0,0.0,0.0,0.0,0.0,0.0,0.0,0.0,0.0,0.0,0.0,0.0,0.0,0.0,0.0,0.0,0.0,0.0,0.0,-3.1003,-3.1059,-3.125,-3.1661,-3.1705,-3.1705,-3.1705,-3.1705,-3.1862,-3.2154,-3.2154,-3.243,-3.2959,-3.2959,-3.3224,-3.3729,-3.3729,-3.4018,-3.445,-3.445,-3.4667,-3.4981,-3.4981,-3.5223,-3.562,-3.562,-3.5943,-3.6405,-3.6405,-3.6405,-3.6405,-3.6405,-3.6405,-3.6405,-3.6405,-3.6405,-3.6405,-3.6405,-3.6405,-3.6405,-3.6405,-3.6405,-3.6405,-3.6405,-3.6815,-3.7222,-3.7222,-3.7933,-3.8644,-3.8644,-3.8899,-3.9651,-4.117,-4.1479,-4.1633,-4.2051,-4.2092,-4.2133,-4.2242,-4.2284,-4.2392,-4.2688,-4.2769,-4.285,-4.3155,-4.3155,-4.321,-4.329,-4.329,-4.329,-4.329,-4.329,-4.329,-4.329,-4.329,-4.329,-4.329,-4.329,-4.329,-4.329,-4.329,-4.329,-4.329,-4.329,-4.329,-1.9883,-1.999,-1.9883,-1.9463,0.0,0.0,-2.0781,-2.1083,-2.1453,0.0,0.0,0.0,0.0,0.0,0.0,0.0,0.0,0.0,0.0,0.0,0.0,0.0,0.0,0.0,0.0,-2.8432,-2.8881,-2.9897,-3.009,-3.0633,-3.1661,-3.1705,-3.1705,-3.1705,-3.1705,-3.1705,-3.1705,-3.1705,-3.1958,-3.2406,-3.2406,-3.2683,-3.32,-3.32,-3.3477,-3.3958,-3.3958,-3.4401,-3.5138,-3.5138,-3.5367,-3.562,-3.562,-3.5943,-3.6405,-3.6405,-3.6405,-3.6405,-3.6405,-3.6405,-3.6405,-3.6405,-3.6405,-3.6405,-3.6405,-3.6405,-3.6405,-3.6405,-3.6405,-3.6405,-3.6405,-3.6405,-3.6405,-3.6405,-3.7049,-3.7625,-3.7625,-3.8283,-3.9197,-4.0246,-4.0504,-4.0916,-4.1912,-4.2092,-4.2092,-4.2092,-4.2092,-4.2175,-4.2351,-4.2392,-4.2541,-4.2915,-4.2996,-4.3076,-4.325,-4.329,-4.329,-4.329,-4.329,-4.329,-4.329,-4.329,-4.329,-4.329,-4.329,-4.329,-4.329,-4.329,-4.329,-4.329,-4.329,-4.329,-2.0458,-2.0478,-2.0332,0.0,0.0,0.0,-2.0117,-2.0449,-2.0869,0.0,0.0,0.0,0.0,0.0,0.0,0.0,0.0,0.0,0.0,0.0,0.0,0.0,0.0,0.0,0.0,-2.6802,-2.7427,-2.843,-2.9568,-3.0633,-3.1661,-3.1705,-3.1705,-3.1705,-3.1705,-3.1705,-3.1705,-3.1705,-3.1765,-3.1874,-3.1874,-3.2163,-3.2659,-3.2659,-3.3027,-3.3683,-3.3683,-3.4139,-3.4875,-3.4875,-3.5275,-3.592,-3.592,-3.6146,-3.6405,-3.6405,-3.6405,-3.6405,-3.6405,-3.6405,-3.6405,-3.6405,-3.6405,-3.6405,-3.6405,-3.6405,-3.6405,-3.6405,-3.6405,-3.6405,-3.6405,-3.6405,-3.6405,-3.6405,-3.6546,-3.6675,-3.6675,-3.6815,-3.7428,-3.9152,-4.0073,-4.0916,-4.1912,-4.2092,-4.2092,-4.2092,-4.2092,-4.2175,-4.2351,-4.2392,-4.2514,-4.2729,-4.2915,-4.3036,-4.3076,-4.321,-4.329,-4.329,-4.329,-4.329,-4.329,-4.329,-4.329,-4.329,-4.329,-4.329,-4.329,-4.329,-4.329,-4.329,-4.329,-4.329,0.0,0.0,0.0,-2.0293,0.0,0.0,0.0,-2.0742,-2.1025,-2.1465,0.0,0.0,0.0,0.0,0.0,0.0,0.0,0.0,0.0,0.0,0.0,0.0,0.0,0.0,0.0,-2.5375,-2.6003,-2.7278,-2.8914,-3.0175,-3.0902,-3.1427,-3.1705,-3.1705,-3.1705,-3.1705,-3.1705,-3.1705,-3.1705,-3.1705,-3.1705,-3.1849,-3.2082,-3.2082,-3.2461,-3.3071,-3.3138,-3.3683,-3.4404,-3.4496,-3.5003,-3.5759,-3.5951,-3.6146,-3.6405,-3.6405,-3.6405,-3.6405,-3.6405,-3.6405,-3.6405,-3.6405,-3.6405,-3.6405,-3.6405,-3.6405,-3.6405,-3.6405,-3.6405,-3.6405,-3.6405,-3.6405,-3.6405,-3.6405,-3.6405,-3.6405,-3.6405,-3.6405,-3.6943,-3.8854,-3.9593,-4.036,-4.187,-4.2092,-4.2092,-4.2092,-4.2092,-4.2133,-4.2242,-4.2242,-4.2325,-4.2541,-4.2729,-4.2875,-4.2981,-4.317,-4.329,-4.329,-4.329,-4.329,-4.329,-4.329,-4.329,-4.329,-4.329,-4.329,-4.329,-4.3015,-4.3015,-4.329,-4.329,-4.3125,0.0,0.0,0.0,0.0,0.0,-2.0703,0.0,0.0,0.0,-2.1553,0.0,0.0,0.0,0.0,0.0,0.0,0.0,0.0,0.0,0.0,0.0,0.0,0.0,0.0,0.0,-2.4121,-2.4778,-2.6351,-2.7918,-2.9159,-3.0031,-3.0911,-3.1516,-3.1705,-3.1705,-3.1705,-3.1705,-3.1705,-3.1705,-3.1705,-3.1705,-3.1705,-3.1705,-3.1749,-3.2002,-3.2482,-3.2682,-3.3257,-3.3987,-3.4156,-3.4661,-3.5395,-3.5771,-3.6093,-3.6405,-3.6405,-3.6405,-3.6405,-3.6405,-3.6405,-3.6405,-3.6405,-3.6405,-3.6405,-3.6405,-3.6405,-3.6405,-3.6405,-3.6405,-3.6405,-3.6405,-3.6405,-3.6405,-3.6405,-3.6405,-3.6405,-3.6405,-3.6405,-3.6943,-3.8854,-3.921,-3.9839,-4.1773,-4.2092,-4.2092,-4.2092,-4.2092,-4.2092,-4.2092,-4.2133,-4.2201,-4.2392,-4.2607,-4.2795,-4.2996,-4.317,-4.329,-4.329,-4.329,-4.329,-4.329,-4.329,-4.329,-4.329,-4.329,-4.323,-4.315,-4.2626,-4.2626,-4.3135,-4.2976,-4.2671,0.0,0.0,0.0,0.0,-2.0605,0.0,0.0,0.0,-2.0693,-2.0742,0.0,0.0,0.0,0.0,0.0,0.0,0.0,0.0,0.0,0.0,0.0,0.0,0.0,0.0,0.0,0.0,-2.4004,-2.5844,-2.6177,-2.7266,-2.9458,-3.0097,-3.0767,-3.1661,-3.1705,-3.1705,-3.1705,-3.1705,-3.1705,-3.1705,-3.1705,-3.1705,-3.1717,-3.1893,-3.2118,-3.2399,-3.2593,-3.3165,-3.3909,-3.3953,-3.4279,-3.4818,-3.5382,-3.5897,-3.6405,-3.6405,-3.6405,-3.6405,-3.6405,-3.6405,-3.6405,-3.6405,-3.6405,-3.6405,-3.6405,-3.6405,-3.6405,-3.6405,-3.6405,-3.6405,-3.6405,-3.6405,-3.6405,-3.6405,-3.6405,-3.6405,-3.6405,-3.6405,-3.6943,-3.8854,-3.921,-3.9839,-4.1773,-4.2092,-4.2092,-4.2092,-4.2092,-4.2092,-4.2092,-4.2242,-4.2351,-4.2392,-4.2729,-4.2996,-4.2981,-4.317,-4.329,-4.329,-4.329,-4.329,-4.329,-4.329,-4.329,-4.329,-4.329,-4.3045,-4.2515,-4.2425,-4.244,-4.25,-4.1901,-4.1564,0.0,0.0,0.0,0.0,0.0,0.0,-2.0664,0.0,-2.0605,0.0,0.0,0.0,0.0,0.0,0.0,0.0,-2.0947,0.0,0.0,0.0,0.0,0.0,0.0,0.0,0.0,0.0,0.0,0.0,0.0,-2.6083,-2.7334,-2.8947,-3.0001,-3.0411,-3.126,-3.1705,-3.1705,-3.1705,-3.1705,-3.1705,-3.1805,-3.1893,-3.1893,-3.2125,-3.23,-3.2388,-3.2593,-3.2891,-3.3233,-3.3376,-3.3746,-3.4274,-3.45,-3.5127,-3.5931,-3.6292,-3.6405,-3.6405,-3.6405,-3.6405,-3.6405,-3.6405,-3.6405,-3.6405,-3.6405,-3.6405,-3.6405,-3.6405,-3.6405,-3.6405,-3.6405,-3.6405,-3.6405,-3.6405,-3.6405,-3.6405,-3.6405,-3.6815,-3.7441,-3.8238,-3.881,-3.9475,-4.0287,-4.1367,-4.2092,-4.2092,-4.2092,-4.2092,-4.2092,-4.2175,-4.2242,-4.2242,-4.2459,-4.2648,-4.2648,-4.2915,-4.3115,-4.3115,-4.325,-4.329,-4.329,-4.329,-4.329,-4.329,-4.329,-4.317,-4.2925,-4.2162,-4.1826,-4.1826,-4.1542,-4.1175,-2.0898,0.0,0.0,0.0,0.0,0.0,0.0,0.0,0.0,0.0,0.0,0.0,0.0,0.0,0.0,0.0,0.0,0.0,0.0,0.0,0.0,0.0,0.0,0.0,0.0,0.0,0.0,-2.3408,-2.4233,-2.5005,-2.5716,-2.7632,-2.8958,-2.9489,-3.0687,-3.1427,-3.1705,-3.1705,-3.1705,-3.1705,-3.1893,-3.1994,-3.1994,-3.2344,-3.2475,-3.2475,-3.2723,-3.281,-3.281,-3.3025,-3.3319,-3.3684,-3.3847,-3.4387,-3.5132,-3.5881,-3.6279,-3.6405,-3.6405,-3.6405,-3.6405,-3.6405,-3.6405,-3.6405,-3.6405,-3.6405,-3.6405,-3.6405,-3.6405,-3.6405,-3.6405,-3.6405,-3.6405,-3.6405,-3.6405,-3.6405,-3.6405,-3.6956,-3.75,-3.7763,-3.8328,-3.8899,-3.9166,-4.0374,-4.1409,-4.1633,-4.1675,-4.1773,-4.2051,-4.2133,-4.2175,-4.2175,-4.2351,-4.2459,-4.2459,-4.2769,-4.2915,-4.2915,-4.3115,-4.321,-4.321,-4.325,-4.329,-4.329,-4.329,-4.32,-4.306,-4.2117,-4.1587,-4.1407,-4.101,-4.0591,0.0,0.0,0.0,-2.0713,0.0,0.0,0.0,0.0,-2.0605,0.0,0.0,0.0,0.0,0.0,0.0,-2.0605,0.0,0.0,0.0,0.0,0.0,0.0,0.0,0.0,0.0,0.0,0.0,-2.2519,-2.293,-2.3813,-2.5259,-2.6177,-2.7562,-2.9445,-2.9996,-3.0734,-3.1705,-3.1705,-3.1705,-3.1705,-3.1893,-3.1994,-3.2038,-3.2463,-3.2667,-3.2723,-3.2982,-3.3081,-3.3081,-3.3124,-3.3124,-3.3156,-3.3696,-3.3922,-3.4085,-3.5119,-3.5906,-3.6405,-3.6405,-3.6405,-3.6405,-3.6405,-3.6405,-3.6405,-3.6405,-3.6405,-3.6405,-3.6405,-3.6405,-3.6405,-3.6405,-3.6405,-3.6405,-3.6405,-3.6405,-3.6405,-3.6405,-3.6405,-3.6722,-3.7625,-3.7808,-3.8115,-3.9033,-3.9241,-3.9607,-4.0518,-4.0646,-4.1015,-4.1953,-4.2284,-4.2392,-4.2392,-4.2581,-4.2688,-4.2688,-4.2688,-4.2688,-4.2688,-4.2915,-4.3036,-4.3036,-4.321,-4.329,-4.329,-4.329,-4.3015,-4.2425,-4.2396,-4.2036,-4.1392,-4.0068,-3.9433,0.0,0.0,-2.1914,-2.1191,0.0,0.0,0.0,0.0,0.0,0.0,0.0,0.0,0.0,0.0,-2.0605,-2.0605,-2.0605,0.0,0.0,0.0,0.0,0.0,0.0,0.0,0.0,0.0,0.0,-2.25,-2.2857,-2.3334,0.0,-2.504,-2.6466,-2.8054,-2.9168,-3.0372,-3.1705,-3.1705,-3.1705,-3.1705,-3.1893,-3.2081,-3.2257,-3.255,-3.281,-3.2982,-3.3081,-3.3124,-3.3124,-3.3124,-3.3124,-3.3136,-3.3282,-3.3583,-3.4035,-3.5094,-3.5621,-3.5868,-3.6279,-3.6405,-3.6405,-3.6405,-3.6405,-3.6405,-3.6405,-3.6405,-3.6405,-3.6405,-3.6405,-3.6405,-3.6405,-3.6405,-3.6405,-3.6405,-3.6405,-3.6405,-3.6405,-3.6909,-3.7222,-3.6956,-3.7361,-3.7717,-3.7381,-3.7348,-3.7874,-3.9461,-4.0202,-4.0731,-4.1057,-4.1758,-4.2201,-4.2201,-4.2242,-4.2325,-4.2325,-4.2433,-4.2541,-4.2688,-4.2875,-4.2981,-4.2981,-4.321,-4.329,-4.329,-4.329,-4.3185,-4.3,-4.2605,-4.2291,-4.2051,-4.113,-4.0487,-2.2148,-2.2305,0.0,-2.1641,-2.168,0.0,-2.0967,0.0,0.0,0.0,0.0,0.0,0.0,0.0,0.0,-2.0781,-2.0713,0.0,0.0,-2.0605,0.0,0.0,0.0,0.0,0.0,0.0,-2.2187,-2.249,-2.2721,-2.2935,0.0,0.0,-2.535,-2.6593,-2.8166,-2.9617,-3.0909,-3.1432,-3.1705,-3.1705,-3.1981,-3.2213,-3.2388,-3.2723,-3.2939,-3.3124,-3.3124,-3.3124,-3.3124,-3.3124,-3.3124,-3.3124,-3.3124,-3.3294,-3.3721,-3.4625,-3.5157,-3.5558,-3.5956,-3.6194,-3.6405,-3.6405,-3.6405,-3.6405,-3.6405,-3.6405,-3.6405,-3.6405,-3.6405,-3.6405,-3.6405,-3.6405,-3.6405,-3.6405,-3.6405,-3.6405,-3.6405,-3.6862,-3.7129,-3.6499,-3.6909,-3.7129,-3.6499,-3.6675,-3.7441,-3.8988,-3.9724,-4.0346,-4.1015,-4.1717,-4.2092,-4.2092,-4.1889,-4.177,-4.1852,-4.2097,-4.2392,-4.2688,-4.2795,-4.2915,-4.2981,-4.321,-4.329,-4.329,-4.329,-4.329,-4.329,-4.291,-4.2701,-4.2686,-4.2081,-4.1542]}]]